Darstellungsparameter: Aktuell verwendete Einstellungen:
Skalierung der Graphiken ... ?
xyx+y,   Skalierungsfaktor:      Skalierung: Modus: x, Faktor: 1
Darstellungszeitraum ... ?
Vom - - bis: - -   Zeitraum: 01.04.2020 - 29.04.2020
Min/Max/Avg-Anzeige ... ?
Zeige MMA aktuell
Zeige MMA Monat
Zeige MMA alles
Zeige --A aktuell
Zeige --A Monat
Zeige --A alles
Keine MMA-Anzeige
MMA:
Average (ber die Originaldaten)
MMA-Basis: 28.03.2020 - 30.04.2020
Quicknavigation für Darstellung... ?
Tage:      1T, 2T, 3T, 5T -1T -2T -3T -5T +1T +2T +3T +5T
Wochen: 1W, 2W, 3W -1W -2W -3W +1W +2W +3W
Monate: 1M, 3M, 6M -1M -3M -6M +1M +3M +6M
Jahre:    1J, 3J, 5J, 10J -1J -3J -5J -10J +1J +3J +5J +10J
Nutze für die Darstellung ... ?
Originaldaten oder Mittelwerte auf ...
Stundenbasis Tagesbasis Wochenbasis
Monatsbasis Jahresbasis      Datenbasis: Original-Daten
Darstellen als:
Statistik (Auto) Statistik J:M      Darstellung:
Zur Graphik,    zurück zur Übersicht aller Sensoren.
 
Tabellarische Datenbersicht: ?
 
Sensor: Nr:Datum:Temp:Feuchte:
Aussen-T/F 1 01-04-2020 00:01:17 1.2 C 31 %
2 01-04-2020 00:11:17 0 C 35 %
3 01-04-2020 00:21:17 0.8 C 33 %
4 01-04-2020 00:31:17 0.6 C 32 %
5 01-04-2020 00:41:17 0.5 C 33 %
6 01-04-2020 00:51:17 -0.3 C 35 %
7 01-04-2020 01:01:17 -0.1 C 36 %
8 01-04-2020 01:11:17 -0.3 C 35 %
9 01-04-2020 01:21:17 -1 C 37 %
10 01-04-2020 01:30:18 -1.4 C 38 %
11 01-04-2020 01:40:18 -1.7 C 38 %
12 01-04-2020 01:51:17 -1.9 C 38 %
13 01-04-2020 02:01:17 -1.9 C 38 %
14 01-04-2020 02:11:17 -2 C 38 %
15 01-04-2020 02:21:17 -2.1 C 38 %
16 01-04-2020 02:31:17 -2.3 C 39 %
17 01-04-2020 02:41:17 -2.4 C 38 %
18 01-04-2020 02:50:18 -2.4 C 39 %
19 01-04-2020 03:01:17 -2.5 C 38 %
20 01-04-2020 03:11:17 -2.6 C 38 %
21 01-04-2020 03:21:17 -2.8 C 39 %
22 01-04-2020 03:31:17 -2.7 C 38 %
23 01-04-2020 03:41:18 -3 C 38 %
24 01-04-2020 03:51:17 -3 C 39 %
25 01-04-2020 04:01:17 -2.8 C 39 %
Sensor: Nr:Datum:Temp:Feuchte:
Aussen-T/F 26 01-04-2020 04:11:17 -3.1 C 38 %
27 01-04-2020 04:21:17 -3.2 C 39 %
28 01-04-2020 04:31:18 -3.5 C 38 %
29 01-04-2020 04:41:19 -3.4 C 39 %
30 01-04-2020 04:51:17 -3.5 C 39 %
31 01-04-2020 05:01:18 -3.6 C 39 %
32 01-04-2020 05:11:19 -3.8 C 40 %
33 01-04-2020 05:21:17 -3.8 C 40 %
34 01-04-2020 05:31:18 -3.8 C 40 %
35 01-04-2020 05:41:18 -4 C 40 %
36 01-04-2020 05:51:17 -4.2 C 40 %
37 01-04-2020 06:01:18 -4.2 C 40 %
38 01-04-2020 06:11:18 -4 C 40 %
39 01-04-2020 06:21:17 -4.2 C 40 %
40 01-04-2020 06:31:17 -4.2 C 41 %
41 01-04-2020 06:41:17 -4.3 C 41 %
42 01-04-2020 06:51:17 -4.5 C 41 %
43 01-04-2020 07:01:18 -4.6 C 41 %
44 01-04-2020 07:11:19 -4.7 C 41 %
45 01-04-2020 07:21:17 -4.5 C 41 %
46 01-04-2020 07:31:18 -4.4 C 41 %
47 01-04-2020 07:41:18 -4.5 C 41 %
48 01-04-2020 07:51:17 -4.3 C 41 %
49 01-04-2020 08:01:17 -4.2 C 41 %
50 01-04-2020 08:11:17 -4.2 C 41 %
Sensor: Nr:Datum:Temp:Feuchte:
Aussen-T/F 51 01-04-2020 08:21:17 -3.7 C 41 %
52 01-04-2020 08:31:17 -3.8 C 41 %
53 01-04-2020 08:41:17 -3.7 C 41 %
54 01-04-2020 08:51:17 -3.4 C 40 %
55 01-04-2020 09:01:17 -3.4 C 40 %
56 01-04-2020 09:11:17 -2.7 C 40 %
57 01-04-2020 09:21:17 -2.6 C 40 %
58 01-04-2020 09:31:17 -2.5 C 40 %
59 01-04-2020 09:41:17 -2.1 C 40 %
60 01-04-2020 09:51:17 -1.5 C 39 %
61 01-04-2020 10:01:17 -1 C 39 %
62 01-04-2020 10:11:17 -0.9 C 40 %
63 01-04-2020 10:21:17 -0.4 C 40 %
64 01-04-2020 10:31:18 0.5 C 39 %
65 01-04-2020 10:41:18 1 C 37 %
66 01-04-2020 10:51:17 1.6 C 36 %
67 01-04-2020 11:01:17 2.4 C 35 %
68 01-04-2020 11:11:17 3.2 C 33 %
69 01-04-2020 11:21:17 4.2 C 29 %
70 01-04-2020 11:31:17 4.8 C 20 %
71 01-04-2020 11:41:17 5.3 C 20 %
72 01-04-2020 11:51:17 6 C 20 %
73 01-04-2020 12:01:17 6.6 C 20 %
74 01-04-2020 12:11:18 7.1 C 20 %
75 01-04-2020 12:21:17 8.9 C 20 %
Sensor: Nr:Datum:Temp:Feuchte:
Aussen-T/F 76 01-04-2020 12:31:17 10.3 C 20 %
77 01-04-2020 12:41:17 9.2 C 20 %
78 01-04-2020 12:51:17 8 C 20 %
79 01-04-2020 13:01:17 9.3 C 20 %
80 01-04-2020 13:11:17 9.3 C 20 %
81 01-04-2020 13:21:16 8.6 C 20 %
82 01-04-2020 13:31:17 9.2 C 20 %
83 01-04-2020 13:41:17 9.6 C 20 %
84 01-04-2020 13:51:17 10 C 20 %
85 01-04-2020 14:01:17 10.3 C 20 %
86 01-04-2020 14:11:17 10.7 C 20 %
87 01-04-2020 14:21:17 13.2 C 20 %
88 01-04-2020 14:31:16 15.9 C 20 %
89 01-04-2020 14:41:16 16.3 C 20 %
90 01-04-2020 14:51:17 13.7 C 20 %
91 01-04-2020 15:01:17 14.2 C 20 %
92 01-04-2020 15:11:17 17.2 C 20 %
93 01-04-2020 15:21:17 16.8 C 20 %
94 01-04-2020 15:31:16 16.3 C 20 %
95 01-04-2020 15:41:16 18.2 C 20 %
96 01-04-2020 15:51:17 19.5 C 20 %
97 01-04-2020 16:01:16 18.7 C 20 %
98 01-04-2020 16:11:16 18.7 C 20 %
99 01-04-2020 16:21:16 19.7 C 20 %
100 01-04-2020 16:31:17 21.3 C 20 %
Sensor: Nr:Datum:Temp:Feuchte:
Aussen-T/F 101 01-04-2020 16:41:17 15.5 C 20 %
102 01-04-2020 16:51:16 18.4 C 20 %
103 01-04-2020 17:01:16 17.2 C 20 %
104 01-04-2020 17:11:16 17.4 C 20 %
105 01-04-2020 17:21:17 17.7 C 20 %
106 01-04-2020 17:31:17 18.5 C 20 %
107 01-04-2020 17:41:17 16.8 C 20 %
108 01-04-2020 17:51:17 15.8 C 20 %
109 01-04-2020 18:01:17 12.6 C 20 %
110 01-04-2020 18:11:17 12 C 20 %
111 01-04-2020 18:21:16 12.1 C 20 %
112 01-04-2020 18:31:17 11.7 C 20 %
113 01-04-2020 18:41:17 11.8 C 20 %
114 01-04-2020 18:51:16 11.6 C 20 %
115 01-04-2020 19:01:17 11 C 20 %
116 01-04-2020 19:11:17 10.7 C 20 %
117 01-04-2020 19:21:17 10.4 C 20 %
118 01-04-2020 19:31:17 9.9 C 20 %
119 01-04-2020 19:41:17 9.6 C 20 %
120 01-04-2020 19:51:16 8.9 C 20 %
121 01-04-2020 20:01:17 8.1 C 20 %
122 01-04-2020 20:11:17 7.8 C 20 %
123 01-04-2020 20:21:16 8.1 C 20 %
124 01-04-2020 20:31:16 7.1 C 20 %
125 01-04-2020 20:41:16 6.2 C 20 %
Sensor: Nr:Datum:Temp:Feuchte:
Aussen-T/F 126 01-04-2020 20:51:16 5.9 C 20 %
127 01-04-2020 21:01:16 6 C 20 %
128 01-04-2020 21:11:16 6 C 20 %
129 01-04-2020 21:21:16 5.7 C 20 %
130 01-04-2020 21:31:16 5.7 C 20 %
131 01-04-2020 21:41:16 5.4 C 20 %
132 01-04-2020 21:51:16 4 C 21 %
133 01-04-2020 22:01:16 4.2 C 21 %
134 01-04-2020 22:11:16 3.7 C 26 %
135 01-04-2020 22:21:16 3.2 C 26 %
136 01-04-2020 22:31:16 2.5 C 29 %
137 01-04-2020 22:41:16 2.6 C 28 %
138 01-04-2020 22:51:16 2 C 30 %
139 01-04-2020 23:01:17 1.7 C 33 %
140 01-04-2020 23:11:17 1.7 C 32 %
141 01-04-2020 23:21:16 1.4 C 34 %
142 01-04-2020 23:31:16 1.2 C 34 %
143 01-04-2020 23:41:16 1 C 35 %
144 01-04-2020 23:51:16 1.1 C 34 %
145 02-04-2020 00:01:17 1 C 35 %
146 02-04-2020 00:11:17 0.4 C 36 %
147 02-04-2020 00:21:16 0.4 C 36 %
148 02-04-2020 00:31:17 0.2 C 36 %
149 02-04-2020 00:41:17 0.3 C 37 %
150 02-04-2020 00:51:16 0.3 C 36 %
Sensor: Nr:Datum:Temp:Feuchte:
Aussen-T/F 151 02-04-2020 01:01:17 0 C 37 %
152 02-04-2020 01:11:17 -0.4 C 38 %
153 02-04-2020 01:21:16 -0.6 C 38 %
154 02-04-2020 01:31:17 -0.7 C 38 %
155 02-04-2020 01:41:17 -0.7 C 38 %
156 02-04-2020 01:51:16 -0.9 C 39 %
157 02-04-2020 02:01:16 -1 C 39 %
158 02-04-2020 02:11:16 -1 C 39 %
159 02-04-2020 02:21:16 -1.2 C 39 %
160 02-04-2020 02:31:17 -1.3 C 40 %
161 02-04-2020 02:41:17 -1.6 C 40 %
162 02-04-2020 02:51:17 -1.5 C 40 %
163 02-04-2020 03:01:17 -1.5 C 40 %
164 02-04-2020 03:11:17 -1.5 C 40 %
165 02-04-2020 03:21:17 -1.3 C 40 %
166 02-04-2020 03:31:17 -1.4 C 40 %
167 02-04-2020 03:41:17 -1.6 C 40 %
168 02-04-2020 03:51:18 -1.7 C 40 %
169 02-04-2020 04:01:18 -2.1 C 40 %
170 02-04-2020 04:11:18 -1.7 C 41 %
171 02-04-2020 04:21:18 -1.6 C 40 %
172 02-04-2020 04:31:17 -2 C 40 %
173 02-04-2020 04:41:17 -2.4 C 41 %
174 02-04-2020 04:51:17 -2.7 C 41 %
175 02-04-2020 05:01:18 -2.6 C 41 %
Sensor: Nr:Datum:Temp:Feuchte:
Aussen-T/F 176 02-04-2020 05:11:18 -2.6 C 41 %
177 02-04-2020 05:21:17 -2.6 C 41 %
178 02-04-2020 05:31:18 -2.7 C 41 %
179 02-04-2020 05:41:18 -2.6 C 41 %
180 02-04-2020 05:51:17 -2.5 C 41 %
181 02-04-2020 06:01:17 -2.6 C 41 %
182 02-04-2020 06:11:17 -3 C 41 %
183 02-04-2020 06:21:17 -3 C 42 %
184 02-04-2020 06:31:17 -2.6 C 43 %
185 02-04-2020 06:41:17 -3.1 C 42 %
186 02-04-2020 06:51:17 -2.9 C 42 %
187 02-04-2020 07:01:17 -3.3 C 42 %
188 02-04-2020 07:11:17 -3 C 42 %
189 02-04-2020 07:21:17 -3.1 C 42 %
190 02-04-2020 07:31:17 -3 C 43 %
191 02-04-2020 07:41:18 -2.9 C 42 %
192 02-04-2020 07:51:17 -3 C 43 %
193 02-04-2020 08:01:17 -2.7 C 43 %
194 02-04-2020 08:11:18 -2.5 C 43 %
195 02-04-2020 08:21:17 -2.2 C 42 %
196 02-04-2020 08:31:17 -2.2 C 42 %
197 02-04-2020 08:41:17 -2 C 42 %
198 02-04-2020 08:51:17 -1.8 C 42 %
199 02-04-2020 09:01:17 -1.7 C 42 %
200 02-04-2020 09:11:17 -1.5 C 41 %
Sensor: Nr:Datum:Temp:Feuchte:
Aussen-T/F 201 02-04-2020 09:21:17 -1.3 C 41 %
202 02-04-2020 09:31:17 -1 C 41 %
203 02-04-2020 09:41:17 -0.6 C 41 %
204 02-04-2020 09:51:18 -0.3 C 41 %
205 02-04-2020 10:01:18 0.1 C 41 %
206 02-04-2020 10:11:18 0.6 C 41 %
207 02-04-2020 10:21:17 0.8 C 41 %
208 02-04-2020 10:31:17 1.7 C 40 %
209 02-04-2020 10:41:17 2.2 C 39 %
210 02-04-2020 10:51:17 3.1 C 37 %
211 02-04-2020 11:01:17 3.6 C 37 %
212 02-04-2020 11:11:17 4.6 C 35 %
213 02-04-2020 11:21:17 5.7 C 30 %
214 02-04-2020 11:31:18 6.5 C 30 %
215 02-04-2020 11:41:18 6.9 C 29 %
216 02-04-2020 11:51:17 7.4 C 27 %
217 02-04-2020 12:01:17 8.1 C 27 %
218 02-04-2020 12:11:17 8.5 C 25 %
219 02-04-2020 12:21:17 10.5 C 20 %
220 02-04-2020 12:31:18 12.2 C 20 %
221 02-04-2020 12:41:18 10.8 C 20 %
222 02-04-2020 12:51:17 10.3 C 20 %
223 02-04-2020 13:01:17 11 C 20 %
224 02-04-2020 13:11:18 11.5 C 20 %
225 02-04-2020 13:21:17 11.6 C 20 %
Sensor: Nr:Datum:Temp:Feuchte:
Aussen-T/F 226 02-04-2020 13:31:17 11.4 C 20 %
227 02-04-2020 13:41:17 12.3 C 20 %
228 02-04-2020 13:51:17 12.5 C 20 %
229 02-04-2020 14:01:17 11.8 C 20 %
230 02-04-2020 14:11:17 12.6 C 20 %
231 02-04-2020 14:21:17 15.5 C 20 %
232 02-04-2020 14:31:18 18.1 C 20 %
233 02-04-2020 14:41:18 18.3 C 20 %
234 02-04-2020 14:51:17 18.3 C 20 %
235 02-04-2020 15:01:18 19.7 C 20 %
236 02-04-2020 15:11:18 17.5 C 20 %
237 02-04-2020 15:21:17 19.2 C 20 %
238 02-04-2020 15:31:18 19.8 C 20 %
239 02-04-2020 15:41:18 19.3 C 20 %
240 02-04-2020 15:51:17 19.4 C 20 %
241 02-04-2020 16:01:17 21.3 C 20 %
242 02-04-2020 16:11:17 19.9 C 20 %
243 02-04-2020 16:21:17 16.6 C 20 %
244 02-04-2020 16:31:18 18 C 20 %
245 02-04-2020 16:41:18 17.6 C 20 %
246 02-04-2020 16:51:17 17.8 C 20 %
247 02-04-2020 17:01:17 17.3 C 20 %
248 02-04-2020 17:11:17 16.6 C 20 %
249 02-04-2020 17:21:17 15.8 C 20 %
250 02-04-2020 17:31:18 15.5 C 20 %
Sensor: Nr:Datum:Temp:Feuchte:
Aussen-T/F 251 02-04-2020 17:41:18 14.7 C 20 %
252 02-04-2020 17:51:17 14.8 C 20 %
253 02-04-2020 18:01:17 12.8 C 20 %
254 02-04-2020 18:11:17 12.2 C 20 %
255 02-04-2020 18:21:17 12.3 C 20 %
256 02-04-2020 18:31:17 11.8 C 20 %
257 02-04-2020 18:41:17 11.3 C 20 %
258 02-04-2020 18:51:17 11.1 C 20 %
259 02-04-2020 19:01:17 10.7 C 20 %
260 02-04-2020 19:11:17 10.2 C 20 %
261 02-04-2020 19:21:17 10 C 20 %
262 02-04-2020 19:31:17 9.6 C 20 %
263 02-04-2020 19:41:17 9.5 C 20 %
264 02-04-2020 19:51:17 8.7 C 20 %
265 02-04-2020 20:01:17 8.5 C 20 %
266 02-04-2020 20:11:17 8.5 C 20 %
267 02-04-2020 20:21:17 7.9 C 20 %
268 02-04-2020 20:31:17 7.8 C 20 %
269 02-04-2020 20:41:17 7.2 C 21 %
270 02-04-2020 20:51:17 6.9 C 25 %
271 02-04-2020 21:01:17 6.4 C 26 %
272 02-04-2020 21:11:17 6.3 C 27 %
273 02-04-2020 21:21:17 5.9 C 28 %
274 02-04-2020 21:31:18 5.7 C 29 %
275 02-04-2020 21:41:18 5.6 C 30 %
Sensor: Nr:Datum:Temp:Feuchte:
Aussen-T/F 276 02-04-2020 21:51:17 5.3 C 30 %
277 02-04-2020 22:01:17 5.2 C 30 %
278 02-04-2020 22:11:17 5.5 C 30 %
279 02-04-2020 22:21:17 5 C 30 %
280 02-04-2020 22:31:18 5.3 C 31 %
281 02-04-2020 22:41:18 5.2 C 31 %
282 02-04-2020 22:51:17 5.1 C 31 %
283 02-04-2020 23:01:17 4.8 C 32 %
284 02-04-2020 23:11:17 5 C 31 %
285 02-04-2020 23:21:17 5 C 31 %
286 02-04-2020 23:31:18 4.7 C 33 %
287 02-04-2020 23:41:18 3.9 C 35 %
288 02-04-2020 23:51:17 3.1 C 36 %
289 03-04-2020 00:01:18 2.7 C 38 %
290 03-04-2020 00:11:18 2.3 C 39 %
291 03-04-2020 00:21:17 2.6 C 40 %
292 03-04-2020 00:31:17 2.6 C 39 %
293 03-04-2020 00:41:17 3.2 C 38 %
294 03-04-2020 00:51:17 2.4 C 39 %
295 03-04-2020 01:01:18 2.4 C 39 %
296 03-04-2020 01:11:18 2.4 C 39 %
297 03-04-2020 01:21:17 2.6 C 39 %
298 03-04-2020 01:31:18 2.7 C 39 %
299 03-04-2020 01:41:18 2.5 C 39 %
300 03-04-2020 01:51:17 2.3 C 39 %
Sensor: Nr:Datum:Temp:Feuchte:
Aussen-T/F 301 03-04-2020 02:01:18 2.2 C 39 %
302 03-04-2020 02:11:18 2.3 C 39 %
303 03-04-2020 02:21:18 3.1 C 38 %
304 03-04-2020 02:31:18 3.2 C 38 %
305 03-04-2020 02:41:18 2.6 C 39 %
306 03-04-2020 02:51:17 2.8 C 39 %
307 03-04-2020 03:01:18 3 C 38 %
308 03-04-2020 03:11:18 3.6 C 38 %
309 03-04-2020 03:21:17 3.9 C 38 %
310 03-04-2020 03:31:17 4.4 C 36 %
311 03-04-2020 03:41:17 4.7 C 36 %
312 03-04-2020 03:51:17 4.6 C 36 %
313 03-04-2020 04:01:17 5 C 35 %
314 03-04-2020 04:11:17 5.6 C 35 %
315 03-04-2020 04:21:17 4.9 C 35 %
316 03-04-2020 04:31:18 4.7 C 36 %
317 03-04-2020 04:41:18 4.6 C 36 %
318 03-04-2020 04:51:18 4.4 C 36 %
319 03-04-2020 05:01:18 4.3 C 36 %
320 03-04-2020 05:11:18 4.5 C 36 %
321 03-04-2020 05:21:17 4.8 C 36 %
322 03-04-2020 05:31:17 4.8 C 36 %
323 03-04-2020 05:41:17 5.2 C 35 %
324 03-04-2020 05:51:17 5.3 C 35 %
325 03-04-2020 06:01:18 5.4 C 35 %
Sensor: Nr:Datum:Temp:Feuchte:
Aussen-T/F 326 03-04-2020 06:11:18 5.4 C 35 %
327 03-04-2020 06:21:17 5.1 C 35 %
328 03-04-2020 06:31:17 5.1 C 36 %
329 03-04-2020 06:41:17 5.1 C 35 %
330 03-04-2020 06:51:17 5.2 C 35 %
331 03-04-2020 07:01:17 5.7 C 35 %
332 03-04-2020 07:11:17 5.6 C 35 %
333 03-04-2020 07:21:18 5.5 C 35 %
334 03-04-2020 07:31:17 5.7 C 35 %
335 03-04-2020 07:41:17 5.6 C 35 %
336 03-04-2020 07:51:17 5.6 C 35 %
337 03-04-2020 08:01:17 5.7 C 35 %
338 03-04-2020 08:11:17 5.9 C 35 %
339 03-04-2020 08:21:18 5.9 C 35 %
340 03-04-2020 08:31:17 5.9 C 35 %
341 03-04-2020 08:41:17 6.1 C 35 %
342 03-04-2020 08:51:18 6.6 C 35 %
343 03-04-2020 09:01:17 7 C 34 %
344 03-04-2020 09:11:17 7.1 C 34 %
345 03-04-2020 09:21:18 7.6 C 34 %
346 03-04-2020 09:31:18 7.7 C 34 %
347 03-04-2020 09:41:18 8 C 33 %
348 03-04-2020 09:51:17 8.4 C 33 %
349 03-04-2020 10:01:18 8.6 C 32 %
350 03-04-2020 10:11:18 8.6 C 32 %
Sensor: Nr:Datum:Temp:Feuchte:
Aussen-T/F 351 03-04-2020 10:21:17 9 C 32 %
352 03-04-2020 10:31:18 9.4 C 32 %
353 03-04-2020 10:41:18 9.2 C 32 %
354 03-04-2020 10:51:17 9.6 C 32 %
355 03-04-2020 11:01:17 10.6 C 31 %
356 03-04-2020 11:11:17 11.2 C 29 %
357 03-04-2020 11:21:17 10.9 C 29 %
358 03-04-2020 11:31:17 11.1 C 28 %
359 03-04-2020 11:41:17 11.5 C 26 %
360 03-04-2020 11:51:17 11.4 C 26 %
361 03-04-2020 12:01:17 11.1 C 26 %
362 03-04-2020 12:11:17 11.2 C 26 %
363 03-04-2020 12:21:17 11.4 C 26 %
364 03-04-2020 12:31:17 11.6 C 25 %
365 03-04-2020 12:41:18 11.1 C 25 %
366 03-04-2020 12:51:17 11.1 C 25 %
367 03-04-2020 13:01:18 11.2 C 25 %
368 03-04-2020 13:11:18 11.7 C 25 %
369 03-04-2020 13:21:17 12.2 C 22 %
370 03-04-2020 13:31:17 11.8 C 22 %
371 03-04-2020 13:41:17 11.8 C 23 %
372 03-04-2020 13:51:17 12.2 C 22 %
373 03-04-2020 14:01:18 12.3 C 20 %
374 03-04-2020 14:11:18 11.6 C 21 %
375 03-04-2020 14:21:17 11.7 C 21 %
Sensor: Nr:Datum:Temp:Feuchte:
Aussen-T/F 376 03-04-2020 14:31:17 11.6 C 21 %
377 03-04-2020 14:41:18 11.4 C 23 %
378 03-04-2020 14:51:17 11.7 C 21 %
379 03-04-2020 15:01:17 11.8 C 20 %
380 03-04-2020 15:11:17 11.7 C 20 %
381 03-04-2020 15:21:18 11.8 C 20 %
382 03-04-2020 15:31:17 12.1 C 20 %
383 03-04-2020 15:41:17 12.5 C 20 %
384 03-04-2020 15:51:17 13.1 C 20 %
385 03-04-2020 16:01:17 12.6 C 20 %
386 03-04-2020 16:11:17 12.4 C 20 %
387 03-04-2020 16:21:17 12.4 C 20 %
388 03-04-2020 16:31:17 12.3 C 20 %
389 03-04-2020 16:41:17 12.4 C 20 %
390 03-04-2020 16:51:17 12.4 C 20 %
391 03-04-2020 17:01:17 12.2 C 20 %
392 03-04-2020 17:11:17 12.2 C 20 %
393 03-04-2020 17:21:17 12.2 C 20 %
394 03-04-2020 17:31:17 12.2 C 20 %
395 03-04-2020 17:41:17 12.4 C 20 %
396 03-04-2020 17:51:17 11.9 C 20 %
397 03-04-2020 18:01:17 11.5 C 20 %
398 03-04-2020 18:11:17 11.7 C 20 %
399 03-04-2020 18:21:17 11.5 C 20 %
400 03-04-2020 18:31:18 11.4 C 20 %
Sensor: Nr:Datum:Temp:Feuchte:
Aussen-T/F 401 03-04-2020 18:41:18 11 C 20 %
402 03-04-2020 18:51:17 11 C 20 %
403 03-04-2020 19:01:18 10.8 C 20 %
404 03-04-2020 19:11:18 10.7 C 20 %
405 03-04-2020 19:21:17 10.5 C 20 %
406 03-04-2020 19:31:17 10.2 C 20 %
407 03-04-2020 19:41:17 10.3 C 20 %
408 03-04-2020 19:51:17 9.9 C 20 %
409 03-04-2020 20:01:17 9.8 C 20 %
410 03-04-2020 20:11:17 9.5 C 20 %
411 03-04-2020 20:21:17 9.1 C 20 %
412 03-04-2020 20:31:18 9.5 C 20 %
413 03-04-2020 20:41:18 9.2 C 20 %
414 03-04-2020 20:51:18 9.1 C 20 %
415 03-04-2020 21:01:17 9.2 C 20 %
416 03-04-2020 21:11:17 9.1 C 20 %
417 03-04-2020 21:21:17 8.9 C 20 %
418 03-04-2020 21:31:17 8.7 C 20 %
419 03-04-2020 21:41:17 8.6 C 20 %
420 03-04-2020 21:51:17 8.3 C 20 %
421 03-04-2020 22:01:17 8.1 C 20 %
422 03-04-2020 22:11:17 7.9 C 20 %
423 03-04-2020 22:21:17 7.2 C 23 %
424 03-04-2020 22:31:18 6.8 C 25 %
425 03-04-2020 22:41:18 6.5 C 26 %
Sensor: Nr:Datum:Temp:Feuchte:
Aussen-T/F 426 03-04-2020 22:51:17 6.3 C 26 %
427 03-04-2020 23:01:17 6.4 C 26 %
428 03-04-2020 23:11:18 6.4 C 25 %
429 03-04-2020 23:21:18 6.2 C 26 %
430 03-04-2020 23:31:17 5.2 C 28 %
431 03-04-2020 23:41:18 5 C 29 %
432 03-04-2020 23:51:17 4.7 C 30 %
433 04-04-2020 00:01:17 4.8 C 30 %
434 04-04-2020 00:11:18 4.8 C 30 %
435 04-04-2020 00:21:17 4.7 C 30 %
436 04-04-2020 00:31:17 5.2 C 28 %
437 04-04-2020 00:41:17 4.5 C 29 %
438 04-04-2020 00:51:17 4 C 30 %
439 04-04-2020 01:01:17 4.6 C 30 %
440 04-04-2020 01:11:17 4.3 C 30 %
441 04-04-2020 01:21:18 3.9 C 31 %
442 04-04-2020 01:31:17 4 C 32 %
443 04-04-2020 01:41:17 3.1 C 35 %
444 04-04-2020 01:51:17 2.2 C 37 %
445 04-04-2020 02:01:18 1.7 C 39 %
446 04-04-2020 02:11:18 1.4 C 40 %
447 04-04-2020 02:21:17 1.2 C 40 %
448 04-04-2020 02:31:17 0.9 C 41 %
449 04-04-2020 02:41:17 0.8 C 41 %
450 04-04-2020 02:51:17 0.8 C 42 %
Sensor: Nr:Datum:Temp:Feuchte:
Aussen-T/F 451 04-04-2020 03:01:18 0.6 C 42 %
452 04-04-2020 03:11:18 0.4 C 42 %
453 04-04-2020 03:21:17 0.3 C 43 %
454 04-04-2020 03:31:18 0.6 C 43 %
455 04-04-2020 03:41:18 0.5 C 42 %
456 04-04-2020 03:51:17 -0.1 C 43 %
457 04-04-2020 04:01:17 -0.4 C 43 %
458 04-04-2020 04:11:17 -0.6 C 43 %
459 04-04-2020 04:21:17 -0.7 C 44 %
460 04-04-2020 04:31:17 -0.6 C 44 %
461 04-04-2020 04:41:17 -0.9 C 44 %
462 04-04-2020 04:51:17 -0.9 C 45 %
463 04-04-2020 05:01:18 -0.9 C 45 %
464 04-04-2020 05:11:18 -1.2 C 45 %
465 04-04-2020 05:21:18 -1.2 C 45 %
466 04-04-2020 05:31:17 -1 C 45 %
467 04-04-2020 05:41:17 -1.2 C 45 %
468 04-04-2020 05:51:17 -1.2 C 45 %
469 04-04-2020 06:01:18 -1.5 C 45 %
470 04-04-2020 06:11:18 -1.5 C 45 %
471 04-04-2020 06:21:17 -1.5 C 45 %
472 04-04-2020 06:31:17 -1.8 C 45 %
473 04-04-2020 06:41:17 -1.4 C 46 %
474 04-04-2020 06:51:17 -1.5 C 45 %
475 04-04-2020 07:01:18 -1.6 C 45 %
Sensor: Nr:Datum:Temp:Feuchte:
Aussen-T/F 476 04-04-2020 07:11:18 -1.8 C 45 %
477 04-04-2020 07:21:17 -1.5 C 46 %
478 04-04-2020 07:31:18 -1.8 C 45 %
479 04-04-2020 07:41:18 -1.7 C 46 %
480 04-04-2020 07:51:17 -1.8 C 45 %
481 04-04-2020 08:01:17 -1.8 C 46 %
482 04-04-2020 08:11:18 -1.7 C 46 %
483 04-04-2020 08:21:17 -1.5 C 46 %
484 04-04-2020 08:31:17 -1.1 C 46 %
485 04-04-2020 08:41:18 -1 C 46 %
486 04-04-2020 08:51:17 -0.7 C 45 %
487 04-04-2020 09:01:17 -0.3 C 45 %
488 04-04-2020 09:11:17 0 C 45 %
489 04-04-2020 09:21:17 -0.2 C 45 %
490 04-04-2020 09:31:18 0.2 C 45 %
491 04-04-2020 09:41:18 0.8 C 44 %
492 04-04-2020 09:51:17 1.1 C 43 %
493 04-04-2020 10:01:17 1.5 C 43 %
494 04-04-2020 10:11:18 1.8 C 43 %
495 04-04-2020 10:21:17 2.2 C 41 %
496 04-04-2020 10:31:17 2.9 C 41 %
497 04-04-2020 10:41:17 3.5 C 40 %
498 04-04-2020 10:51:17 4.5 C 37 %
499 04-04-2020 11:01:17 5.3 C 36 %
500 04-04-2020 11:11:17 6.4 C 35 %
Sensor: Nr:Datum:Temp:Feuchte:
Aussen-T/F 501 04-04-2020 11:21:18 7.1 C 32 %
502 04-04-2020 11:31:18 7.9 C 32 %
503 04-04-2020 11:41:18 8.4 C 29 %
504 04-04-2020 11:51:18 8.7 C 29 %
505 04-04-2020 12:01:18 9.7 C 26 %
506 04-04-2020 12:11:18 9.7 C 26 %
507 04-04-2020 12:21:17 10.6 C 22 %
508 04-04-2020 12:31:17 10.9 C 20 %
509 04-04-2020 12:41:17 11.4 C 20 %
510 04-04-2020 12:51:17 10.8 C 20 %
511 04-04-2020 13:01:17 11.1 C 20 %
512 04-04-2020 13:11:17 12.1 C 20 %
513 04-04-2020 13:21:17 11.6 C 20 %
514 04-04-2020 13:31:17 11.4 C 20 %
515 04-04-2020 13:41:17 12.2 C 20 %
516 04-04-2020 13:51:18 12.5 C 20 %
517 04-04-2020 14:01:17 12.1 C 20 %
518 04-04-2020 14:11:17 13.7 C 20 %
519 04-04-2020 14:21:17 14.6 C 20 %
520 04-04-2020 14:31:17 16.6 C 20 %
521 04-04-2020 14:41:17 17 C 20 %
522 04-04-2020 14:51:17 16.3 C 20 %
523 04-04-2020 15:01:18 18.1 C 20 %
524 04-04-2020 15:11:18 18.9 C 20 %
525 04-04-2020 15:21:17 16.9 C 20 %
Sensor: Nr:Datum:Temp:Feuchte:
Aussen-T/F 526 04-04-2020 15:31:17 19.1 C 20 %
527 04-04-2020 15:41:17 19.8 C 20 %
528 04-04-2020 15:51:17 17.4 C 20 %
529 04-04-2020 16:01:17 19.9 C 20 %
530 04-04-2020 16:11:17 19.3 C 20 %
531 04-04-2020 16:21:17 18.7 C 20 %
532 04-04-2020 16:31:17 19.3 C 20 %
533 04-04-2020 16:41:17 20.5 C 20 %
534 04-04-2020 16:51:17 20.4 C 20 %
535 04-04-2020 17:01:17 20.3 C 20 %
536 04-04-2020 17:11:17 20.1 C 20 %
537 04-04-2020 17:21:17 20.5 C 20 %
538 04-04-2020 17:31:17 19.2 C 20 %
539 04-04-2020 17:41:17 18.7 C 20 %
540 04-04-2020 17:51:18 17.8 C 20 %
541 04-04-2020 18:01:17 16.8 C 20 %
542 04-04-2020 18:11:17 16.2 C 20 %
543 04-04-2020 18:21:17 15.4 C 20 %
544 04-04-2020 18:31:17 15.4 C 20 %
545 04-04-2020 18:41:17 15.6 C 20 %
546 04-04-2020 18:51:17 15.1 C 20 %
547 04-04-2020 19:01:17 14.9 C 20 %
548 04-04-2020 19:11:17 14.4 C 20 %
549 04-04-2020 19:21:17 14 C 20 %
550 04-04-2020 19:31:17 13.9 C 20 %
Sensor: Nr:Datum:Temp:Feuchte:
Aussen-T/F 551 04-04-2020 19:41:17 12.6 C 20 %
552 04-04-2020 19:51:17 11.5 C 20 %
553 04-04-2020 20:01:17 11.3 C 20 %
554 04-04-2020 20:11:17 10.7 C 20 %
555 04-04-2020 20:21:17 10.3 C 21 %
556 04-04-2020 20:31:17 9.8 C 25 %
557 04-04-2020 20:41:17 9.5 C 23 %
558 04-04-2020 20:51:17 9.2 C 25 %
559 04-04-2020 21:01:17 9.2 C 21 %
560 04-04-2020 21:11:17 8.7 C 25 %
561 04-04-2020 21:21:17 8.8 C 25 %
562 04-04-2020 21:31:17 8.5 C 25 %
563 04-04-2020 21:41:17 8.2 C 25 %
564 04-04-2020 21:51:17 7.1 C 28 %
565 04-04-2020 22:01:18 5.8 C 31 %
566 04-04-2020 22:11:18 5.5 C 32 %
567 04-04-2020 22:21:18 5.1 C 32 %
568 04-04-2020 22:31:17 4.8 C 35 %
569 04-04-2020 22:41:17 4.7 C 34 %
570 04-04-2020 22:51:17 4.6 C 34 %
571 04-04-2020 23:01:17 4.4 C 34 %
572 04-04-2020 23:11:17 4.1 C 34 %
573 04-04-2020 23:21:17 3.9 C 35 %
574 04-04-2020 23:31:17 3.6 C 36 %
575 04-04-2020 23:41:17 3.5 C 36 %
Sensor: Nr:Datum:Temp:Feuchte:
Aussen-T/F 576 04-04-2020 23:51:17 3.4 C 37 %
577 05-04-2020 00:01:17 3 C 37 %
578 05-04-2020 00:11:17 2.9 C 38 %
579 05-04-2020 00:21:17 2.8 C 39 %
580 05-04-2020 00:31:17 2.5 C 39 %
581 05-04-2020 00:41:17 2.5 C 40 %
582 05-04-2020 00:51:18 2.4 C 40 %
583 05-04-2020 01:01:18 2.3 C 40 %
584 05-04-2020 01:11:18 2.3 C 40 %
585 05-04-2020 01:21:17 2.2 C 40 %
586 05-04-2020 01:31:18 2.1 C 41 %
587 05-04-2020 01:41:18 1.9 C 42 %
588 05-04-2020 01:51:17 1.8 C 42 %
589 05-04-2020 02:01:18 1.6 C 42 %
590 05-04-2020 02:11:18 1.3 C 42 %
591 05-04-2020 02:21:17 1.4 C 43 %
592 05-04-2020 02:31:18 1.4 C 43 %
593 05-04-2020 02:41:18 1.1 C 43 %
594 05-04-2020 02:51:17 1.1 C 43 %
595 05-04-2020 03:01:18 1.3 C 43 %
596 05-04-2020 03:11:18 1.1 C 43 %
597 05-04-2020 03:21:17 1 C 43 %
598 05-04-2020 03:31:17 0.7 C 45 %
599 05-04-2020 03:41:17 0.5 C 45 %
600 05-04-2020 03:51:17 0.7 C 45 %
Sensor: Nr:Datum:Temp:Feuchte:
Aussen-T/F 601 05-04-2020 04:01:17 0.6 C 45 %
602 05-04-2020 04:11:17 0.4 C 45 %
603 05-04-2020 04:21:17 0.4 C 46 %
604 05-04-2020 04:31:17 0.2 C 46 %
605 05-04-2020 04:41:17 0.2 C 46 %
606 05-04-2020 04:51:17 0.2 C 46 %
607 05-04-2020 05:01:17 0 C 46 %
608 05-04-2020 05:11:17 -0.3 C 46 %
609 05-04-2020 05:21:17 -0.2 C 47 %
610 05-04-2020 05:31:17 -0.3 C 46 %
611 05-04-2020 05:41:17 -0.4 C 47 %
612 05-04-2020 05:51:17 -0.5 C 47 %
613 05-04-2020 06:01:17 -0.4 C 47 %
614 05-04-2020 06:11:17 -0.5 C 47 %
615 05-04-2020 06:21:17 -0.6 C 47 %
616 05-04-2020 06:31:18 -0.8 C 48 %
617 05-04-2020 06:41:18 -0.8 C 47 %
618 05-04-2020 06:51:17 -0.8 C 47 %
619 05-04-2020 07:01:18 -0.9 C 47 %
620 05-04-2020 07:11:18 -0.7 C 48 %
621 05-04-2020 07:21:18 -0.6 C 48 %
622 05-04-2020 07:31:17 -0.5 C 48 %
623 05-04-2020 07:41:17 -0.5 C 48 %
624 05-04-2020 07:51:17 -0.4 C 48 %
625 05-04-2020 08:01:17 -0.3 C 48 %
Sensor: Nr:Datum:Temp:Feuchte:
Aussen-T/F 626 05-04-2020 08:11:17 0 C 49 %
627 05-04-2020 08:21:17 0.1 C 48 %
628 05-04-2020 08:31:17 0.4 C 48 %
629 05-04-2020 08:41:17 0.5 C 49 %
630 05-04-2020 08:51:18 0.8 C 49 %
631 05-04-2020 09:01:17 1.1 C 47 %
632 05-04-2020 09:11:17 1.4 C 47 %
633 05-04-2020 09:21:17 1.8 C 47 %
634 05-04-2020 09:31:17 2.4 C 46 %
635 05-04-2020 09:41:17 2.8 C 46 %
636 05-04-2020 09:51:18 3.4 C 44 %
637 05-04-2020 10:01:18 3.9 C 43 %
638 05-04-2020 10:11:18 4.5 C 41 %
639 05-04-2020 10:21:17 5.4 C 40 %
640 05-04-2020 10:31:17 5.9 C 40 %
641 05-04-2020 10:41:17 7 C 38 %
642 05-04-2020 10:51:17 7.9 C 37 %
643 05-04-2020 11:01:17 8.6 C 36 %
644 05-04-2020 11:11:17 10.7 C 32 %
645 05-04-2020 11:21:17 11.2 C 30 %
646 05-04-2020 11:31:17 13.1 C 21 %
647 05-04-2020 11:41:17 13.9 C 20 %
648 05-04-2020 11:51:17 14.8 C 20 %
649 05-04-2020 12:01:17 15.6 C 20 %
650 05-04-2020 12:11:17 15.9 C 20 %
Sensor: Nr:Datum:Temp:Feuchte:
Aussen-T/F 651 05-04-2020 12:21:17 16.7 C 20 %
652 05-04-2020 12:31:18 17.6 C 20 %
653 05-04-2020 12:41:18 17.4 C 20 %
654 05-04-2020 12:51:17 17.4 C 20 %
655 05-04-2020 13:01:17 17.2 C 20 %
656 05-04-2020 13:11:17 18.4 C 20 %
657 05-04-2020 13:21:17 17.5 C 20 %
658 05-04-2020 13:31:17 17.1 C 20 %
659 05-04-2020 13:41:17 17.9 C 20 %
660 05-04-2020 13:51:17 17.7 C 20 %
661 05-04-2020 14:01:17 17.9 C 20 %
662 05-04-2020 14:11:17 19 C 20 %
663 05-04-2020 14:21:17 19.8 C 20 %
664 05-04-2020 14:31:18 21.7 C 20 %
665 05-04-2020 14:41:18 23.4 C 20 %
666 05-04-2020 14:51:18 23.3 C 20 %
667 05-04-2020 15:01:17 24.7 C 20 %
668 05-04-2020 15:11:18 26.9 C 20 %
669 05-04-2020 15:21:17 24.5 C 20 %
670 05-04-2020 15:31:17 24.8 C 20 %
671 05-04-2020 15:41:17 25.1 C 20 %
672 05-04-2020 15:51:18 26.6 C 20 %
673 05-04-2020 16:01:17 25 C 20 %
674 05-04-2020 16:11:17 23.3 C 20 %
675 05-04-2020 16:21:17 25.5 C 20 %
Sensor: Nr:Datum:Temp:Feuchte:
Aussen-T/F 676 05-04-2020 16:31:17 24.8 C 20 %
677 05-04-2020 16:41:17 23.1 C 20 %
678 05-04-2020 16:51:17 23.4 C 20 %
679 05-04-2020 17:01:17 23.5 C 20 %
680 05-04-2020 17:11:17 26.4 C 20 %
681 05-04-2020 17:21:17 25.9 C 20 %
682 05-04-2020 17:31:17 24.4 C 20 %
683 05-04-2020 17:41:17 24.2 C 20 %
684 05-04-2020 17:51:17 23.6 C 20 %
685 05-04-2020 18:01:17 20.8 C 20 %
686 05-04-2020 18:11:17 19.7 C 20 %
687 05-04-2020 18:21:17 20 C 20 %
688 05-04-2020 18:31:17 19.7 C 20 %
689 05-04-2020 18:41:17 19.4 C 20 %
690 05-04-2020 18:51:17 18.9 C 20 %
691 05-04-2020 19:01:17 18.8 C 20 %
692 05-04-2020 19:11:17 18.4 C 20 %
693 05-04-2020 19:21:17 18 C 20 %
694 05-04-2020 19:31:18 17.5 C 20 %
695 05-04-2020 19:41:18 16.3 C 20 %
696 05-04-2020 19:51:17 15 C 20 %
697 05-04-2020 20:01:18 14.3 C 20 %
698 05-04-2020 20:11:18 14.1 C 20 %
699 05-04-2020 20:21:17 13.5 C 20 %
700 05-04-2020 20:31:17 13.3 C 20 %
Sensor: Nr:Datum:Temp:Feuchte:
Aussen-T/F 701 05-04-2020 20:41:17 13 C 20 %
702 05-04-2020 20:51:17 12.7 C 20 %
703 05-04-2020 21:01:18 12.3 C 20 %
704 05-04-2020 21:11:18 12 C 20 %
705 05-04-2020 21:21:17 12.1 C 20 %
706 05-04-2020 21:31:17 11.7 C 20 %
707 05-04-2020 21:41:17 11.5 C 20 %
708 05-04-2020 21:51:17 10.3 C 20 %
709 05-04-2020 22:01:17 10.5 C 20 %
710 05-04-2020 22:11:17 9.2 C 25 %
711 05-04-2020 22:21:17 8.9 C 26 %
712 05-04-2020 22:31:17 8.8 C 26 %
713 05-04-2020 22:41:17 8.4 C 27 %
714 05-04-2020 22:51:17 8.2 C 27 %
715 05-04-2020 23:01:17 8 C 28 %
716 05-04-2020 23:11:17 7.4 C 30 %
717 05-04-2020 23:21:17 7.4 C 29 %
718 05-04-2020 23:31:17 7 C 30 %
719 05-04-2020 23:41:17 6.7 C 31 %
720 05-04-2020 23:51:17 6.3 C 31 %
721 06-04-2020 00:01:17 6.2 C 32 %
722 06-04-2020 00:11:17 6.3 C 32 %
723 06-04-2020 00:21:17 6.3 C 32 %
724 06-04-2020 00:31:18 6 C 32 %
725 06-04-2020 00:41:18 5.6 C 33 %
Sensor: Nr:Datum:Temp:Feuchte:
Aussen-T/F 726 06-04-2020 00:51:17 5.6 C 34 %
727 06-04-2020 01:01:18 5.4 C 35 %
728 06-04-2020 01:11:18 5.3 C 35 %
729 06-04-2020 01:21:17 5.1 C 35 %
730 06-04-2020 01:31:17 4.8 C 36 %
731 06-04-2020 01:41:17 4.7 C 36 %
732 06-04-2020 01:51:17 4.6 C 36 %
733 06-04-2020 02:01:17 4.5 C 37 %
734 06-04-2020 02:11:17 4.1 C 37 %
735 06-04-2020 02:21:17 4.2 C 37 %
736 06-04-2020 02:31:17 4 C 37 %
737 06-04-2020 02:41:17 4.1 C 37 %
738 06-04-2020 02:51:17 3.8 C 38 %
739 06-04-2020 03:01:17 3.9 C 39 %
740 06-04-2020 03:11:17 3.6 C 39 %
741 06-04-2020 03:21:17 3.3 C 39 %
742 06-04-2020 03:31:18 3.3 C 40 %
743 06-04-2020 03:41:18 3.2 C 40 %
744 06-04-2020 03:51:17 3.3 C 40 %
745 06-04-2020 04:01:17 3.2 C 40 %
746 06-04-2020 04:11:17 3.3 C 40 %
747 06-04-2020 04:21:17 3.1 C 40 %
748 06-04-2020 04:31:17 2.8 C 40 %
749 06-04-2020 04:41:17 2.6 C 41 %
750 06-04-2020 04:51:17 2.5 C 41 %
Sensor: Nr:Datum:Temp:Feuchte:
Aussen-T/F 751 06-04-2020 05:01:17 2.4 C 41 %
752 06-04-2020 05:11:17 2.3 C 41 %
753 06-04-2020 05:21:18 2.2 C 41 %
754 06-04-2020 05:31:17 1.9 C 42 %
755 06-04-2020 05:41:17 1.8 C 43 %
756 06-04-2020 05:51:17 1.7 C 43 %
757 06-04-2020 06:01:17 1.6 C 44 %
758 06-04-2020 06:11:17 1.5 C 44 %
759 06-04-2020 06:21:18 1.3 C 45 %
760 06-04-2020 06:31:17 1.2 C 45 %
761 06-04-2020 06:41:18 1.3 C 45 %
762 06-04-2020 06:51:17 1.3 C 45 %
763 06-04-2020 07:01:17 1.4 C 45 %
764 06-04-2020 07:11:17 1.5 C 45 %
765 06-04-2020 07:21:17 1.6 C 45 %
766 06-04-2020 07:31:18 1.5 C 45 %
767 06-04-2020 07:41:18 1.6 C 45 %
768 06-04-2020 07:51:17 2 C 45 %
769 06-04-2020 08:01:17 1.9 C 45 %
770 06-04-2020 08:11:17 2.2 C 44 %
771 06-04-2020 08:21:17 2.5 C 44 %
772 06-04-2020 08:31:17 3 C 42 %
773 06-04-2020 08:41:17 3.2 C 42 %
774 06-04-2020 08:51:17 3.4 C 41 %
775 06-04-2020 09:01:18 3.5 C 41 %
Sensor: Nr:Datum:Temp:Feuchte:
Aussen-T/F 776 06-04-2020 09:11:18 3.4 C 41 %
777 06-04-2020 09:21:17 3.9 C 41 %
778 06-04-2020 09:31:17 4.3 C 40 %
779 06-04-2020 09:41:17 4.8 C 40 %
780 06-04-2020 09:51:18 5.2 C 40 %
781 06-04-2020 10:01:18 6 C 38 %
782 06-04-2020 10:11:18 6.5 C 37 %
783 06-04-2020 10:21:17 7.2 C 36 %
784 06-04-2020 10:31:17 7.9 C 36 %
785 06-04-2020 10:41:17 8.8 C 35 %
786 06-04-2020 10:51:17 9.8 C 34 %
787 06-04-2020 11:01:17 11.1 C 31 %
788 06-04-2020 11:11:18 12.2 C 29 %
789 06-04-2020 11:21:17 13.3 C 26 %
790 06-04-2020 11:31:17 16 C 20 %
791 06-04-2020 11:41:17 17.1 C 20 %
792 06-04-2020 11:51:18 17.6 C 20 %
793 06-04-2020 12:01:18 18.1 C 20 %
794 06-04-2020 12:11:18 18.6 C 20 %
795 06-04-2020 12:21:17 20.3 C 20 %
796 06-04-2020 12:31:17 21 C 20 %
797 06-04-2020 12:41:17 19.4 C 20 %
798 06-04-2020 12:51:17 20.2 C 20 %
799 06-04-2020 13:01:17 20.6 C 20 %
800 06-04-2020 13:11:17 20.8 C 20 %
Sensor: Nr:Datum:Temp:Feuchte:
Aussen-T/F 801 06-04-2020 13:21:17 20.4 C 20 %
802 06-04-2020 13:31:18 20.3 C 20 %
803 06-04-2020 13:41:18 21.2 C 20 %
804 06-04-2020 13:51:17 21.3 C 20 %
805 06-04-2020 14:01:18 22.3 C 20 %
806 06-04-2020 14:11:18 22.3 C 20 %
807 06-04-2020 14:21:17 23.7 C 20 %
808 06-04-2020 14:31:17 26.8 C 20 %
809 06-04-2020 14:41:17 27.4 C 20 %
810 06-04-2020 14:51:18 28.3 C 20 %
811 06-04-2020 15:01:17 28 C 20 %
812 06-04-2020 15:11:17 26.6 C 20 %
813 06-04-2020 15:21:17 27.1 C 20 %
814 06-04-2020 15:31:17 25.8 C 20 %
815 06-04-2020 15:41:17 26.9 C 20 %
816 06-04-2020 15:51:17 27.9 C 20 %
817 06-04-2020 16:01:17 29.7 C 20 %
818 06-04-2020 16:11:17 27.4 C 20 %
819 06-04-2020 16:21:18 27.4 C 20 %
820 06-04-2020 16:31:18 28.3 C 20 %
821 06-04-2020 16:41:18 28.5 C 20 %
822 06-04-2020 16:51:17 27.1 C 20 %
823 06-04-2020 17:01:17 27.6 C 20 %
824 06-04-2020 17:11:17 26 C 20 %
825 06-04-2020 17:21:17 26.7 C 20 %
Sensor: Nr:Datum:Temp:Feuchte:
Aussen-T/F 826 06-04-2020 17:31:17 25.7 C 20 %
827 06-04-2020 17:41:17 25.5 C 20 %
828 06-04-2020 17:51:17 24.2 C 20 %
829 06-04-2020 18:01:17 23.3 C 20 %
830 06-04-2020 18:11:17 23.1 C 20 %
831 06-04-2020 18:21:17 22.6 C 20 %
832 06-04-2020 18:31:18 22.6 C 20 %
833 06-04-2020 18:41:18 22.3 C 20 %
834 06-04-2020 18:51:17 22 C 20 %
835 06-04-2020 19:01:17 21.7 C 20 %
836 06-04-2020 19:11:17 21.1 C 20 %
837 06-04-2020 19:21:17 20.5 C 20 %
838 06-04-2020 19:31:17 20.2 C 20 %
839 06-04-2020 19:41:17 19.1 C 20 %
840 06-04-2020 19:51:17 18.3 C 20 %
841 06-04-2020 20:01:18 16.4 C 20 %
842 06-04-2020 20:11:18 16.3 C 20 %
843 06-04-2020 20:21:17 15.8 C 20 %
844 06-04-2020 20:31:17 15.3 C 20 %
845 06-04-2020 20:41:18 15.1 C 20 %
846 06-04-2020 20:51:17 13.7 C 20 %
847 06-04-2020 21:01:18 13.2 C 20 %
848 06-04-2020 21:11:18 12.9 C 20 %
849 06-04-2020 21:21:17 12 C 20 %
850 06-04-2020 21:31:18 11.8 C 22 %
Sensor: Nr:Datum:Temp:Feuchte:
Aussen-T/F 851 06-04-2020 21:41:18 11.6 C 22 %
852 06-04-2020 21:51:17 11.1 C 22 %
853 06-04-2020 22:01:17 10.8 C 25 %
854 06-04-2020 22:11:17 10.6 C 25 %
855 06-04-2020 22:21:17 10.2 C 25 %
856 06-04-2020 22:31:17 10 C 26 %
857 06-04-2020 22:41:17 10 C 26 %
858 06-04-2020 22:51:17 9.9 C 26 %
859 06-04-2020 23:01:18 9.8 C 26 %
860 06-04-2020 23:11:18 9.6 C 26 %
861 06-04-2020 23:21:17 9.5 C 27 %
862 06-04-2020 23:31:17 9.4 C 27 %
863 06-04-2020 23:41:17 9.2 C 27 %
864 06-04-2020 23:51:17 9.5 C 29 %
865 07-04-2020 00:01:17 10.2 C 26 %
866 07-04-2020 00:11:17 9.1 C 29 %
867 07-04-2020 00:21:18 8.7 C 30 %
868 07-04-2020 00:31:17 8.8 C 30 %
869 07-04-2020 00:41:17 9 C 30 %
870 07-04-2020 00:51:17 8.6 C 30 %
871 07-04-2020 01:01:17 8.7 C 30 %
872 07-04-2020 01:11:17 9.1 C 30 %
873 07-04-2020 01:21:17 9.4 C 30 %
874 07-04-2020 01:31:17 9.8 C 30 %
875 07-04-2020 01:41:17 10.1 C 30 %
Sensor: Nr:Datum:Temp:Feuchte:
Aussen-T/F 876 07-04-2020 01:51:18 10 C 29 %
877 07-04-2020 02:01:18 9.2 C 30 %
878 07-04-2020 02:11:18 8.8 C 31 %
879 07-04-2020 02:21:17 8.2 C 33 %
880 07-04-2020 02:31:17 7.9 C 34 %
881 07-04-2020 02:41:17 7.5 C 34 %
882 07-04-2020 02:51:17 7.2 C 35 %
883 07-04-2020 03:01:17 7.3 C 35 %
884 07-04-2020 03:11:17 7.6 C 35 %
885 07-04-2020 03:21:17 7.9 C 35 %
886 07-04-2020 03:31:17 8 C 35 %
887 07-04-2020 03:41:17 7.7 C 36 %
888 07-04-2020 03:51:17 7.8 C 35 %
889 07-04-2020 04:01:17 7.8 C 36 %
890 07-04-2020 04:11:17 7.6 C 36 %
891 07-04-2020 04:21:17 7.4 C 36 %
892 07-04-2020 04:31:17 7.2 C 36 %
893 07-04-2020 04:41:18 6.9 C 37 %
894 07-04-2020 04:51:17 6.8 C 37 %
895 07-04-2020 05:01:17 6.3 C 38 %
896 07-04-2020 05:11:17 6.1 C 38 %
897 07-04-2020 05:21:18 5.9 C 40 %
898 07-04-2020 05:31:17 5.8 C 40 %
899 07-04-2020 05:41:17 5.7 C 40 %
900 07-04-2020 05:51:17 5.6 C 41 %
Sensor: Nr:Datum:Temp:Feuchte:
Aussen-T/F 901 07-04-2020 06:01:17 5.6 C 41 %
902 07-04-2020 06:11:17 5.2 C 40 %
903 07-04-2020 06:21:17 5.3 C 41 %
904 07-04-2020 06:31:17 5.2 C 41 %
905 07-04-2020 06:41:17 5 C 41 %
906 07-04-2020 06:51:17 4.8 C 42 %
907 07-04-2020 07:01:18 4.8 C 43 %
908 07-04-2020 07:11:18 4.7 C 43 %
909 07-04-2020 07:21:18 4.8 C 44 %
910 07-04-2020 07:31:17 5 C 43 %
911 07-04-2020 07:41:18 5.7 C 43 %
912 07-04-2020 07:51:17 5.8 C 42 %
913 07-04-2020 08:01:17 5.7 C 41 %
914 07-04-2020 08:11:18 5.8 C 41 %
915 07-04-2020 08:21:17 6 C 41 %
916 07-04-2020 08:31:17 6 C 41 %
917 07-04-2020 08:41:17 6.3 C 41 %
918 07-04-2020 08:51:17 6.6 C 41 %
919 07-04-2020 09:01:17 7.1 C 40 %
920 07-04-2020 09:11:17 7.3 C 40 %
921 07-04-2020 09:21:17 7.5 C 40 %
922 07-04-2020 09:31:17 8 C 39 %
923 07-04-2020 09:41:18 8.9 C 39 %
924 07-04-2020 09:51:17 9.3 C 37 %
925 07-04-2020 10:01:17 9.4 C 38 %
Sensor: Nr:Datum:Temp:Feuchte:
Aussen-T/F 926 07-04-2020 10:11:18 10 C 37 %
927 07-04-2020 10:21:17 10.7 C 37 %
928 07-04-2020 10:31:18 11.4 C 36 %
929 07-04-2020 10:41:18 12.3 C 35 %
930 07-04-2020 10:51:17 13.1 C 33 %
931 07-04-2020 11:01:17 14 C 31 %
932 07-04-2020 11:11:17 14.6 C 31 %
933 07-04-2020 11:21:17 15.2 C 30 %
934 07-04-2020 11:31:17 16 C 28 %
935 07-04-2020 11:41:17 16.5 C 27 %
936 07-04-2020 11:51:17 16.9 C 27 %
937 07-04-2020 12:01:17 17.2 C 26 %
938 07-04-2020 12:11:17 17.7 C 25 %
939 07-04-2020 12:21:18 18.7 C 23 %
940 07-04-2020 12:31:17 20.9 C 21 %
941 07-04-2020 12:41:17 19.6 C 20 %
942 07-04-2020 12:51:18 19.6 C 20 %
943 07-04-2020 13:01:17 20.7 C 20 %
944 07-04-2020 13:11:17 21.3 C 20 %
945 07-04-2020 13:21:17 20.8 C 20 %
946 07-04-2020 13:31:17 19.8 C 20 %
947 07-04-2020 13:41:17 20.4 C 20 %
948 07-04-2020 13:51:18 20.6 C 20 %
949 07-04-2020 14:01:17 21.1 C 20 %
950 07-04-2020 14:11:17 22 C 20 %
Sensor: Nr:Datum:Temp:Feuchte:
Aussen-T/F 951 07-04-2020 14:21:17 23.6 C 20 %
952 07-04-2020 14:31:17 26.2 C 20 %
953 07-04-2020 14:41:17 22.9 C 20 %
954 07-04-2020 14:51:17 26.7 C 20 %
955 07-04-2020 15:01:17 26.4 C 20 %
956 07-04-2020 15:11:17 27.1 C 20 %
957 07-04-2020 15:21:17 30.1 C 20 %
958 07-04-2020 15:31:17 28.4 C 20 %
959 07-04-2020 15:41:18 27.2 C 20 %
960 07-04-2020 15:51:17 26.6 C 20 %
961 07-04-2020 16:01:17 27.4 C 20 %
962 07-04-2020 16:11:17 25.1 C 20 %
963 07-04-2020 16:21:17 27.8 C 20 %
964 07-04-2020 16:31:17 23.9 C 20 %
965 07-04-2020 16:41:18 24.3 C 20 %
966 07-04-2020 16:51:18 29.2 C 20 %
967 07-04-2020 17:01:17 31 C 20 %
968 07-04-2020 17:11:17 25 C 20 %
969 07-04-2020 17:21:17 24.2 C 20 %
970 07-04-2020 17:31:18 24.2 C 20 %
971 07-04-2020 17:41:18 26.9 C 20 %
972 07-04-2020 17:51:18 24.6 C 20 %
973 07-04-2020 18:01:17 23.7 C 20 %
974 07-04-2020 18:11:17 23.7 C 20 %
975 07-04-2020 18:21:17 22.9 C 20 %
Sensor: Nr:Datum:Temp:Feuchte:
Aussen-T/F 976 07-04-2020 18:31:17 22.7 C 20 %
977 07-04-2020 18:41:17 22.3 C 20 %
978 07-04-2020 18:51:17 22 C 20 %
979 07-04-2020 19:01:17 21.8 C 20 %
980 07-04-2020 19:11:18 21 C 20 %
981 07-04-2020 19:21:17 20 C 20 %
982 07-04-2020 19:31:17 19.1 C 20 %
983 07-04-2020 19:41:17 18.4 C 20 %
984 07-04-2020 19:51:17 18.3 C 20 %
985 07-04-2020 20:01:18 17.6 C 20 %
986 07-04-2020 20:11:18 17.3 C 20 %
987 07-04-2020 20:21:17 17.1 C 20 %
988 07-04-2020 20:31:17 16.8 C 20 %
989 07-04-2020 20:41:17 16.5 C 20 %
990 07-04-2020 20:51:17 16.3 C 20 %
991 07-04-2020 21:01:17 16.1 C 20 %
992 07-04-2020 21:11:17 15.9 C 20 %
993 07-04-2020 21:21:18 15.8 C 20 %
994 07-04-2020 21:31:17 15.4 C 21 %
995 07-04-2020 21:41:17 15.2 C 21 %
996 07-04-2020 21:51:17 15.1 C 22 %
997 07-04-2020 22:01:18 14.6 C 25 %
998 07-04-2020 22:11:18 13.1 C 27 %
999 07-04-2020 22:21:17 12.9 C 29 %
1000 07-04-2020 22:31:17 12.7 C 30 %
Sensor: Nr:Datum:Temp:Feuchte:
Aussen-T/F 1001 07-04-2020 22:41:17 12.7 C 30 %
1002 07-04-2020 22:51:18 12.7 C 30 %
1003 07-04-2020 23:01:18 12.7 C 30 %
1004 07-04-2020 23:11:18 12.6 C 30 %
1005 07-04-2020 23:21:17 13.1 C 29 %
1006 07-04-2020 23:31:17 12.8 C 30 %
1007 07-04-2020 23:41:17 12.8 C 30 %
1008 07-04-2020 23:51:17 12.3 C 31 %
1009 08-04-2020 00:01:17 11.7 C 33 %
1010 08-04-2020 00:11:17 11.7 C 33 %
1011 08-04-2020 00:21:17 11.5 C 33 %
1012 08-04-2020 00:31:17 11.5 C 33 %
1013 08-04-2020 00:41:17 11.2 C 34 %
1014 08-04-2020 00:51:18 10.8 C 35 %
1015 08-04-2020 01:01:17 10.8 C 36 %
1016 08-04-2020 01:11:17 10.9 C 35 %
1017 08-04-2020 01:21:17 10.4 C 36 %
1018 08-04-2020 01:31:18 10.2 C 36 %
1019 08-04-2020 01:41:18 9.9 C 37 %
1020 08-04-2020 01:51:17 9.6 C 38 %
1021 08-04-2020 02:01:18 9.2 C 38 %
1022 08-04-2020 02:11:18 8.7 C 39 %
1023 08-04-2020 02:21:17 8.5 C 40 %
1024 08-04-2020 02:31:17 8.2 C 40 %
1025 08-04-2020 02:41:18 8 C 40 %
Sensor: Nr:Datum:Temp:Feuchte:
Aussen-T/F 1026 08-04-2020 02:51:17 7.7 C 41 %
1027 08-04-2020 03:01:18 7.4 C 41 %
1028 08-04-2020 03:11:18 7.1 C 41 %
1029 08-04-2020 03:21:17 7.1 C 42 %
1030 08-04-2020 03:31:17 7.1 C 42 %
1031 08-04-2020 03:41:17 6.8 C 43 %
1032 08-04-2020 03:51:17 6.7 C 43 %
1033 08-04-2020 04:01:17 6.6 C 44 %
1034 08-04-2020 04:11:18 6.7 C 44 %
1035 08-04-2020 04:21:17 6.3 C 44 %
1036 08-04-2020 04:31:17 6.3 C 45 %
1037 08-04-2020 04:41:17 6.4 C 45 %
1038 08-04-2020 04:51:17 6.3 C 45 %
1039 08-04-2020 05:01:18 6.1 C 44 %
1040 08-04-2020 05:11:18 5.9 C 45 %
1041 08-04-2020 05:21:17 5.6 C 45 %
1042 08-04-2020 05:31:17 5.4 C 45 %
1043 08-04-2020 05:41:18 5.4 C 45 %
1044 08-04-2020 05:51:17 5.4 C 46 %
1045 08-04-2020 06:01:17 5.3 C 46 %
1046 08-04-2020 06:11:17 5.4 C 46 %
1047 08-04-2020 06:21:17 5.3 C 46 %
1048 08-04-2020 06:31:17 5.3 C 46 %
1049 08-04-2020 06:41:17 5.1 C 46 %
1050 08-04-2020 06:51:18 5 C 46 %
Sensor: Nr:Datum:Temp:Feuchte:
Aussen-T/F 1051 08-04-2020 07:01:18 5 C 46 %
1052 08-04-2020 07:11:18 5.1 C 46 %
1053 08-04-2020 07:21:17 5.2 C 46 %
1054 08-04-2020 07:31:17 5.3 C 46 %
1055 08-04-2020 07:41:17 5.4 C 46 %
1056 08-04-2020 07:51:17 5.8 C 46 %
1057 08-04-2020 08:01:17 5.7 C 46 %
1058 08-04-2020 08:11:17 6 C 46 %
1059 08-04-2020 08:21:17 6.3 C 46 %
1060 08-04-2020 08:31:18 6.3 C 46 %
1061 08-04-2020 08:41:18 6.5 C 46 %
1062 08-04-2020 08:51:18 6.7 C 46 %
1063 08-04-2020 09:01:18 7 C 45 %
1064 08-04-2020 09:11:18 7.1 C 45 %
1065 08-04-2020 09:21:17 7.6 C 45 %
1066 08-04-2020 09:31:17 7.9 C 45 %
1067 08-04-2020 09:41:17 8.3 C 45 %
1068 08-04-2020 09:51:17 8.7 C 44 %
1069 08-04-2020 10:01:17 9.1 C 43 %
1070 08-04-2020 10:11:17 9.7 C 43 %
1071 08-04-2020 10:21:17 10.2 C 41 %
1072 08-04-2020 10:31:18 11 C 40 %
1073 08-04-2020 10:41:18 11.8 C 39 %
1074 08-04-2020 10:51:18 12.6 C 38 %
1075 08-04-2020 11:01:18 13.7 C 36 %
Sensor: Nr:Datum:Temp:Feuchte:
Aussen-T/F 1076 08-04-2020 11:11:18 14.5 C 35 %
1077 08-04-2020 11:21:17 15.5 C 34 %
1078 08-04-2020 11:31:18 16.2 C 32 %
1079 08-04-2020 11:41:18 17.6 C 27 %
1080 08-04-2020 11:51:17 18.6 C 25 %
1081 08-04-2020 12:01:18 19.2 C 22 %
1082 08-04-2020 12:11:18 20.1 C 21 %
1083 08-04-2020 12:21:17 21.2 C 20 %
1084 08-04-2020 12:31:17 22.4 C 20 %
1085 08-04-2020 12:41:17 22.9 C 20 %
1086 08-04-2020 12:51:17 21.8 C 20 %
1087 08-04-2020 13:01:18 22.9 C 20 %
1088 08-04-2020 13:11:18 22.4 C 20 %
1089 08-04-2020 13:21:17 22.1 C 20 %
1090 08-04-2020 13:31:18 22.3 C 20 %
1091 08-04-2020 13:41:18 23.3 C 20 %
1092 08-04-2020 13:51:17 22.6 C 20 %
1093 08-04-2020 14:01:18 23 C 20 %
1094 08-04-2020 14:11:18 23.7 C 20 %
1095 08-04-2020 14:21:17 24.8 C 20 %
1096 08-04-2020 14:31:18 28.3 C 20 %
1097 08-04-2020 14:41:18 28.9 C 20 %
1098 08-04-2020 14:51:17 28.7 C 20 %
1099 08-04-2020 15:01:17 28.7 C 20 %
1100 08-04-2020 15:11:17 30.1 C 20 %
Sensor: Nr:Datum:Temp:Feuchte:
Aussen-T/F 1101 08-04-2020 15:21:18 29.3 C 20 %
1102 08-04-2020 15:31:17 29.5 C 20 %
1103 08-04-2020 15:41:17 29.1 C 20 %
1104 08-04-2020 15:51:17 32.2 C 20 %
1105 08-04-2020 16:01:17 31.1 C 20 %
1106 08-04-2020 16:11:17 29.7 C 20 %
1107 08-04-2020 16:21:18 30.7 C 20 %
1108 08-04-2020 16:31:17 29 C 20 %
1109 08-04-2020 16:41:17 32.6 C 20 %
1110 08-04-2020 16:51:17 29.7 C 20 %
1111 08-04-2020 17:01:17 29.4 C 20 %
1112 08-04-2020 17:11:17 29.7 C 20 %
1113 08-04-2020 17:21:17 30.1 C 20 %
1114 08-04-2020 17:31:17 30.1 C 20 %
1115 08-04-2020 17:41:17 29 C 20 %
1116 08-04-2020 17:51:17 28.1 C 20 %
1117 08-04-2020 18:01:17 26.6 C 20 %
1118 08-04-2020 18:11:17 25.2 C 20 %
1119 08-04-2020 18:21:17 24.7 C 20 %
1120 08-04-2020 18:31:18 24.3 C 20 %
1121 08-04-2020 18:41:18 24.1 C 20 %
1122 08-04-2020 18:51:17 23.8 C 20 %
1123 08-04-2020 19:01:17 23.2 C 20 %
1124 08-04-2020 19:11:17 22.6 C 20 %
1125 08-04-2020 19:21:17 21.4 C 20 %
Sensor: Nr:Datum:Temp:Feuchte:
Aussen-T/F 1126 08-04-2020 19:31:17 20.1 C 20 %
1127 08-04-2020 19:41:17 19.7 C 20 %
1128 08-04-2020 19:51:17 19.2 C 20 %
1129 08-04-2020 20:01:17 18.5 C 20 %
1130 08-04-2020 20:11:17 18 C 20 %
1131 08-04-2020 20:21:18 17.5 C 20 %
1132 08-04-2020 20:31:17 17 C 20 %
1133 08-04-2020 20:41:18 16.2 C 20 %
1134 08-04-2020 20:51:17 15.6 C 20 %
1135 08-04-2020 21:01:18 14.6 C 20 %
1136 08-04-2020 21:11:18 13.9 C 20 %
1137 08-04-2020 21:21:17 14.2 C 20 %
1138 08-04-2020 21:31:17 13.7 C 20 %
1139 08-04-2020 21:41:17 13.5 C 20 %
1140 08-04-2020 21:51:17 13.4 C 20 %
1141 08-04-2020 22:01:17 12.9 C 21 %
1142 08-04-2020 22:11:18 12.7 C 21 %
1143 08-04-2020 22:21:17 12.5 C 24 %
1144 08-04-2020 22:31:17 12.2 C 25 %
1145 08-04-2020 22:41:17 11.8 C 26 %
1146 08-04-2020 22:51:18 11.6 C 26 %
1147 08-04-2020 23:01:17 12 C 25 %
1148 08-04-2020 23:11:17 11.5 C 26 %
1149 08-04-2020 23:21:17 10.9 C 28 %
1150 08-04-2020 23:31:17 10.5 C 29 %
Sensor: Nr:Datum:Temp:Feuchte:
Aussen-T/F 1151 08-04-2020 23:41:17 10.7 C 28 %
1152 08-04-2020 23:51:17 11.2 C 28 %
1153 09-04-2020 00:01:18 10.7 C 29 %
1154 09-04-2020 00:11:18 10.7 C 29 %
1155 09-04-2020 00:21:17 10.3 C 30 %
1156 09-04-2020 00:31:18 10 C 30 %
1157 09-04-2020 00:41:18 10.5 C 30 %
1158 09-04-2020 00:51:17 10.5 C 30 %
1159 09-04-2020 01:01:17 10 C 30 %
1160 09-04-2020 01:11:17 9.6 C 31 %
1161 09-04-2020 01:21:17 9.2 C 32 %
1162 09-04-2020 01:31:17 9.9 C 33 %
1163 09-04-2020 01:41:17 9.3 C 33 %
1164 09-04-2020 01:51:17 9.6 C 33 %
1165 09-04-2020 02:01:17 8.8 C 35 %
1166 09-04-2020 02:11:17 9.1 C 34 %
1167 09-04-2020 02:21:18 9 C 34 %
1168 09-04-2020 02:31:18 8.8 C 35 %
1169 09-04-2020 02:41:18 8.7 C 35 %
1170 09-04-2020 02:51:17 8.8 C 35 %
1171 09-04-2020 03:01:17 9.2 C 34 %
1172 09-04-2020 03:11:17 9.7 C 33 %
1173 09-04-2020 03:21:17 9.5 C 33 %
1174 09-04-2020 03:31:17 9.4 C 34 %
1175 09-04-2020 03:41:17 9.5 C 34 %
Sensor: Nr:Datum:Temp:Feuchte:
Aussen-T/F 1176 09-04-2020 03:51:17 10.2 C 32 %
1177 09-04-2020 04:01:17 9.9 C 34 %
1178 09-04-2020 04:11:17 10.1 C 33 %
1179 09-04-2020 04:21:17 10 C 33 %
1180 09-04-2020 04:31:18 9.4 C 34 %
1181 09-04-2020 04:41:18 9.3 C 35 %
1182 09-04-2020 04:51:17 8.9 C 35 %
1183 09-04-2020 05:01:17 8.7 C 36 %
1184 09-04-2020 05:11:17 8.6 C 35 %
1185 09-04-2020 05:21:17 8.5 C 36 %
1186 09-04-2020 05:31:18 8.2 C 36 %
1187 09-04-2020 05:41:18 8.1 C 36 %
1188 09-04-2020 05:51:17 8.1 C 37 %
1189 09-04-2020 06:01:18 8.1 C 37 %
1190 09-04-2020 06:11:18 7.7 C 38 %
1191 09-04-2020 06:21:17 7.1 C 38 %
1192 09-04-2020 06:31:17 7 C 38 %
1193 09-04-2020 06:41:17 6.6 C 39 %
1194 09-04-2020 06:51:17 6.8 C 40 %
1195 09-04-2020 07:01:17 6.9 C 40 %
1196 09-04-2020 07:11:17 7.3 C 39 %
1197 09-04-2020 07:21:17 7.3 C 39 %
1198 09-04-2020 07:31:17 7 C 39 %
1199 09-04-2020 07:41:17 6.9 C 40 %
1200 09-04-2020 07:51:17 7 C 40 %
Sensor: Nr:Datum:Temp:Feuchte:
Aussen-T/F 1201 09-04-2020 08:01:17 7 C 40 %
1202 09-04-2020 08:11:17 7.3 C 40 %
1203 09-04-2020 08:21:18 7.4 C 40 %
1204 09-04-2020 08:31:17 7.6 C 40 %
1205 09-04-2020 08:41:17 8 C 39 %
1206 09-04-2020 08:51:17 8.3 C 39 %
1207 09-04-2020 09:01:17 8.5 C 38 %
1208 09-04-2020 09:11:17 8.7 C 39 %
1209 09-04-2020 09:21:17 9 C 38 %
1210 09-04-2020 09:31:17 9.3 C 38 %
1211 09-04-2020 09:41:17 9.8 C 37 %
1212 09-04-2020 09:51:17 10.4 C 36 %
1213 09-04-2020 10:01:17 10.8 C 36 %
1214 09-04-2020 10:11:17 11.2 C 35 %
1215 09-04-2020 10:21:17 11.8 C 35 %
1216 09-04-2020 10:31:17 12.6 C 34 %
1217 09-04-2020 10:41:17 13.3 C 32 %
1218 09-04-2020 10:51:18 14.6 C 31 %
1219 09-04-2020 11:01:17 15.4 C 30 %
1220 09-04-2020 11:11:18 16.2 C 28 %
1221 09-04-2020 11:21:17 17 C 25 %
1222 09-04-2020 11:31:17 17.9 C 23 %
1223 09-04-2020 11:41:17 18.5 C 21 %
1224 09-04-2020 11:51:18 19 C 20 %
1225 09-04-2020 12:01:17 19.3 C 20 %
Sensor: Nr:Datum:Temp:Feuchte:
Aussen-T/F 1226 09-04-2020 12:11:17 19.8 C 20 %
1227 09-04-2020 12:21:17 20.7 C 20 %
1228 09-04-2020 12:31:17 22 C 20 %
1229 09-04-2020 12:41:17 23 C 20 %
1230 09-04-2020 12:51:18 22.3 C 20 %
1231 09-04-2020 13:01:17 23.2 C 20 %
1232 09-04-2020 13:11:17 23.3 C 20 %
1233 09-04-2020 13:21:17 22.9 C 20 %
1234 09-04-2020 13:31:17 22.4 C 20 %
1235 09-04-2020 13:41:18 22.6 C 20 %
1236 09-04-2020 13:51:17 22.8 C 20 %
1237 09-04-2020 14:01:17 24.1 C 20 %
1238 09-04-2020 14:11:17 23.8 C 20 %
1239 09-04-2020 14:21:17 24.3 C 20 %
1240 09-04-2020 14:31:17 26.8 C 20 %
1241 09-04-2020 14:41:17 28 C 20 %
1242 09-04-2020 14:51:17 29.2 C 20 %
1243 09-04-2020 15:01:17 28.6 C 20 %
1244 09-04-2020 15:11:17 31.7 C 20 %
1245 09-04-2020 15:21:17 28.2 C 20 %
1246 09-04-2020 15:31:18 28.7 C 20 %
1247 09-04-2020 15:41:18 28.4 C 20 %
1248 09-04-2020 15:51:17 30.1 C 20 %
1249 09-04-2020 16:01:18 29.2 C 20 %
1250 09-04-2020 16:11:18 29.3 C 20 %
Sensor: Nr:Datum:Temp:Feuchte:
Aussen-T/F 1251 09-04-2020 16:21:17 31.4 C 20 %
1252 09-04-2020 16:31:17 28.8 C 20 %
1253 09-04-2020 16:41:17 28.8 C 20 %
1254 09-04-2020 16:51:17 29.2 C 20 %
1255 09-04-2020 17:01:17 28.7 C 20 %
1256 09-04-2020 17:11:17 28.4 C 20 %
1257 09-04-2020 17:21:17 29.8 C 20 %
1258 09-04-2020 17:31:17 28 C 20 %
1259 09-04-2020 17:41:17 27.6 C 20 %
1260 09-04-2020 17:51:18 27.1 C 20 %
1261 09-04-2020 18:01:18 25.2 C 20 %
1262 09-04-2020 18:11:18 24 C 20 %
1263 09-04-2020 18:21:17 23.7 C 20 %
1264 09-04-2020 18:31:17 23.4 C 20 %
1265 09-04-2020 18:41:17 23.5 C 20 %
1266 09-04-2020 18:51:17 22.9 C 20 %
1267 09-04-2020 19:01:18 22.7 C 20 %
1268 09-04-2020 19:11:18 22.4 C 20 %
1269 09-04-2020 19:21:17 21.8 C 20 %
1270 09-04-2020 19:31:17 21.1 C 20 %
1271 09-04-2020 19:41:17 20.6 C 20 %
1272 09-04-2020 19:51:17 20.1 C 20 %
1273 09-04-2020 20:01:17 19.7 C 20 %
1274 09-04-2020 20:11:17 17.9 C 20 %
1275 09-04-2020 20:21:17 16.6 C 20 %
Sensor: Nr:Datum:Temp:Feuchte:
Aussen-T/F 1276 09-04-2020 20:31:17 16.6 C 20 %
1277 09-04-2020 20:41:17 16.1 C 21 %
1278 09-04-2020 20:51:17 16.4 C 20 %
1279 09-04-2020 21:01:17 16.2 C 20 %
1280 09-04-2020 21:11:17 16.4 C 20 %
1281 09-04-2020 21:21:17 16.5 C 20 %
1282 09-04-2020 21:31:17 15.9 C 21 %
1283 09-04-2020 21:41:17 15.4 C 22 %
1284 09-04-2020 21:51:17 15.5 C 22 %
1285 09-04-2020 22:01:17 15.5 C 22 %
1286 09-04-2020 22:11:17 15.2 C 22 %
1287 09-04-2020 22:21:17 15.1 C 22 %
1288 09-04-2020 22:31:18 14.8 C 24 %
1289 09-04-2020 22:41:18 14.6 C 25 %
1290 09-04-2020 22:51:17 14.3 C 25 %
1291 09-04-2020 23:01:18 14.2 C 25 %
1292 09-04-2020 23:11:18 14.2 C 25 %
1293 09-04-2020 23:21:17 13.6 C 26 %
1294 09-04-2020 23:31:17 13.8 C 26 %
1295 09-04-2020 23:41:18 13.7 C 26 %
1296 09-04-2020 23:51:17 12.7 C 28 %
1297 10-04-2020 00:01:17 12.7 C 29 %
1298 10-04-2020 00:11:17 11.7 C 31 %
1299 10-04-2020 00:21:18 11.8 C 31 %
1300 10-04-2020 00:31:18 11.1 C 32 %
Sensor: Nr:Datum:Temp:Feuchte:
Aussen-T/F 1301 10-04-2020 00:41:18 10.7 C 34 %
1302 10-04-2020 00:51:17 10.5 C 34 %
1303 10-04-2020 01:01:17 10.1 C 35 %
1304 10-04-2020 01:11:17 10 C 35 %
1305 10-04-2020 01:21:17 9.7 C 36 %
1306 10-04-2020 01:31:17 9.6 C 36 %
1307 10-04-2020 01:41:17 9.5 C 36 %
1308 10-04-2020 01:51:17 9 C 36 %
1309 10-04-2020 02:01:17 9.2 C 36 %
1310 10-04-2020 02:11:17 8.9 C 37 %
1311 10-04-2020 02:21:18 8.7 C 37 %
1312 10-04-2020 02:31:18 8.6 C 37 %
1313 10-04-2020 02:41:18 8.3 C 38 %
1314 10-04-2020 02:51:17 8.2 C 38 %
1315 10-04-2020 03:01:18 8.3 C 38 %
1316 10-04-2020 03:11:18 7.9 C 39 %
1317 10-04-2020 03:21:17 7.6 C 39 %
1318 10-04-2020 03:31:17 7.4 C 40 %
1319 10-04-2020 03:41:17 7.2 C 40 %
1320 10-04-2020 03:51:17 7.1 C 40 %
1321 10-04-2020 04:01:18 7 C 40 %
1322 10-04-2020 04:11:18 6.8 C 41 %
1323 10-04-2020 04:21:17 6.9 C 41 %
1324 10-04-2020 04:31:17 6.6 C 41 %
1325 10-04-2020 04:41:17 6.6 C 41 %
Sensor: Nr:Datum:Temp:Feuchte:
Aussen-T/F 1326 10-04-2020 04:51:18 6.6 C 41 %
1327 10-04-2020 05:01:17 6.3 C 41 %
1328 10-04-2020 05:11:17 6.3 C 42 %
1329 10-04-2020 05:21:18 6.4 C 42 %
1330 10-04-2020 05:31:17 6.2 C 42 %
1331 10-04-2020 05:41:17 5.9 C 43 %
1332 10-04-2020 05:51:17 5.7 C 43 %
1333 10-04-2020 06:01:17 5.8 C 44 %
1334 10-04-2020 06:11:17 5.8 C 44 %
1335 10-04-2020 06:21:17 5.6 C 44 %
1336 10-04-2020 06:31:18 5.4 C 44 %
1337 10-04-2020 06:41:18 5.4 C 44 %
1338 10-04-2020 06:51:17 5.4 C 44 %
1339 10-04-2020 07:01:18 5.3 C 44 %
1340 10-04-2020 07:11:18 5.3 C 45 %
1341 10-04-2020 07:21:17 5.3 C 45 %
1342 10-04-2020 07:31:18 5.3 C 45 %
1343 10-04-2020 07:41:18 5.3 C 45 %
1344 10-04-2020 07:51:17 5.9 C 46 %
1345 10-04-2020 08:01:17 5.8 C 45 %
1346 10-04-2020 08:11:17 5.8 C 45 %
1347 10-04-2020 08:21:17 6 C 44 %
1348 10-04-2020 08:31:17 6.1 C 45 %
1349 10-04-2020 08:41:17 6.2 C 44 %
1350 10-04-2020 08:51:17 6.5 C 45 %
Sensor: Nr:Datum:Temp:Feuchte:
Aussen-T/F 1351 10-04-2020 09:01:17 6.9 C 45 %
1352 10-04-2020 09:11:17 7.8 C 42 %
1353 10-04-2020 09:21:18 8.2 C 41 %
1354 10-04-2020 09:31:18 8.5 C 40 %
1355 10-04-2020 09:41:18 9.1 C 39 %
1356 10-04-2020 09:51:17 9.4 C 39 %
1357 10-04-2020 10:01:17 9.9 C 38 %
1358 10-04-2020 10:11:17 10.2 C 37 %
1359 10-04-2020 10:21:17 10.8 C 37 %
1360 10-04-2020 10:31:17 11.6 C 36 %
1361 10-04-2020 10:41:17 12.3 C 35 %
1362 10-04-2020 10:51:17 13.4 C 33 %
1363 10-04-2020 11:01:17 14 C 31 %
1364 10-04-2020 11:11:17 14.7 C 31 %
1365 10-04-2020 11:21:17 15.9 C 28 %
1366 10-04-2020 11:31:17 16.3 C 27 %
1367 10-04-2020 11:41:17 16.8 C 26 %
1368 10-04-2020 11:51:17 17.5 C 25 %
1369 10-04-2020 12:01:17 17.9 C 24 %
1370 10-04-2020 12:11:17 18.4 C 21 %
1371 10-04-2020 12:21:17 19.2 C 20 %
1372 10-04-2020 12:31:17 19.7 C 20 %
1373 10-04-2020 12:41:17 20.6 C 20 %
1374 10-04-2020 12:51:17 20.4 C 20 %
1375 10-04-2020 13:01:17 20.8 C 20 %
Sensor: Nr:Datum:Temp:Feuchte:
Aussen-T/F 1376 10-04-2020 13:11:17 20.2 C 20 %
1377 10-04-2020 13:21:17 20.4 C 20 %
1378 10-04-2020 13:31:17 20.2 C 20 %
1379 10-04-2020 13:41:17 20.4 C 20 %
1380 10-04-2020 13:51:17 20.7 C 20 %
1381 10-04-2020 14:01:17 21.7 C 20 %
1382 10-04-2020 14:11:17 21.6 C 20 %
1383 10-04-2020 14:21:18 22 C 20 %
1384 10-04-2020 14:31:18 25.1 C 20 %
1385 10-04-2020 14:41:18 29.1 C 20 %
1386 10-04-2020 14:51:17 27.6 C 20 %
1387 10-04-2020 15:01:17 27.9 C 20 %
1388 10-04-2020 15:11:17 31.6 C 20 %
1389 10-04-2020 15:21:17 30.1 C 20 %
1390 10-04-2020 15:31:17 30.5 C 20 %
1391 10-04-2020 15:41:17 30.2 C 20 %
1392 10-04-2020 15:51:17 29.1 C 20 %
1393 10-04-2020 16:01:17 29.8 C 20 %
1394 10-04-2020 16:11:17 30.3 C 20 %
1395 10-04-2020 16:21:17 28.8 C 20 %
1396 10-04-2020 16:31:17 29.1 C 20 %
1397 10-04-2020 16:41:17 28.3 C 20 %
1398 10-04-2020 16:51:17 30.8 C 20 %
1399 10-04-2020 17:01:17 29.6 C 20 %
1400 10-04-2020 17:11:17 28.8 C 20 %
Sensor: Nr:Datum:Temp:Feuchte:
Aussen-T/F 1401 10-04-2020 17:21:17 26.8 C 20 %
1402 10-04-2020 17:31:17 28.5 C 20 %
1403 10-04-2020 17:41:17 27.6 C 20 %
1404 10-04-2020 17:51:18 26.4 C 20 %
1405 10-04-2020 18:01:17 23.6 C 20 %
1406 10-04-2020 18:11:17 23 C 20 %
1407 10-04-2020 18:21:18 22.5 C 20 %
1408 10-04-2020 18:31:18 22.2 C 20 %
1409 10-04-2020 18:41:18 22.3 C 20 %
1410 10-04-2020 18:51:17 22 C 20 %
1411 10-04-2020 19:01:17 21.6 C 20 %
1412 10-04-2020 19:11:17 21.4 C 20 %
1413 10-04-2020 19:21:17 21.1 C 20 %
1414 10-04-2020 19:31:17 20.9 C 20 %
1415 10-04-2020 19:41:17 20.7 C 20 %
1416 10-04-2020 19:51:18 20.2 C 20 %
1417 10-04-2020 20:01:17 19.6 C 20 %
1418 10-04-2020 20:11:17 18.5 C 20 %
1419 10-04-2020 20:21:18 16 C 20 %
1420 10-04-2020 20:31:17 15.9 C 20 %
1421 10-04-2020 20:41:17 15.3 C 20 %
1422 10-04-2020 20:51:17 15 C 20 %
1423 10-04-2020 21:01:17 15.3 C 20 %
1424 10-04-2020 21:11:17 14.7 C 20 %
1425 10-04-2020 21:21:17 14.3 C 21 %
Sensor: Nr:Datum:Temp:Feuchte:
Aussen-T/F 1426 10-04-2020 21:31:17 13.8 C 21 %
1427 10-04-2020 21:41:17 14.2 C 21 %
1428 10-04-2020 21:51:17 14.3 C 21 %
1429 10-04-2020 22:01:18 14.5 C 21 %
1430 10-04-2020 22:11:18 14.9 C 20 %
1431 10-04-2020 22:21:18 14.5 C 22 %
1432 10-04-2020 22:31:17 14.5 C 22 %
1433 10-04-2020 22:41:17 13.9 C 24 %
1434 10-04-2020 22:51:17 13.1 C 25 %
1435 10-04-2020 23:01:17 12.7 C 25 %
1436 10-04-2020 23:11:17 12.8 C 25 %
1437 10-04-2020 23:21:17 12 C 26 %
1438 10-04-2020 23:31:17 12.2 C 26 %
1439 10-04-2020 23:41:17 11.2 C 28 %
1440 10-04-2020 23:51:17 11.1 C 29 %
1441 11-04-2020 00:01:18 10.5 C 30 %
1442 11-04-2020 00:11:18 10.8 C 30 %
1443 11-04-2020 00:21:17 10.8 C 30 %
1444 11-04-2020 00:31:17 10.1 C 31 %
1445 11-04-2020 00:41:18 9.9 C 32 %
1446 11-04-2020 00:51:18 10 C 31 %
1447 11-04-2020 01:01:17 9.6 C 31 %
1448 11-04-2020 01:11:17 9.6 C 32 %
1449 11-04-2020 01:21:17 9.1 C 32 %
1450 11-04-2020 01:31:18 9.2 C 32 %
Sensor: Nr:Datum:Temp:Feuchte:
Aussen-T/F 1451 11-04-2020 01:41:18 9 C 32 %
1452 11-04-2020 01:51:18 8.7 C 32 %
1453 11-04-2020 02:01:17 8.4 C 32 %
1454 11-04-2020 02:11:17 8.2 C 32 %
1455 11-04-2020 02:21:18 8.1 C 32 %
1456 11-04-2020 02:31:17 8.3 C 32 %
1457 11-04-2020 02:41:17 8.1 C 32 %
1458 11-04-2020 02:51:17 7.9 C 33 %
1459 11-04-2020 03:01:17 8.5 C 31 %
1460 11-04-2020 03:11:17 8.7 C 31 %
1461 11-04-2020 03:21:17 8.8 C 30 %
1462 11-04-2020 03:31:18 8.8 C 30 %
1463 11-04-2020 03:41:18 8.2 C 30 %
1464 11-04-2020 03:51:17 8.6 C 30 %
1465 11-04-2020 04:01:17 8.3 C 30 %
1466 11-04-2020 04:11:17 8.3 C 30 %
1467 11-04-2020 04:21:17 7.7 C 30 %
1468 11-04-2020 04:31:17 7.4 C 30 %
1469 11-04-2020 04:41:17 7.5 C 30 %
1470 11-04-2020 04:51:17 7.6 C 29 %
1471 11-04-2020 05:01:17 7.4 C 29 %
1472 11-04-2020 05:11:17 6.9 C 30 %
1473 11-04-2020 05:21:17 6.8 C 30 %
1474 11-04-2020 05:31:18 6.1 C 31 %
1475 11-04-2020 05:41:18 5.8 C 32 %
Sensor: Nr:Datum:Temp:Feuchte:
Aussen-T/F 1476 11-04-2020 05:51:17 5.7 C 32 %
1477 11-04-2020 06:01:17 5.6 C 32 %
1478 11-04-2020 06:11:17 5 C 33 %
1479 11-04-2020 06:21:17 4.9 C 35 %
1480 11-04-2020 06:31:18 5 C 33 %
1481 11-04-2020 06:41:18 4.6 C 35 %
1482 11-04-2020 06:51:17 4.6 C 35 %
1483 11-04-2020 07:01:18 4.4 C 35 %
1484 11-04-2020 07:11:18 4.5 C 35 %
1485 11-04-2020 07:21:17 4.4 C 35 %
1486 11-04-2020 07:31:18 4.4 C 36 %
1487 11-04-2020 07:41:18 4.7 C 35 %
1488 11-04-2020 07:51:17 5 C 34 %
1489 11-04-2020 08:01:18 5 C 34 %
1490 11-04-2020 08:11:18 5 C 35 %
1491 11-04-2020 08:21:18 5.1 C 35 %
1492 11-04-2020 08:31:18 5.5 C 34 %
1493 11-04-2020 08:41:18 6 C 33 %
1494 11-04-2020 08:51:18 6.4 C 32 %
1495 11-04-2020 09:01:17 6.5 C 33 %
1496 11-04-2020 09:11:18 7.1 C 31 %
1497 11-04-2020 09:21:17 7.3 C 31 %
1498 11-04-2020 09:31:18 7.8 C 31 %
1499 11-04-2020 09:41:18 8.2 C 30 %
1500 11-04-2020 09:51:17 8.6 C 30 %
Sensor: Nr:Datum:Temp:Feuchte:
Aussen-T/F 1501 11-04-2020 10:01:17 9.1 C 29 %
1502 11-04-2020 10:11:17 9.5 C 29 %
1503 11-04-2020 10:21:17 10.2 C 26 %
1504 11-04-2020 10:31:17 10.7 C 27 %
1505 11-04-2020 10:41:17 11.5 C 25 %
1506 11-04-2020 10:51:17 12.3 C 21 %
1507 11-04-2020 11:01:18 12.9 C 20 %
1508 11-04-2020 11:11:18 13.7 C 20 %
1509 11-04-2020 11:21:17 14.5 C 20 %
1510 11-04-2020 11:31:17 15.3 C 20 %
1511 11-04-2020 11:41:18 16 C 20 %
1512 11-04-2020 11:51:17 16.5 C 20 %
1513 11-04-2020 12:01:17 17.2 C 20 %
1514 11-04-2020 12:11:17 17.5 C 20 %
1515 11-04-2020 12:21:18 18.1 C 20 %
1516 11-04-2020 12:31:17 19.1 C 20 %
1517 11-04-2020 12:41:17 19.4 C 20 %
1518 11-04-2020 12:51:17 19.5 C 20 %
1519 11-04-2020 13:01:17 19.6 C 20 %
1520 11-04-2020 13:11:17 19.5 C 20 %
1521 11-04-2020 13:21:17 19.5 C 20 %
1522 11-04-2020 13:31:17 19.6 C 20 %
1523 11-04-2020 13:41:17 19.9 C 20 %
1524 11-04-2020 13:51:17 20.2 C 20 %
1525 11-04-2020 14:01:18 20.9 C 20 %
Sensor: Nr:Datum:Temp:Feuchte:
Aussen-T/F 1526 11-04-2020 14:11:18 21.3 C 20 %
1527 11-04-2020 14:21:17 21.5 C 20 %
1528 11-04-2020 14:31:17 24.4 C 20 %
1529 11-04-2020 14:41:17 27.5 C 20 %
1530 11-04-2020 14:51:18 27.4 C 20 %
1531 11-04-2020 15:01:18 28.6 C 20 %
1532 11-04-2020 15:11:18 30.4 C 20 %
1533 11-04-2020 15:21:17 29.9 C 20 %
1534 11-04-2020 15:31:17 30.4 C 20 %
1535 11-04-2020 15:41:17 31.2 C 20 %
1536 11-04-2020 15:51:18 31.8 C 20 %
1537 11-04-2020 16:01:17 28.5 C 20 %
1538 11-04-2020 16:11:17 31.4 C 20 %
1539 11-04-2020 16:21:18 30.7 C 20 %
1540 11-04-2020 16:31:17 31.5 C 20 %
1541 11-04-2020 16:41:17 31.3 C 20 %
1542 11-04-2020 16:51:17 32.1 C 20 %
1543 11-04-2020 17:01:17 31.8 C 20 %
1544 11-04-2020 17:11:17 29.5 C 20 %
1545 11-04-2020 17:21:17 29.8 C 20 %
1546 11-04-2020 17:31:17 28.7 C 20 %
1547 11-04-2020 17:41:17 26.5 C 20 %
1548 11-04-2020 17:51:17 27.5 C 20 %
1549 11-04-2020 18:01:17 24.2 C 20 %
1550 11-04-2020 18:11:17 23.4 C 20 %
Sensor: Nr:Datum:Temp:Feuchte:
Aussen-T/F 1551 11-04-2020 18:21:17 23.6 C 20 %
1552 11-04-2020 18:31:17 23.6 C 20 %
1553 11-04-2020 18:41:17 23.3 C 20 %
1554 11-04-2020 18:51:17 22.9 C 20 %
1555 11-04-2020 19:01:17 22.9 C 20 %
1556 11-04-2020 19:11:17 22.7 C 20 %
1557 11-04-2020 19:21:18 22 C 20 %
1558 11-04-2020 19:31:17 21.7 C 20 %
1559 11-04-2020 19:41:17 21.2 C 20 %
1560 11-04-2020 19:51:17 18.9 C 20 %
1561 11-04-2020 20:01:17 18 C 20 %
1562 11-04-2020 20:11:17 17.1 C 20 %
1563 11-04-2020 20:21:17 16.6 C 20 %
1564 11-04-2020 20:31:17 16.5 C 20 %
1565 11-04-2020 20:41:17 16.5 C 20 %
1566 11-04-2020 20:51:17 16.2 C 20 %
1567 11-04-2020 21:01:18 16 C 20 %
1568 11-04-2020 21:11:18 15.5 C 20 %
1569 11-04-2020 21:21:18 15.4 C 20 %
1570 11-04-2020 21:31:17 15.1 C 20 %
1571 11-04-2020 21:41:17 14.8 C 20 %
1572 11-04-2020 21:51:17 14.5 C 20 %
1573 11-04-2020 22:01:17 14.3 C 20 %
1574 11-04-2020 22:11:17 14.4 C 20 %
1575 11-04-2020 22:21:17 14 C 20 %
Sensor: Nr:Datum:Temp:Feuchte:
Aussen-T/F 1576 11-04-2020 22:31:18 14 C 21 %
1577 11-04-2020 22:41:18 14.4 C 21 %
1578 11-04-2020 22:51:17 14.4 C 22 %
1579 11-04-2020 23:01:17 13.7 C 23 %
1580 11-04-2020 23:11:17 13 C 24 %
1581 11-04-2020 23:21:18 12.3 C 26 %
1582 11-04-2020 23:31:18 12.1 C 26 %
1583 11-04-2020 23:41:18 11.8 C 27 %
1584 11-04-2020 23:51:17 11.7 C 28 %
1585 12-04-2020 00:01:17 11.6 C 29 %
1586 12-04-2020 00:11:17 11.3 C 28 %
1587 12-04-2020 00:21:17 11.3 C 29 %
1588 12-04-2020 00:31:17 11.5 C 29 %
1589 12-04-2020 00:41:17 11.6 C 29 %
1590 12-04-2020 00:51:17 11.4 C 28 %
1591 12-04-2020 01:01:17 11.3 C 28 %
1592 12-04-2020 01:11:17 11 C 28 %
1593 12-04-2020 01:21:17 10.6 C 29 %
1594 12-04-2020 01:31:18 10.3 C 29 %
1595 12-04-2020 01:41:18 10.2 C 30 %
1596 12-04-2020 01:51:17 10.6 C 29 %
1597 12-04-2020 02:01:18 10.8 C 30 %
1598 12-04-2020 02:11:18 10.7 C 31 %
1599 12-04-2020 02:21:18 10.3 C 31 %
1600 12-04-2020 02:31:17 10.4 C 30 %
Sensor: Nr:Datum:Temp:Feuchte:
Aussen-T/F 1601 12-04-2020 02:41:17 10.2 C 31 %
1602 12-04-2020 02:51:17 10.1 C 31 %
1603 12-04-2020 03:01:17 10.3 C 31 %
1604 12-04-2020 03:11:17 10.2 C 31 %
1605 12-04-2020 03:21:17 10.1 C 32 %
1606 12-04-2020 03:31:17 10 C 32 %
1607 12-04-2020 03:41:18 9.9 C 33 %
1608 12-04-2020 03:51:17 10 C 32 %
1609 12-04-2020 04:01:17 9.8 C 33 %
1610 12-04-2020 04:11:17 9.7 C 33 %
1611 12-04-2020 04:21:17 8.9 C 35 %
1612 12-04-2020 04:31:17 8.8 C 34 %
1613 12-04-2020 04:41:17 8.9 C 35 %
1614 12-04-2020 04:51:17 8.5 C 35 %
1615 12-04-2020 05:01:18 8.2 C 36 %
1616 12-04-2020 05:11:18 8.4 C 36 %
1617 12-04-2020 05:21:17 8.5 C 36 %
1618 12-04-2020 05:31:17 8.2 C 36 %
1619 12-04-2020 05:41:17 8 C 36 %
1620 12-04-2020 05:51:17 7.6 C 37 %
1621 12-04-2020 06:01:17 7.7 C 37 %
1622 12-04-2020 06:11:17 7.5 C 38 %
1623 12-04-2020 06:21:17 7.2 C 38 %
1624 12-04-2020 06:31:17 7.1 C 39 %
1625 12-04-2020 06:41:17 7.2 C 39 %
Sensor: Nr:Datum:Temp:Feuchte:
Aussen-T/F 1626 12-04-2020 06:51:17 7.3 C 39 %
1627 12-04-2020 07:01:17 6.9 C 39 %
1628 12-04-2020 07:11:17 6.7 C 40 %
1629 12-04-2020 07:21:17 6.5 C 40 %
1630 12-04-2020 07:31:17 6.7 C 40 %
1631 12-04-2020 07:41:17 7.1 C 40 %
1632 12-04-2020 07:51:18 7 C 40 %
1633 12-04-2020 08:01:17 7.3 C 40 %
1634 12-04-2020 08:11:17 7.5 C 40 %
1635 12-04-2020 08:21:17 7.5 C 40 %
1636 12-04-2020 08:31:17 7.6 C 40 %
1637 12-04-2020 08:41:18 7.9 C 40 %
1638 12-04-2020 08:51:17 8.2 C 40 %
1639 12-04-2020 09:01:18 8.8 C 39 %
1640 12-04-2020 09:11:18 9.2 C 38 %
1641 12-04-2020 09:21:17 9.5 C 38 %
1642 12-04-2020 09:31:17 10 C 37 %
1643 12-04-2020 09:41:17 10.1 C 37 %
1644 12-04-2020 09:51:17 11 C 36 %
1645 12-04-2020 10:01:17 11.3 C 36 %
1646 12-04-2020 10:11:17 11.7 C 35 %
1647 12-04-2020 10:21:17 12.2 C 35 %
1648 12-04-2020 10:31:18 13.2 C 33 %
1649 12-04-2020 10:41:18 14.4 C 31 %
1650 12-04-2020 10:51:17 14.9 C 31 %
Sensor: Nr:Datum:Temp:Feuchte:
Aussen-T/F 1651 12-04-2020 11:01:17 15.6 C 30 %
1652 12-04-2020 11:11:17 17 C 27 %
1653 12-04-2020 11:21:17 17.6 C 27 %
1654 12-04-2020 11:31:17 18 C 26 %
1655 12-04-2020 11:41:17 18.5 C 24 %
1656 12-04-2020 11:51:17 19.1 C 20 %
1657 12-04-2020 12:01:17 20.6 C 20 %
1658 12-04-2020 12:11:17 20.8 C 20 %
1659 12-04-2020 12:21:17 21.7 C 20 %
1660 12-04-2020 12:31:17 21.6 C 20 %
1661 12-04-2020 12:41:17 21.8 C 20 %
1662 12-04-2020 12:51:18 21.2 C 20 %
1663 12-04-2020 13:01:17 21.7 C 20 %
1664 12-04-2020 13:11:17 21.7 C 20 %
1665 12-04-2020 13:21:17 22 C 20 %
1666 12-04-2020 13:31:17 21.7 C 20 %
1667 12-04-2020 13:41:17 22 C 20 %
1668 12-04-2020 13:51:17 22.1 C 20 %
1669 12-04-2020 14:01:17 22.4 C 20 %
1670 12-04-2020 14:11:17 22.8 C 20 %
1671 12-04-2020 14:21:17 22.9 C 20 %
1672 12-04-2020 14:31:17 26.2 C 20 %
1673 12-04-2020 14:41:17 28.6 C 20 %
1674 12-04-2020 14:51:17 28.5 C 20 %
1675 12-04-2020 15:01:17 30.3 C 20 %
Sensor: Nr:Datum:Temp:Feuchte:
Aussen-T/F 1676 12-04-2020 15:11:17 27.7 C 20 %
1677 12-04-2020 15:21:17 27.9 C 20 %
1678 12-04-2020 15:31:18 30.7 C 20 %
1679 12-04-2020 15:41:18 30.5 C 20 %
1680 12-04-2020 15:51:18 28.3 C 20 %
1681 12-04-2020 16:01:17 30.5 C 20 %
1682 12-04-2020 16:11:17 33.2 C 20 %
1683 12-04-2020 16:21:17 32.8 C 20 %
1684 12-04-2020 16:31:17 27.8 C 20 %
1685 12-04-2020 16:41:17 26 C 20 %
1686 12-04-2020 16:51:17 24.7 C 20 %
1687 12-04-2020 17:01:17 29.6 C 20 %
1688 12-04-2020 17:11:18 29.6 C 20 %
1689 12-04-2020 17:21:17 29.5 C 20 %
1690 12-04-2020 17:31:17 26.5 C 20 %
1691 12-04-2020 17:41:17 29.3 C 20 %
1692 12-04-2020 17:51:17 29.8 C 20 %
1693 12-04-2020 18:01:18 24.6 C 20 %
1694 12-04-2020 18:11:18 24 C 20 %
1695 12-04-2020 18:21:17 24 C 20 %
1696 12-04-2020 18:31:17 23.6 C 20 %
1697 12-04-2020 18:41:17 22.9 C 20 %
1698 12-04-2020 18:51:17 22.4 C 20 %
1699 12-04-2020 19:01:17 22.5 C 20 %
1700 12-04-2020 19:11:17 22.4 C 20 %
Sensor: Nr:Datum:Temp:Feuchte:
Aussen-T/F 1701 12-04-2020 19:21:17 22 C 20 %
1702 12-04-2020 19:31:17 21.6 C 20 %
1703 12-04-2020 19:41:17 20.3 C 20 %
1704 12-04-2020 19:51:18 19.1 C 20 %
1705 12-04-2020 20:01:18 18.2 C 20 %
1706 12-04-2020 20:11:18 17.9 C 20 %
1707 12-04-2020 20:21:17 17.5 C 20 %
1708 12-04-2020 20:31:18 17 C 20 %
1709 12-04-2020 20:41:18 16.8 C 20 %
1710 12-04-2020 20:51:17 16 C 20 %
1711 12-04-2020 21:01:17 15.5 C 20 %
1712 12-04-2020 21:11:17 14 C 20 %
1713 12-04-2020 21:22:17 13.5 C 20 %
1714 12-04-2020 21:31:17 13.2 C 21 %
1715 12-04-2020 21:41:17 13.2 C 20 %
1716 12-04-2020 21:51:17 13.3 C 21 %
1717 12-04-2020 22:01:17 13.4 C 20 %
1718 12-04-2020 22:11:17 13 C 21 %
1719 12-04-2020 22:22:17 12.9 C 22 %
1720 12-04-2020 22:32:17 12.2 C 23 %
1721 12-04-2020 22:42:17 11.8 C 26 %
1722 12-04-2020 22:51:17 11.7 C 25 %
1723 12-04-2020 23:01:18 11.5 C 25 %
1724 12-04-2020 23:11:18 11.1 C 26 %
1725 12-04-2020 23:21:17 10.9 C 27 %
Sensor: Nr:Datum:Temp:Feuchte:
Aussen-T/F 1726 12-04-2020 23:32:17 10.7 C 28 %
1727 12-04-2020 23:41:17 10.3 C 28 %
1728 12-04-2020 23:52:17 10.5 C 28 %
1729 13-04-2020 00:01:17 10.6 C 28 %
1730 13-04-2020 00:11:17 10.4 C 29 %
1731 13-04-2020 00:21:18 10.4 C 30 %
1732 13-04-2020 00:31:17 10.1 C 30 %
1733 13-04-2020 00:41:17 9.9 C 31 %
1734 13-04-2020 00:51:17 9.7 C 31 %
1735 13-04-2020 01:01:18 9.5 C 31 %
1736 13-04-2020 01:11:18 9.4 C 32 %
1737 13-04-2020 01:21:18 9 C 32 %
1738 13-04-2020 01:31:18 9.3 C 32 %
1739 13-04-2020 01:41:18 9.2 C 32 %
1740 13-04-2020 01:51:18 9.3 C 32 %
1741 13-04-2020 02:02:17 9.2 C 32 %
1742 13-04-2020 02:12:17 9.2 C 32 %
1743 13-04-2020 02:21:17 9.1 C 32 %
1744 13-04-2020 02:31:18 9 C 33 %
1745 13-04-2020 02:41:18 8.6 C 34 %
1746 13-04-2020 02:51:17 8.6 C 34 %
1747 13-04-2020 03:01:18 8.4 C 34 %
1748 13-04-2020 03:11:18 8.2 C 35 %
1749 13-04-2020 03:22:17 7.9 C 35 %
1750 13-04-2020 03:32:17 8.1 C 35 %
Sensor: Nr:Datum:Temp:Feuchte:
Aussen-T/F 1751 13-04-2020 03:42:17 8 C 35 %
1752 13-04-2020 03:51:17 7.8 C 35 %
1753 13-04-2020 04:02:17 7.5 C 36 %
1754 13-04-2020 04:12:17 7.2 C 36 %
1755 13-04-2020 04:21:18 6.8 C 38 %
1756 13-04-2020 04:32:17 6.8 C 38 %
1757 13-04-2020 04:41:17 6.7 C 39 %
1758 13-04-2020 04:52:17 7.7 C 37 %
1759 13-04-2020 05:02:17 7.3 C 37 %
1760 13-04-2020 05:12:17 7.5 C 38 %
1761 13-04-2020 05:22:17 7.8 C 38 %
1762 13-04-2020 05:32:17 7.6 C 37 %
1763 13-04-2020 05:42:17 7.4 C 37 %
1764 13-04-2020 05:52:17 7.2 C 38 %
1765 13-04-2020 06:02:17 7.2 C 38 %
1766 13-04-2020 06:12:17 6.6 C 39 %
1767 13-04-2020 06:22:17 6.2 C 39 %
1768 13-04-2020 06:32:17 6.3 C 40 %
1769 13-04-2020 06:42:17 6.3 C 40 %
1770 13-04-2020 06:52:17 6.4 C 40 %
1771 13-04-2020 07:02:17 6.5 C 40 %
1772 13-04-2020 07:12:17 7.2 C 39 %
1773 13-04-2020 07:22:17 7.6 C 38 %
1774 13-04-2020 07:32:17 8.1 C 37 %
1775 13-04-2020 07:42:17 8.3 C 37 %
Sensor: Nr:Datum:Temp:Feuchte:
Aussen-T/F 1776 13-04-2020 07:52:17 8.5 C 37 %
1777 13-04-2020 08:02:17 8.6 C 36 %
1778 13-04-2020 08:12:18 8.9 C 36 %
1779 13-04-2020 08:22:17 9 C 36 %
1780 13-04-2020 08:32:17 9.4 C 36 %
1781 13-04-2020 08:42:17 10.7 C 37 %
1782 13-04-2020 08:52:17 11.1 C 36 %
1783 13-04-2020 09:02:17 10.7 C 37 %
1784 13-04-2020 09:12:17 10.7 C 37 %
1785 13-04-2020 09:22:17 11 C 36 %
1786 13-04-2020 09:32:17 11.5 C 36 %
1787 13-04-2020 09:42:17 11.9 C 35 %
1788 13-04-2020 09:52:17 11.4 C 35 %
1789 13-04-2020 10:02:17 11.2 C 35 %
1790 13-04-2020 10:12:17 11.1 C 35 %
1791 13-04-2020 10:22:17 11 C 34 %
1792 13-04-2020 10:32:17 11.1 C 34 %
1793 13-04-2020 10:42:17 11.3 C 34 %
1794 13-04-2020 10:52:17 11.6 C 33 %
1795 13-04-2020 11:02:17 11.6 C 33 %
1796 13-04-2020 11:12:17 11.4 C 32 %
1797 13-04-2020 11:22:17 11.8 C 32 %
1798 13-04-2020 11:32:17 11.5 C 31 %
1799 13-04-2020 11:42:17 11.1 C 31 %
1800 13-04-2020 11:52:16 10.8 C 32 %
Sensor: Nr:Datum:Temp:Feuchte:
Aussen-T/F 1801 13-04-2020 12:02:17 10.9 C 32 %
1802 13-04-2020 12:12:17 10.5 C 33 %
1803 13-04-2020 12:22:17 10.4 C 33 %
1804 13-04-2020 12:32:17 10.7 C 32 %
1805 13-04-2020 12:42:17 11.1 C 32 %
1806 13-04-2020 12:52:17 10.6 C 32 %
1807 13-04-2020 13:02:16 10.3 C 32 %
1808 13-04-2020 13:12:16 10.2 C 32 %
1809 13-04-2020 13:22:17 10.2 C 32 %
1810 13-04-2020 13:32:17 9.6 C 33 %
1811 13-04-2020 13:42:17 8.6 C 35 %
1812 13-04-2020 13:52:17 7.6 C 39 %
1813 13-04-2020 14:02:17 7.5 C 40 %
1814 13-04-2020 14:12:17 7.7 C 38 %
1815 13-04-2020 14:22:16 8.7 C 36 %
1816 13-04-2020 14:32:17 9.2 C 35 %
1817 13-04-2020 14:42:17 9.6 C 34 %
1818 13-04-2020 14:52:16 10.9 C 31 %
1819 13-04-2020 15:02:17 12.4 C 26 %
1820 13-04-2020 15:12:17 12.3 C 25 %
1821 13-04-2020 15:22:17 12.7 C 20 %
1822 13-04-2020 15:32:17 11.8 C 20 %
1823 13-04-2020 15:42:17 12.4 C 20 %
1824 13-04-2020 15:52:16 13.2 C 20 %
1825 13-04-2020 16:02:16 12.2 C 20 %
Sensor: Nr:Datum:Temp:Feuchte:
Aussen-T/F 1826 13-04-2020 16:12:16 14.4 C 20 %
1827 13-04-2020 16:22:16 15 C 20 %
1828 13-04-2020 16:32:17 16 C 20 %
1829 13-04-2020 16:42:17 14.9 C 20 %
1830 13-04-2020 16:52:16 16.5 C 20 %
1831 13-04-2020 17:02:17 15.2 C 20 %
1832 13-04-2020 17:12:17 15.6 C 20 %
1833 13-04-2020 17:22:16 15 C 20 %
1834 13-04-2020 17:32:16 15 C 20 %
1835 13-04-2020 17:42:16 14.5 C 20 %
1836 13-04-2020 17:52:16 15.4 C 20 %
1837 13-04-2020 18:02:16 13.2 C 20 %
1838 13-04-2020 18:12:16 12.5 C 20 %
1839 13-04-2020 18:22:17 12.1 C 20 %
1840 13-04-2020 18:32:17 11.9 C 20 %
1841 13-04-2020 18:42:18 11.1 C 20 %
1842 13-04-2020 18:52:16 11.1 C 20 %
1843 13-04-2020 19:02:16 10.8 C 20 %
1844 13-04-2020 19:12:16 10.5 C 20 %
1845 13-04-2020 19:22:16 10.2 C 20 %
1846 13-04-2020 19:32:17 10 C 20 %
1847 13-04-2020 19:42:17 9.8 C 20 %
1848 13-04-2020 19:52:16 9.6 C 20 %
1849 13-04-2020 20:02:16 9 C 20 %
1850 13-04-2020 20:12:16 8.6 C 20 %
Sensor: Nr:Datum:Temp:Feuchte:
Aussen-T/F 1851 13-04-2020 20:22:16 8.5 C 20 %
1852 13-04-2020 20:32:16 8.4 C 20 %
1853 13-04-2020 20:42:16 8.2 C 20 %
1854 13-04-2020 20:52:16 7.5 C 20 %
1855 13-04-2020 21:02:16 7.5 C 20 %
1856 13-04-2020 21:12:16 7.4 C 20 %
1857 13-04-2020 21:22:16 7.3 C 20 %
1858 13-04-2020 21:32:17 7.2 C 20 %
1859 13-04-2020 21:42:17 6.7 C 20 %
1860 13-04-2020 21:52:16 6.5 C 20 %
1861 13-04-2020 22:02:16 6.1 C 20 %
1862 13-04-2020 22:12:16 5.5 C 20 %
1863 13-04-2020 22:22:16 5.1 C 20 %
1864 13-04-2020 22:32:16 4.6 C 23 %
1865 13-04-2020 22:42:16 4.4 C 25 %
1866 13-04-2020 22:52:16 4.1 C 25 %
1867 13-04-2020 23:02:16 3.9 C 26 %
1868 13-04-2020 23:12:16 3.8 C 27 %
1869 13-04-2020 23:22:16 3.5 C 30 %
1870 13-04-2020 23:32:17 3.3 C 29 %
1871 13-04-2020 23:42:17 4 C 26 %
1872 13-04-2020 23:52:16 4 C 25 %
1873 14-04-2020 00:02:16 3.3 C 28 %
1874 14-04-2020 00:12:16 4.1 C 25 %
1875 14-04-2020 00:22:16 3.2 C 27 %
Sensor: Nr:Datum:Temp:Feuchte:
Aussen-T/F 1876 14-04-2020 00:32:16 3.3 C 27 %
1877 14-04-2020 00:42:16 2.8 C 29 %
1878 14-04-2020 00:52:16 2.9 C 29 %
1879 14-04-2020 01:02:16 3.1 C 27 %
1880 14-04-2020 01:12:16 3.4 C 27 %
1881 14-04-2020 01:22:16 2.8 C 28 %
1882 14-04-2020 01:32:16 2.1 C 30 %
1883 14-04-2020 01:42:16 1.9 C 33 %
1884 14-04-2020 01:52:16 1.2 C 35 %
1885 14-04-2020 02:02:16 1.6 C 35 %
1886 14-04-2020 02:12:16 1.3 C 35 %
1887 14-04-2020 02:22:16 0.9 C 36 %
1888 14-04-2020 02:32:16 0.8 C 36 %
1889 14-04-2020 02:42:16 1.1 C 35 %
1890 14-04-2020 02:52:18 1 C 35 %
1891 14-04-2020 03:02:18 1.1 C 35 %
1892 14-04-2020 03:12:18 1.1 C 35 %
1893 14-04-2020 03:22:17 0.7 C 36 %
1894 14-04-2020 03:32:18 1.1 C 36 %
1895 14-04-2020 03:42:18 0.9 C 36 %
1896 14-04-2020 03:52:17 1 C 35 %
1897 14-04-2020 04:02:18 0.9 C 36 %
1898 14-04-2020 04:12:18 0.9 C 36 %
1899 14-04-2020 04:22:17 0.6 C 36 %
1900 14-04-2020 04:32:17 0.7 C 36 %
Sensor: Nr:Datum:Temp:Feuchte:
Aussen-T/F 1901 14-04-2020 04:42:17 0.7 C 36 %
1902 14-04-2020 04:52:18 0.6 C 36 %
1903 14-04-2020 05:02:17 0 C 37 %
1904 14-04-2020 05:12:17 0 C 38 %
1905 14-04-2020 05:22:17 0.6 C 38 %
1906 14-04-2020 05:32:17 0.6 C 39 %
1907 14-04-2020 05:42:17 0.7 C 39 %
1908 14-04-2020 05:52:17 0 C 39 %
1909 14-04-2020 06:02:17 -0.2 C 40 %
1910 14-04-2020 06:12:17 -0.7 C 41 %
1911 14-04-2020 06:22:17 -0.9 C 41 %
1912 14-04-2020 06:32:17 -0.4 C 41 %
1913 14-04-2020 06:42:17 -0.1 C 41 %
1914 14-04-2020 06:52:17 0.5 C 41 %
1915 14-04-2020 07:02:17 0.7 C 41 %
1916 14-04-2020 07:12:17 1.1 C 40 %
1917 14-04-2020 07:22:17 1.3 C 39 %
1918 14-04-2020 07:32:17 1.6 C 39 %
1919 14-04-2020 07:42:17 1.8 C 39 %
1920 14-04-2020 07:52:18 2.1 C 37 %
1921 14-04-2020 08:02:17 2.2 C 38 %
1922 14-04-2020 08:12:17 2.3 C 37 %
1923 14-04-2020 08:22:18 1.7 C 39 %
1924 14-04-2020 08:32:17 1.7 C 40 %
1925 14-04-2020 08:42:17 2.2 C 38 %
Sensor: Nr:Datum:Temp:Feuchte:
Aussen-T/F 1926 14-04-2020 08:52:17 2.4 C 38 %
1927 14-04-2020 09:02:18 3 C 37 %
1928 14-04-2020 09:12:18 3.8 C 36 %
1929 14-04-2020 09:22:17 4.7 C 34 %
1930 14-04-2020 09:32:18 5.7 C 32 %
1931 14-04-2020 09:42:18 5.3 C 31 %
1932 14-04-2020 09:52:17 6 C 31 %
1933 14-04-2020 10:02:17 6.6 C 30 %
1934 14-04-2020 10:12:17 5.8 C 30 %
1935 14-04-2020 10:22:17 5.9 C 30 %
1936 14-04-2020 10:32:17 6.7 C 30 %
1937 14-04-2020 10:42:17 7.4 C 26 %
1938 14-04-2020 10:52:18 8.4 C 23 %
1939 14-04-2020 11:02:17 8.2 C 21 %
1940 14-04-2020 11:12:17 8 C 20 %
1941 14-04-2020 11:22:17 7.9 C 20 %
1942 14-04-2020 11:32:17 8.2 C 20 %
1943 14-04-2020 11:42:17 9.1 C 20 %
1944 14-04-2020 11:52:18 8.4 C 20 %
1945 14-04-2020 12:02:17 8.5 C 20 %
1946 14-04-2020 12:12:17 8.6 C 20 %
1947 14-04-2020 12:22:17 8.9 C 20 %
1948 14-04-2020 12:32:17 8.6 C 20 %
1949 14-04-2020 12:42:17 9.8 C 20 %
1950 14-04-2020 12:52:17 10.6 C 20 %
Sensor: Nr:Datum:Temp:Feuchte:
Aussen-T/F 1951 14-04-2020 13:02:18 10.2 C 20 %
1952 14-04-2020 13:12:18 10 C 20 %
1953 14-04-2020 13:22:17 10.4 C 20 %
1954 14-04-2020 13:32:17 10.7 C 20 %
1955 14-04-2020 13:42:17 10 C 20 %
1956 14-04-2020 13:52:18 9.5 C 20 %
1957 14-04-2020 14:02:17 9.8 C 20 %
1958 14-04-2020 14:12:18 10.3 C 20 %
1959 14-04-2020 14:22:18 11.8 C 20 %
1960 14-04-2020 14:32:18 14.5 C 20 %
1961 14-04-2020 14:42:18 17.4 C 20 %
1962 14-04-2020 14:52:17 16.8 C 20 %
1963 14-04-2020 15:02:17 17.6 C 20 %
1964 14-04-2020 15:12:18 21 C 20 %
1965 14-04-2020 15:22:17 14.7 C 20 %
1966 14-04-2020 15:32:17 16.7 C 20 %
1967 14-04-2020 15:42:17 14 C 20 %
1968 14-04-2020 15:52:17 14 C 20 %
1969 14-04-2020 16:02:17 15 C 20 %
1970 14-04-2020 16:12:17 17.2 C 20 %
1971 14-04-2020 16:22:17 17.7 C 20 %
1972 14-04-2020 16:32:18 16.3 C 20 %
1973 14-04-2020 16:42:18 14 C 20 %
1974 14-04-2020 16:52:17 14.5 C 20 %
1975 14-04-2020 17:02:18 12.2 C 20 %
Sensor: Nr:Datum:Temp:Feuchte:
Aussen-T/F 1976 14-04-2020 17:12:18 14.2 C 20 %
1977 14-04-2020 17:22:17 19.2 C 20 %
1978 14-04-2020 17:32:17 16.8 C 20 %
1979 14-04-2020 17:42:18 15.5 C 20 %
1980 14-04-2020 17:52:17 16 C 20 %
1981 14-04-2020 18:02:18 13.4 C 20 %
1982 14-04-2020 18:12:18 12.4 C 20 %
1983 14-04-2020 18:22:17 12.1 C 20 %
1984 14-04-2020 18:32:18 11.9 C 20 %
1985 14-04-2020 18:42:18 11.7 C 20 %
1986 14-04-2020 18:52:17 11.3 C 20 %
1987 14-04-2020 19:02:17 11.2 C 20 %
1988 14-04-2020 19:12:18 11 C 20 %
1989 14-04-2020 19:22:18 10.6 C 20 %
1990 14-04-2020 19:32:18 10.3 C 20 %
1991 14-04-2020 19:42:18 10.1 C 20 %
1992 14-04-2020 19:52:17 9.7 C 20 %
1993 14-04-2020 20:02:17 9.3 C 20 %
1994 14-04-2020 20:12:17 8.9 C 20 %
1995 14-04-2020 20:22:17 7.7 C 20 %
1996 14-04-2020 20:32:17 7 C 23 %
1997 14-04-2020 20:42:18 6.7 C 25 %
1998 14-04-2020 20:52:17 6.8 C 25 %
1999 14-04-2020 21:02:17 6.5 C 25 %
2000 14-04-2020 21:12:17 6.3 C 25 %
Sensor: Nr:Datum:Temp:Feuchte:
Aussen-T/F 2001 14-04-2020 21:22:17 6 C 26 %
2002 14-04-2020 21:32:17 6.1 C 26 %
2003 14-04-2020 21:42:17 5.8 C 27 %
2004 14-04-2020 21:52:17 5.6 C 27 %
2005 14-04-2020 22:02:18 5.6 C 27 %
2006 14-04-2020 22:12:18 5.1 C 29 %
2007 14-04-2020 22:22:17 5.2 C 28 %
2008 14-04-2020 22:32:18 5 C 29 %
2009 14-04-2020 22:42:18 4.7 C 30 %
2010 14-04-2020 22:52:18 4.7 C 30 %
2011 14-04-2020 23:02:18 4.3 C 32 %
2012 14-04-2020 23:12:18 3.6 C 34 %
2013 14-04-2020 23:22:17 3.2 C 35 %
2014 14-04-2020 23:32:17 3 C 35 %
2015 14-04-2020 23:42:17 2.8 C 36 %
2016 14-04-2020 23:52:17 2.6 C 36 %
2017 15-04-2020 00:02:18 2.4 C 37 %
2018 15-04-2020 00:12:18 2.1 C 37 %
2019 15-04-2020 00:22:17 1.7 C 39 %
2020 15-04-2020 00:32:18 1.6 C 39 %
2021 15-04-2020 00:42:18 1.6 C 40 %
2022 15-04-2020 00:52:17 1.6 C 39 %
2023 15-04-2020 01:02:17 1.5 C 40 %
2024 15-04-2020 01:12:17 1.3 C 40 %
2025 15-04-2020 01:22:17 1.2 C 40 %
Sensor: Nr:Datum:Temp:Feuchte:
Aussen-T/F 2026 15-04-2020 01:32:17 1.3 C 40 %
2027 15-04-2020 01:42:17 1.2 C 40 %
2028 15-04-2020 01:52:17 1 C 40 %
2029 15-04-2020 02:02:17 0.8 C 41 %
2030 15-04-2020 02:12:17 0.8 C 42 %
2031 15-04-2020 02:22:17 0.8 C 42 %
2032 15-04-2020 02:32:17 0.7 C 42 %
2033 15-04-2020 02:42:17 0.6 C 42 %
2034 15-04-2020 02:52:17 0.1 C 42 %
2035 15-04-2020 03:02:17 0.2 C 43 %
2036 15-04-2020 03:12:17 0.3 C 43 %
2037 15-04-2020 03:22:17 0.2 C 43 %
2038 15-04-2020 03:32:18 0.5 C 43 %
2039 15-04-2020 03:42:18 0.1 C 43 %
2040 15-04-2020 03:52:18 0 C 43 %
2041 15-04-2020 04:02:18 0.2 C 43 %
2042 15-04-2020 04:12:18 -0.2 C 43 %
2043 15-04-2020 04:22:17 0 C 44 %
2044 15-04-2020 04:32:18 -0.2 C 43 %
2045 15-04-2020 04:42:18 -0.3 C 44 %
2046 15-04-2020 04:52:17 -0.4 C 44 %
2047 15-04-2020 05:02:18 -0.4 C 44 %
2048 15-04-2020 05:12:18 -0.3 C 44 %
2049 15-04-2020 05:22:17 -0.4 C 45 %
2050 15-04-2020 05:32:17 -0.5 C 45 %
Sensor: Nr:Datum:Temp:Feuchte:
Aussen-T/F 2051 15-04-2020 05:42:17 -0.4 C 45 %
2052 15-04-2020 05:52:17 -0.7 C 45 %
2053 15-04-2020 06:02:17 -0.7 C 45 %
2054 15-04-2020 06:12:17 -0.7 C 45 %
2055 15-04-2020 06:22:17 -0.7 C 45 %
2056 15-04-2020 06:32:17 -0.6 C 45 %
2057 15-04-2020 06:42:17 -0.7 C 45 %
2058 15-04-2020 06:52:17 -0.9 C 45 %
2059 15-04-2020 07:02:17 -0.7 C 45 %
2060 15-04-2020 07:12:17 -0.6 C 45 %
2061 15-04-2020 07:22:17 -0.5 C 45 %
2062 15-04-2020 07:32:17 -0.1 C 46 %
2063 15-04-2020 07:42:17 0.1 C 45 %
2064 15-04-2020 07:52:18 0.4 C 45 %
2065 15-04-2020 08:02:17 0.7 C 45 %
2066 15-04-2020 08:12:17 1 C 43 %
2067 15-04-2020 08:22:18 1.4 C 42 %
2068 15-04-2020 08:32:18 1.6 C 41 %
2069 15-04-2020 08:42:18 1.9 C 41 %
2070 15-04-2020 08:52:18 2.4 C 40 %
2071 15-04-2020 09:02:17 2.8 C 40 %
2072 15-04-2020 09:12:17 3 C 38 %
2073 15-04-2020 09:22:18 3.4 C 38 %
2074 15-04-2020 09:32:18 3.5 C 37 %
2075 15-04-2020 09:42:18 4.2 C 36 %
Sensor: Nr:Datum:Temp:Feuchte:
Aussen-T/F 2076 15-04-2020 09:52:17 4.4 C 36 %
2077 15-04-2020 10:02:18 4.9 C 35 %
2078 15-04-2020 10:12:18 5.4 C 35 %
2079 15-04-2020 10:22:18 6.2 C 34 %
2080 15-04-2020 10:32:18 6.9 C 33 %
2081 15-04-2020 10:42:18 7.4 C 31 %
2082 15-04-2020 10:52:18 8.1 C 30 %
2083 15-04-2020 11:02:17 8.5 C 30 %
2084 15-04-2020 11:12:17 9.2 C 29 %
2085 15-04-2020 11:22:18 9.9 C 28 %
2086 15-04-2020 11:32:17 10.4 C 26 %
2087 15-04-2020 11:42:17 11 C 22 %
2088 15-04-2020 11:52:18 11.6 C 20 %
2089 15-04-2020 12:02:17 12.3 C 20 %
2090 15-04-2020 12:12:17 12.2 C 20 %
2091 15-04-2020 12:22:18 13.3 C 20 %
2092 15-04-2020 12:32:18 13.2 C 20 %
2093 15-04-2020 12:42:18 13.3 C 20 %
2094 15-04-2020 12:52:17 13.2 C 20 %
2095 15-04-2020 13:02:17 13.4 C 20 %
2096 15-04-2020 13:12:17 13.5 C 20 %
2097 15-04-2020 13:22:18 13.4 C 20 %
2098 15-04-2020 13:32:18 14.2 C 20 %
2099 15-04-2020 13:42:18 14.4 C 20 %
2100 15-04-2020 13:52:17 14.7 C 20 %
Sensor: Nr:Datum:Temp:Feuchte:
Aussen-T/F 2101 15-04-2020 14:02:17 15.2 C 20 %
2102 15-04-2020 14:12:17 15.5 C 20 %
2103 15-04-2020 14:22:17 16.9 C 20 %
2104 15-04-2020 14:32:17 21.6 C 20 %
2105 15-04-2020 14:42:17 23.9 C 20 %
2106 15-04-2020 14:52:17 25.2 C 20 %
2107 15-04-2020 15:02:18 24.8 C 20 %
2108 15-04-2020 15:12:18 23.5 C 20 %
2109 15-04-2020 15:22:18 24.4 C 20 %
2110 15-04-2020 15:32:18 23.9 C 20 %
2111 15-04-2020 15:42:18 24.5 C 20 %
2112 15-04-2020 15:52:17 24.4 C 20 %
2113 15-04-2020 16:02:18 24.8 C 20 %
2114 15-04-2020 16:12:18 24.6 C 20 %
2115 15-04-2020 16:22:17 23.3 C 20 %
2116 15-04-2020 16:32:18 23.7 C 20 %
2117 15-04-2020 16:42:18 25.4 C 20 %
2118 15-04-2020 16:52:18 25.9 C 20 %
2119 15-04-2020 17:02:17 25.4 C 20 %
2120 15-04-2020 17:12:17 26.8 C 20 %
2121 15-04-2020 17:22:18 24.8 C 20 %
2122 15-04-2020 17:32:17 24 C 20 %
2123 15-04-2020 17:42:17 22.4 C 20 %
2124 15-04-2020 17:52:18 24.4 C 20 %
2125 15-04-2020 18:02:18 20.6 C 20 %
Sensor: Nr:Datum:Temp:Feuchte:
Aussen-T/F 2126 15-04-2020 18:12:18 20.2 C 20 %
2127 15-04-2020 18:22:18 19.7 C 20 %
2128 15-04-2020 18:32:18 19.1 C 20 %
2129 15-04-2020 18:42:18 19.4 C 20 %
2130 15-04-2020 18:52:17 19.4 C 20 %
2131 15-04-2020 19:02:17 18.8 C 20 %
2132 15-04-2020 19:12:17 18.7 C 20 %
2133 15-04-2020 19:22:17 18.2 C 20 %
2134 15-04-2020 19:32:17 18 C 20 %
2135 15-04-2020 19:42:18 17.3 C 20 %
2136 15-04-2020 19:52:17 15.3 C 20 %
2137 15-04-2020 20:02:18 14 C 20 %
2138 15-04-2020 20:12:18 13.6 C 20 %
2139 15-04-2020 20:22:18 13.4 C 20 %
2140 15-04-2020 20:32:17 13.1 C 20 %
2141 15-04-2020 20:42:18 12.7 C 20 %
2142 15-04-2020 20:52:17 12 C 20 %
2143 15-04-2020 21:02:18 12 C 20 %
2144 15-04-2020 21:12:18 11 C 20 %
2145 15-04-2020 21:22:17 11 C 20 %
2146 15-04-2020 21:32:17 10.5 C 20 %
2147 15-04-2020 21:42:17 9.4 C 25 %
2148 15-04-2020 21:52:17 9 C 26 %
2149 15-04-2020 22:02:17 8.9 C 27 %
2150 15-04-2020 22:12:17 8.6 C 28 %
Sensor: Nr:Datum:Temp:Feuchte:
Aussen-T/F 2151 15-04-2020 22:22:17 8.8 C 28 %
2152 15-04-2020 22:32:18 8.1 C 28 %
2153 15-04-2020 22:42:18 7.7 C 29 %
2154 15-04-2020 22:52:17 7.3 C 30 %
2155 15-04-2020 23:02:17 7.1 C 30 %
2156 15-04-2020 23:12:17 7.2 C 30 %
2157 15-04-2020 23:22:17 7 C 30 %
2158 15-04-2020 23:32:17 6.6 C 31 %
2159 15-04-2020 23:42:18 6.4 C 32 %
2160 15-04-2020 23:52:17 6.2 C 32 %
2161 16-04-2020 00:02:17 6.2 C 32 %
2162 16-04-2020 00:12:17 6 C 33 %
2163 16-04-2020 00:22:17 5.8 C 34 %
2164 16-04-2020 00:32:18 5.5 C 35 %
2165 16-04-2020 00:42:18 5.3 C 35 %
2166 16-04-2020 00:52:17 5.2 C 35 %
2167 16-04-2020 01:02:17 4.8 C 35 %
2168 16-04-2020 01:12:17 4.8 C 35 %
2169 16-04-2020 01:22:17 5.1 C 35 %
2170 16-04-2020 01:32:18 5.1 C 35 %
2171 16-04-2020 01:42:18 4.7 C 36 %
2172 16-04-2020 01:52:17 4.8 C 36 %
2173 16-04-2020 02:02:18 4.6 C 36 %
2174 16-04-2020 02:12:18 4.3 C 36 %
2175 16-04-2020 02:22:18 3.9 C 38 %
Sensor: Nr:Datum:Temp:Feuchte:
Aussen-T/F 2176 16-04-2020 02:32:17 4.1 C 38 %
2177 16-04-2020 02:42:17 4 C 38 %
2178 16-04-2020 02:52:17 3.7 C 39 %
2179 16-04-2020 03:02:17 3.6 C 40 %
2180 16-04-2020 03:12:17 3.6 C 39 %
2181 16-04-2020 03:22:17 3.5 C 39 %
2182 16-04-2020 03:32:17 3.3 C 39 %
2183 16-04-2020 03:42:17 3 C 40 %
2184 16-04-2020 03:52:17 2.9 C 41 %
2185 16-04-2020 04:02:17 3.2 C 40 %
2186 16-04-2020 04:12:17 3.2 C 40 %
2187 16-04-2020 04:22:17 2.7 C 41 %
2188 16-04-2020 04:32:18 2.6 C 41 %
2189 16-04-2020 04:42:18 3 C 41 %
2190 16-04-2020 04:52:17 2.6 C 42 %
2191 16-04-2020 05:02:17 2.7 C 42 %
2192 16-04-2020 05:12:17 2.7 C 42 %
2193 16-04-2020 05:22:17 2.6 C 42 %
2194 16-04-2020 05:32:17 2.3 C 42 %
2195 16-04-2020 05:42:17 2 C 42 %
2196 16-04-2020 05:52:17 2.1 C 43 %
2197 16-04-2020 06:02:18 2.4 C 43 %
2198 16-04-2020 06:12:18 2 C 42 %
2199 16-04-2020 06:22:17 1.6 C 44 %
2200 16-04-2020 06:32:17 1.4 C 44 %
Sensor: Nr:Datum:Temp:Feuchte:
Aussen-T/F 2201 16-04-2020 06:42:17 1.8 C 45 %
2202 16-04-2020 06:52:17 1.8 C 45 %
2203 16-04-2020 07:02:17 1.8 C 45 %
2204 16-04-2020 07:12:17 1.8 C 45 %
2205 16-04-2020 07:22:17 2.2 C 44 %
2206 16-04-2020 07:32:17 2.1 C 44 %
2207 16-04-2020 07:42:17 2.1 C 44 %
2208 16-04-2020 07:52:17 2.5 C 44 %
2209 16-04-2020 08:02:17 2.5 C 44 %
2210 16-04-2020 08:12:17 2.6 C 44 %
2211 16-04-2020 08:22:17 3 C 43 %
2212 16-04-2020 08:32:18 3.2 C 42 %
2213 16-04-2020 08:42:18 3.5 C 42 %
2214 16-04-2020 08:52:17 3.6 C 41 %
2215 16-04-2020 09:02:18 3.9 C 41 %
2216 16-04-2020 09:12:18 4.2 C 41 %
2217 16-04-2020 09:22:17 4.5 C 40 %
2218 16-04-2020 09:32:17 5.1 C 40 %
2219 16-04-2020 09:42:17 5.8 C 39 %
2220 16-04-2020 09:52:17 6.6 C 37 %
2221 16-04-2020 10:02:18 7 C 36 %
2222 16-04-2020 10:12:18 7.5 C 36 %
2223 16-04-2020 10:22:17 8.1 C 35 %
2224 16-04-2020 10:32:17 9.4 C 34 %
2225 16-04-2020 10:42:18 10.4 C 31 %
Sensor: Nr:Datum:Temp:Feuchte:
Aussen-T/F 2226 16-04-2020 10:52:17 11.2 C 30 %
2227 16-04-2020 11:02:18 12.2 C 29 %
2228 16-04-2020 11:12:18 14.2 C 25 %
2229 16-04-2020 11:22:17 15.5 C 20 %
2230 16-04-2020 11:32:17 16.8 C 20 %
2231 16-04-2020 11:42:17 17.6 C 20 %
2232 16-04-2020 11:52:17 18 C 20 %
2233 16-04-2020 12:02:18 18.4 C 20 %
2234 16-04-2020 12:12:18 18.7 C 20 %
2235 16-04-2020 12:22:17 19.1 C 20 %
2236 16-04-2020 12:32:18 19.3 C 20 %
2237 16-04-2020 12:42:18 19.5 C 20 %
2238 16-04-2020 12:52:17 19.6 C 20 %
2239 16-04-2020 13:02:18 20.1 C 20 %
2240 16-04-2020 13:12:18 20.5 C 20 %
2241 16-04-2020 13:22:17 20.8 C 20 %
2242 16-04-2020 13:32:18 21.1 C 20 %
2243 16-04-2020 13:42:18 21.5 C 20 %
2244 16-04-2020 13:52:17 21.7 C 20 %
2245 16-04-2020 14:02:17 22 C 20 %
2246 16-04-2020 14:12:17 22.4 C 20 %
2247 16-04-2020 14:22:17 22.8 C 20 %
2248 16-04-2020 14:32:17 26.2 C 20 %
2249 16-04-2020 14:42:17 28 C 20 %
2250 16-04-2020 14:52:17 29.6 C 20 %
Sensor: Nr:Datum:Temp:Feuchte:
Aussen-T/F 2251 16-04-2020 15:02:17 29.8 C 20 %
2252 16-04-2020 15:12:17 29.5 C 20 %
2253 16-04-2020 15:22:17 28.5 C 20 %
2254 16-04-2020 15:32:18 30.1 C 20 %
2255 16-04-2020 15:42:18 25.8 C 20 %
2256 16-04-2020 15:52:17 27.1 C 20 %
2257 16-04-2020 16:02:17 29.5 C 20 %
2258 16-04-2020 16:12:17 28.4 C 20 %
2259 16-04-2020 16:22:17 26.5 C 20 %
2260 16-04-2020 16:32:17 26.6 C 20 %
2261 16-04-2020 16:42:18 27.2 C 20 %
2262 16-04-2020 16:52:17 24.9 C 20 %
2263 16-04-2020 17:02:17 25 C 20 %
2264 16-04-2020 17:12:17 26.1 C 20 %
2265 16-04-2020 17:22:18 28.3 C 20 %
2266 16-04-2020 17:32:17 27.6 C 20 %
2267 16-04-2020 17:42:17 27.3 C 20 %
2268 16-04-2020 17:52:17 26.5 C 20 %
2269 16-04-2020 18:02:17 25.6 C 20 %
2270 16-04-2020 18:12:17 24.3 C 20 %
2271 16-04-2020 18:22:17 24.4 C 20 %
2272 16-04-2020 18:32:17 24.2 C 20 %
2273 16-04-2020 18:42:17 23.9 C 20 %
2274 16-04-2020 18:52:17 24 C 20 %
2275 16-04-2020 19:02:17 23.2 C 20 %
Sensor: Nr:Datum:Temp:Feuchte:
Aussen-T/F 2276 16-04-2020 19:12:17 22.9 C 20 %
2277 16-04-2020 19:22:17 22.2 C 20 %
2278 16-04-2020 19:32:18 21.9 C 20 %
2279 16-04-2020 19:42:18 21.2 C 20 %
2280 16-04-2020 19:52:17 20.5 C 20 %
2281 16-04-2020 20:02:17 19.5 C 20 %
2282 16-04-2020 20:12:17 19.2 C 20 %
2283 16-04-2020 20:22:17 19.3 C 20 %
2284 16-04-2020 20:32:18 19.1 C 20 %
2285 16-04-2020 20:42:18 18.9 C 20 %
2286 16-04-2020 20:52:18 18.5 C 20 %
2287 16-04-2020 21:02:17 17.9 C 20 %
2288 16-04-2020 21:12:17 16.5 C 20 %
2289 16-04-2020 21:22:17 16.1 C 20 %
2290 16-04-2020 21:32:18 15.5 C 20 %
2291 16-04-2020 21:42:18 14.7 C 21 %
2292 16-04-2020 21:52:17 14.4 C 22 %
2293 16-04-2020 22:02:17 14.5 C 22 %
2294 16-04-2020 22:12:17 13.5 C 25 %
2295 16-04-2020 22:22:17 14.1 C 25 %
2296 16-04-2020 22:32:17 13.8 C 25 %
2297 16-04-2020 22:42:18 13.1 C 26 %
2298 16-04-2020 22:52:17 12.4 C 28 %
2299 16-04-2020 23:02:17 12.5 C 29 %
2300 16-04-2020 23:12:17 12.2 C 30 %
Sensor: Nr:Datum:Temp:Feuchte:
Aussen-T/F 2301 16-04-2020 23:22:17 11.7 C 30 %
2302 16-04-2020 23:32:18 11.6 C 31 %
2303 16-04-2020 23:42:18 11.6 C 31 %
2304 16-04-2020 23:52:17 11.8 C 31 %
2305 17-04-2020 00:02:18 11.4 C 31 %
2306 17-04-2020 00:12:18 11 C 31 %
2307 17-04-2020 00:22:17 11 C 32 %
2308 17-04-2020 00:32:17 11 C 32 %
2309 17-04-2020 00:42:17 11 C 32 %
2310 17-04-2020 00:52:18 10.4 C 33 %
2311 17-04-2020 01:02:17 10.1 C 34 %
2312 17-04-2020 01:12:18 10.1 C 34 %
2313 17-04-2020 01:22:18 9.8 C 35 %
2314 17-04-2020 01:32:18 10 C 35 %
2315 17-04-2020 01:42:18 10 C 35 %
2316 17-04-2020 01:52:17 9.5 C 36 %
2317 17-04-2020 02:02:17 9.7 C 36 %
2318 17-04-2020 02:12:17 9.6 C 36 %
2319 17-04-2020 02:22:17 9.1 C 36 %
2320 17-04-2020 02:32:17 8.9 C 37 %
2321 17-04-2020 02:42:17 8.5 C 38 %
2322 17-04-2020 02:52:17 8.1 C 38 %
2323 17-04-2020 03:02:17 7.9 C 39 %
2324 17-04-2020 03:12:18 7.9 C 40 %
2325 17-04-2020 03:22:18 7.8 C 40 %
Sensor: Nr:Datum:Temp:Feuchte:
Aussen-T/F 2326 17-04-2020 03:32:17 7.8 C 40 %
2327 17-04-2020 03:42:18 7.8 C 40 %
2328 17-04-2020 03:52:18 8.5 C 39 %
2329 17-04-2020 04:02:17 8.4 C 39 %
2330 17-04-2020 04:12:17 8.3 C 39 %
2331 17-04-2020 04:22:17 8 C 39 %
2332 17-04-2020 04:32:17 7.9 C 40 %
2333 17-04-2020 04:42:17 8 C 40 %
2334 17-04-2020 04:52:17 7.8 C 40 %
2335 17-04-2020 05:02:17 7.5 C 40 %
2336 17-04-2020 05:12:18 6.9 C 41 %
2337 17-04-2020 05:22:17 6.7 C 42 %
2338 17-04-2020 05:32:18 6.6 C 42 %
2339 17-04-2020 05:42:18 6.7 C 43 %
2340 17-04-2020 05:52:18 6.5 C 42 %
2341 17-04-2020 06:02:18 6.5 C 43 %
2342 17-04-2020 06:12:18 6.2 C 43 %
2343 17-04-2020 06:22:17 6 C 43 %
2344 17-04-2020 06:32:17 6 C 44 %
2345 17-04-2020 06:42:17 5.8 C 44 %
2346 17-04-2020 06:52:17 5.8 C 44 %
2347 17-04-2020 07:02:18 5.8 C 45 %
2348 17-04-2020 07:12:18 5.9 C 45 %
2349 17-04-2020 07:22:18 6.1 C 45 %
2350 17-04-2020 07:32:17 6.1 C 45 %
Sensor: Nr:Datum:Temp:Feuchte:
Aussen-T/F 2351 17-04-2020 07:42:17 6.3 C 45 %
2352 17-04-2020 07:52:17 6.3 C 45 %
2353 17-04-2020 08:02:17 6.5 C 45 %
2354 17-04-2020 08:12:17 6.7 C 45 %
2355 17-04-2020 08:22:17 6.9 C 45 %
2356 17-04-2020 08:32:18 7 C 44 %
2357 17-04-2020 08:42:18 7.6 C 44 %
2358 17-04-2020 08:52:17 7.9 C 44 %
2359 17-04-2020 09:02:18 8.4 C 42 %
2360 17-04-2020 09:12:18 8.6 C 42 %
2361 17-04-2020 09:22:17 8.8 C 41 %
2362 17-04-2020 09:32:17 9.3 C 41 %
2363 17-04-2020 09:42:17 9.6 C 40 %
2364 17-04-2020 09:52:18 10.3 C 39 %
2365 17-04-2020 10:02:17 10.8 C 38 %
2366 17-04-2020 10:12:17 11 C 37 %
2367 17-04-2020 10:22:18 11.8 C 36 %
2368 17-04-2020 10:32:18 12.4 C 35 %
2369 17-04-2020 10:42:18 13 C 34 %
2370 17-04-2020 10:52:17 13.9 C 34 %
2371 17-04-2020 11:02:17 14.6 C 32 %
2372 17-04-2020 11:12:17 15.8 C 30 %
2373 17-04-2020 11:22:18 16.5 C 28 %
2374 17-04-2020 11:32:17 17.1 C 28 %
2375 17-04-2020 11:42:17 17.7 C 26 %
Sensor: Nr:Datum:Temp:Feuchte:
Aussen-T/F 2376 17-04-2020 11:52:17 17.9 C 25 %
2377 17-04-2020 12:02:18 18.5 C 25 %
2378 17-04-2020 12:12:18 18.7 C 24 %
2379 17-04-2020 12:22:17 19.1 C 22 %
2380 17-04-2020 12:32:17 19.7 C 20 %
2381 17-04-2020 12:42:17 19.7 C 20 %
2382 17-04-2020 12:52:17 19.7 C 20 %
2383 17-04-2020 13:02:18 20 C 20 %
2384 17-04-2020 13:12:18 20.4 C 20 %
2385 17-04-2020 13:22:17 20.6 C 20 %
2386 17-04-2020 13:32:17 20.8 C 20 %
2387 17-04-2020 13:42:17 21.1 C 20 %
2388 17-04-2020 13:52:17 21.6 C 20 %
2389 17-04-2020 14:02:18 21.8 C 20 %
2390 17-04-2020 14:12:18 22.6 C 20 %
2391 17-04-2020 14:22:17 23.2 C 20 %
2392 17-04-2020 14:32:17 25.2 C 20 %
2393 17-04-2020 14:42:17 29 C 20 %
2394 17-04-2020 14:52:17 32.1 C 20 %
2395 17-04-2020 15:02:17 30.9 C 20 %
2396 17-04-2020 15:12:17 31.4 C 20 %
2397 17-04-2020 15:22:17 29.6 C 20 %
2398 17-04-2020 15:32:17 29.2 C 20 %
2399 17-04-2020 15:42:17 29 C 20 %
2400 17-04-2020 15:52:18 25.7 C 20 %
Sensor: Nr:Datum:Temp:Feuchte:
Aussen-T/F 2401 17-04-2020 16:02:17 30.3 C 20 %
2402 17-04-2020 16:12:17 30.2 C 20 %
2403 17-04-2020 16:22:17 27.5 C 20 %
2404 17-04-2020 16:32:17 28.2 C 20 %
2405 17-04-2020 16:42:17 28.2 C 20 %
2406 17-04-2020 16:52:17 27.7 C 20 %
2407 17-04-2020 17:02:18 29.6 C 20 %
2408 17-04-2020 17:12:18 29.4 C 20 %
2409 17-04-2020 17:22:17 29.5 C 20 %
2410 17-04-2020 17:32:17 30.4 C 20 %
2411 17-04-2020 17:42:18 27.7 C 20 %
2412 17-04-2020 17:52:17 28.5 C 20 %
2413 17-04-2020 18:02:17 26.6 C 20 %
2414 17-04-2020 18:12:17 26.2 C 20 %
2415 17-04-2020 18:22:17 25.7 C 20 %
2416 17-04-2020 18:32:17 24.8 C 20 %
2417 17-04-2020 18:42:17 24.7 C 20 %
2418 17-04-2020 18:52:18 24.2 C 20 %
2419 17-04-2020 19:02:17 24.1 C 20 %
2420 17-04-2020 19:12:17 23.7 C 20 %
2421 17-04-2020 19:22:17 23 C 20 %
2422 17-04-2020 19:32:17 22.2 C 20 %
2423 17-04-2020 19:42:17 21.7 C 20 %
2424 17-04-2020 19:52:17 20.7 C 20 %
2425 17-04-2020 20:02:17 20 C 20 %
Sensor: Nr:Datum:Temp:Feuchte:
Aussen-T/F 2426 17-04-2020 20:12:17 19.5 C 20 %
2427 17-04-2020 20:22:17 18.8 C 21 %
2428 17-04-2020 20:32:17 18.4 C 21 %
2429 17-04-2020 20:42:17 18.2 C 21 %
2430 17-04-2020 20:52:17 17.7 C 23 %
2431 17-04-2020 21:02:17 17.5 C 23 %
2432 17-04-2020 21:12:17 17.7 C 24 %
2433 17-04-2020 21:22:17 17.6 C 25 %
2434 17-04-2020 21:32:18 17.8 C 24 %
2435 17-04-2020 21:42:18 17 C 25 %
2436 17-04-2020 21:52:18 16.8 C 25 %
2437 17-04-2020 22:02:17 16 C 26 %
2438 17-04-2020 22:12:17 16 C 26 %
2439 17-04-2020 22:22:17 15.8 C 26 %
2440 17-04-2020 22:32:17 15.7 C 26 %
2441 17-04-2020 22:42:17 15.1 C 27 %
2442 17-04-2020 22:52:17 14.6 C 29 %
2443 17-04-2020 23:02:17 14.7 C 30 %
2444 17-04-2020 23:12:17 14.4 C 29 %
2445 17-04-2020 23:22:18 14.1 C 30 %
2446 17-04-2020 23:32:17 14 C 30 %
2447 17-04-2020 23:42:17 13.6 C 31 %
2448 17-04-2020 23:52:17 13.5 C 31 %
2449 18-04-2020 00:02:17 13.4 C 31 %
2450 18-04-2020 00:12:17 13.1 C 32 %
Sensor: Nr:Datum:Temp:Feuchte:
Aussen-T/F 2451 18-04-2020 00:22:18 12.6 C 33 %
2452 18-04-2020 00:32:17 12.2 C 33 %
2453 18-04-2020 00:42:18 12 C 33 %
2454 18-04-2020 00:52:17 11.8 C 34 %
2455 18-04-2020 01:02:18 11.8 C 34 %
2456 18-04-2020 01:12:18 11.8 C 34 %
2457 18-04-2020 01:22:17 11.4 C 34 %
2458 18-04-2020 01:32:18 11.1 C 35 %
2459 18-04-2020 01:42:18 10.9 C 36 %
2460 18-04-2020 01:52:17 10.9 C 36 %
2461 18-04-2020 02:02:18 10.8 C 36 %
2462 18-04-2020 02:12:18 10.6 C 36 %
2463 18-04-2020 02:22:17 10.7 C 36 %
2464 18-04-2020 02:32:17 10.1 C 37 %
2465 18-04-2020 02:42:17 10 C 38 %
2466 18-04-2020 02:52:18 9.8 C 38 %
2467 18-04-2020 03:02:17 9.7 C 39 %
2468 18-04-2020 03:12:17 9.6 C 39 %
2469 18-04-2020 03:22:18 9.2 C 39 %
2470 18-04-2020 03:32:18 9 C 39 %
2471 18-04-2020 03:42:18 9 C 39 %
2472 18-04-2020 03:52:18 8.9 C 40 %
2473 18-04-2020 04:02:17 9 C 40 %
2474 18-04-2020 04:12:17 9 C 40 %
2475 18-04-2020 04:22:17 9 C 40 %
Sensor: Nr:Datum:Temp:Feuchte:
Aussen-T/F 2476 18-04-2020 04:32:18 8.9 C 41 %
2477 18-04-2020 04:42:18 8.8 C 41 %
2478 18-04-2020 04:52:17 8.6 C 41 %
2479 18-04-2020 05:02:17 8.4 C 41 %
2480 18-04-2020 05:12:17 8.5 C 41 %
2481 18-04-2020 05:22:17 8.7 C 40 %
2482 18-04-2020 05:32:17 8.6 C 41 %
2483 18-04-2020 05:42:17 8.3 C 41 %
2484 18-04-2020 05:52:18 8.6 C 41 %
2485 18-04-2020 06:02:17 8.7 C 41 %
2486 18-04-2020 06:12:17 8.6 C 41 %
2487 18-04-2020 06:22:17 8.7 C 41 %
2488 18-04-2020 06:32:17 8.3 C 41 %
2489 18-04-2020 06:42:17 8.1 C 41 %
2490 18-04-2020 06:52:17 8.2 C 41 %
2491 18-04-2020 07:02:17 8.4 C 42 %
2492 18-04-2020 07:12:17 8.7 C 42 %
2493 18-04-2020 07:22:17 9.4 C 42 %
2494 18-04-2020 07:32:17 9.6 C 41 %
2495 18-04-2020 07:42:17 9.7 C 41 %
2496 18-04-2020 07:52:17 9.7 C 41 %
2497 18-04-2020 08:02:18 9.7 C 41 %
2498 18-04-2020 08:12:18 10 C 40 %
2499 18-04-2020 08:22:17 10.1 C 40 %
2500 18-04-2020 08:32:17 10.2 C 40 %
Sensor: Nr:Datum:Temp:Feuchte:
Aussen-T/F 2501 18-04-2020 08:42:18 10.6 C 40 %
2502 18-04-2020 08:52:18 11.1 C 39 %
2503 18-04-2020 09:02:17 11.7 C 38 %
2504 18-04-2020 09:12:17 12.1 C 37 %
2505 18-04-2020 09:22:17 12.5 C 36 %
2506 18-04-2020 09:32:18 13.4 C 35 %
2507 18-04-2020 09:42:18 13.8 C 34 %
2508 18-04-2020 09:52:18 14.4 C 32 %
2509 18-04-2020 10:02:18 15 C 31 %
2510 18-04-2020 10:12:18 14.9 C 31 %
2511 18-04-2020 10:22:18 16.2 C 30 %
2512 18-04-2020 10:32:18 15.8 C 30 %
2513 18-04-2020 10:42:18 17.2 C 29 %
2514 18-04-2020 10:52:18 17.9 C 29 %
2515 18-04-2020 11:02:18 18.5 C 27 %
2516 18-04-2020 11:12:18 18.3 C 27 %
2517 18-04-2020 11:22:17 18.5 C 26 %
2518 18-04-2020 11:32:18 17.8 C 27 %
2519 18-04-2020 11:42:18 18.6 C 26 %
2520 18-04-2020 11:52:18 18.9 C 27 %
2521 18-04-2020 12:02:17 19.1 C 26 %
2522 18-04-2020 12:12:17 20 C 25 %
2523 18-04-2020 12:22:18 20.2 C 24 %
2524 18-04-2020 12:32:18 20.1 C 24 %
2525 18-04-2020 12:42:18 19.6 C 25 %
Sensor: Nr:Datum:Temp:Feuchte:
Aussen-T/F 2526 18-04-2020 12:52:17 19.3 C 25 %
2527 18-04-2020 13:02:17 20.8 C 24 %
2528 18-04-2020 13:12:17 21.8 C 21 %
2529 18-04-2020 13:22:18 21.5 C 20 %
2530 18-04-2020 13:32:18 21.8 C 20 %
2531 18-04-2020 13:42:18 22.4 C 20 %
2532 18-04-2020 13:52:18 21.6 C 20 %
2533 18-04-2020 14:02:18 21.2 C 20 %
2534 18-04-2020 14:12:18 21.7 C 20 %
2535 18-04-2020 14:22:18 22.4 C 20 %
2536 18-04-2020 14:32:17 22.4 C 20 %
2537 18-04-2020 14:42:17 22.8 C 20 %
2538 18-04-2020 14:52:17 22.6 C 20 %
2539 18-04-2020 15:02:17 25.4 C 20 %
2540 18-04-2020 15:12:18 30.4 C 20 %
2541 18-04-2020 15:22:17 28.2 C 20 %
2542 18-04-2020 15:32:17 23.8 C 20 %
2543 18-04-2020 15:42:17 23.2 C 20 %
2544 18-04-2020 15:52:17 22.2 C 20 %
2545 18-04-2020 16:02:18 21.8 C 20 %
2546 18-04-2020 16:12:18 21.8 C 20 %
2547 18-04-2020 16:22:18 20.6 C 20 %
2548 18-04-2020 16:32:17 19.7 C 25 %
2549 18-04-2020 16:42:17 20 C 25 %
2550 18-04-2020 16:52:17 19.9 C 25 %
Sensor: Nr:Datum:Temp:Feuchte:
Aussen-T/F 2551 18-04-2020 17:02:17 19.1 C 26 %
2552 18-04-2020 17:12:17 18.9 C 27 %
2553 18-04-2020 17:22:17 18.7 C 28 %
2554 18-04-2020 17:32:18 17.6 C 33 %
2555 18-04-2020 17:42:18 17.5 C 33 %
2556 18-04-2020 17:52:18 17.4 C 33 %
2557 18-04-2020 18:02:18 17.3 C 34 %
2558 18-04-2020 18:12:18 17.1 C 34 %
2559 18-04-2020 18:22:17 17.3 C 33 %
2560 18-04-2020 18:32:18 17.7 C 31 %
2561 18-04-2020 18:42:18 17.7 C 31 %
2562 18-04-2020 18:52:17 17.9 C 30 %
2563 18-04-2020 19:02:18 18.1 C 30 %
2564 18-04-2020 19:12:18 17.9 C 30 %
2565 18-04-2020 19:22:17 17.6 C 30 %
2566 18-04-2020 19:32:17 17.8 C 30 %
2567 18-04-2020 19:42:17 18.1 C 29 %
2568 18-04-2020 19:52:18 17.7 C 30 %
2569 18-04-2020 20:02:17 17.3 C 30 %
2570 18-04-2020 20:12:17 16.5 C 30 %
2571 18-04-2020 20:22:17 15.9 C 31 %
2572 18-04-2020 20:32:17 15 C 32 %
2573 18-04-2020 20:42:17 14.8 C 34 %
2574 18-04-2020 20:52:17 14.5 C 34 %
2575 18-04-2020 21:02:18 14.5 C 35 %
Sensor: Nr:Datum:Temp:Feuchte:
Aussen-T/F 2576 18-04-2020 21:12:18 14.9 C 34 %
2577 18-04-2020 21:22:17 15 C 33 %
2578 18-04-2020 21:32:17 15.1 C 33 %
2579 18-04-2020 21:42:17 15 C 33 %
2580 18-04-2020 21:52:18 14.8 C 34 %
2581 18-04-2020 22:02:17 14.4 C 34 %
2582 18-04-2020 22:12:17 14.5 C 35 %
2583 18-04-2020 22:22:17 13.7 C 35 %
2584 18-04-2020 22:32:18 13.4 C 36 %
2585 18-04-2020 22:42:18 12.8 C 37 %
2586 18-04-2020 22:52:17 12.8 C 37 %
2587 18-04-2020 23:02:18 12.7 C 38 %
2588 18-04-2020 23:12:18 12.3 C 38 %
2589 18-04-2020 23:22:17 12.1 C 38 %
2590 18-04-2020 23:32:17 11.7 C 40 %
2591 18-04-2020 23:42:17 11.1 C 40 %
2592 18-04-2020 23:52:17 10.9 C 42 %
2593 19-04-2020 00:02:18 10.6 C 43 %
2594 19-04-2020 00:12:18 10.7 C 43 %
2595 19-04-2020 00:22:17 10.2 C 43 %
2596 19-04-2020 00:32:17 10.2 C 43 %
2597 19-04-2020 00:42:17 10.1 C 44 %
2598 19-04-2020 00:52:17 9.8 C 44 %
2599 19-04-2020 01:02:17 9.8 C 45 %
2600 19-04-2020 01:12:17 9.9 C 45 %
Sensor: Nr:Datum:Temp:Feuchte:
Aussen-T/F 2601 19-04-2020 01:22:17 9.6 C 44 %
2602 19-04-2020 01:32:17 9.6 C 45 %
2603 19-04-2020 01:42:17 9.9 C 45 %
2604 19-04-2020 01:52:17 9.5 C 45 %
2605 19-04-2020 02:02:17 9.5 C 45 %
2606 19-04-2020 02:12:18 9.6 C 45 %
2607 19-04-2020 02:22:17 9.7 C 45 %
2608 19-04-2020 02:32:17 10 C 45 %
2609 19-04-2020 02:42:17 10 C 44 %
2610 19-04-2020 02:52:17 9.8 C 45 %
2611 19-04-2020 03:02:17 9.6 C 45 %
2612 19-04-2020 03:12:17 9.3 C 44 %
2613 19-04-2020 03:22:17 9.1 C 45 %
2614 19-04-2020 03:32:17 8.9 C 45 %
2615 19-04-2020 03:42:17 8.7 C 45 %
2616 19-04-2020 03:52:17 8.7 C 45 %
2617 19-04-2020 04:02:17 8.5 C 45 %
2618 19-04-2020 04:12:17 9.2 C 45 %
2619 19-04-2020 04:22:17 9.2 C 45 %
2620 19-04-2020 04:32:17 9.4 C 45 %
2621 19-04-2020 04:42:17 9.6 C 45 %
2622 19-04-2020 04:52:17 9.6 C 45 %
2623 19-04-2020 05:02:17 9.7 C 45 %
2624 19-04-2020 05:12:17 9.6 C 45 %
2625 19-04-2020 05:22:18 9.6 C 45 %
Sensor: Nr:Datum:Temp:Feuchte:
Aussen-T/F 2626 19-04-2020 05:32:17 9.7 C 45 %
2627 19-04-2020 05:42:17 9.7 C 45 %
2628 19-04-2020 05:52:17 9.8 C 45 %
2629 19-04-2020 06:02:17 9.9 C 45 %
2630 19-04-2020 06:12:17 10.1 C 44 %
2631 19-04-2020 06:22:17 10.1 C 44 %
2632 19-04-2020 06:32:17 10.2 C 44 %
2633 19-04-2020 06:42:17 10.2 C 44 %
2634 19-04-2020 06:52:18 10.3 C 44 %
2635 19-04-2020 07:02:18 10.3 C 44 %
2636 19-04-2020 07:12:18 10.4 C 44 %
2637 19-04-2020 07:22:17 10.6 C 44 %
2638 19-04-2020 07:32:18 10.5 C 43 %
2639 19-04-2020 07:42:18 10.6 C 43 %
2640 19-04-2020 07:52:17 10.6 C 43 %
2641 19-04-2020 08:02:17 10.7 C 43 %
2642 19-04-2020 08:12:17 11.3 C 42 %
2643 19-04-2020 08:22:17 11.5 C 41 %
2644 19-04-2020 08:32:17 12 C 40 %
2645 19-04-2020 08:42:17 12.4 C 39 %
2646 19-04-2020 08:52:17 13.2 C 37 %
2647 19-04-2020 09:02:17 12.5 C 38 %
2648 19-04-2020 09:12:18 13 C 37 %
2649 19-04-2020 09:22:18 13.2 C 36 %
2650 19-04-2020 09:32:17 13.5 C 36 %
Sensor: Nr:Datum:Temp:Feuchte:
Aussen-T/F 2651 19-04-2020 09:42:17 13.8 C 36 %
2652 19-04-2020 09:52:17 13.8 C 35 %
2653 19-04-2020 10:02:17 13.7 C 35 %
2654 19-04-2020 10:12:17 14.2 C 35 %
2655 19-04-2020 10:22:17 14.7 C 34 %
2656 19-04-2020 10:32:17 15.5 C 33 %
2657 19-04-2020 10:42:17 16.4 C 31 %
2658 19-04-2020 10:52:17 16.4 C 31 %
2659 19-04-2020 11:02:17 15.7 C 32 %
2660 19-04-2020 11:12:17 14.7 C 33 %
2661 19-04-2020 11:22:17 14.7 C 33 %
2662 19-04-2020 11:32:17 14.4 C 34 %
2663 19-04-2020 11:42:17 14 C 34 %
2664 19-04-2020 11:52:17 13.8 C 35 %
2665 19-04-2020 12:02:17 14.2 C 34 %
2666 19-04-2020 12:12:17 14.7 C 34 %
2667 19-04-2020 12:22:17 16 C 31 %
2668 19-04-2020 12:32:18 16 C 31 %
2669 19-04-2020 12:42:18 16.3 C 30 %
2670 19-04-2020 12:52:17 16.9 C 30 %
2671 19-04-2020 13:02:17 17.4 C 28 %
2672 19-04-2020 13:12:17 16.9 C 29 %
2673 19-04-2020 13:22:17 17.4 C 27 %
2674 19-04-2020 13:32:17 18.8 C 26 %
2675 19-04-2020 13:42:17 19.1 C 25 %
Sensor: Nr:Datum:Temp:Feuchte:
Aussen-T/F 2676 19-04-2020 13:52:17 19.3 C 25 %
2677 19-04-2020 14:02:18 18.8 C 25 %
2678 19-04-2020 14:12:18 18.6 C 25 %
2679 19-04-2020 14:22:17 18.1 C 25 %
2680 19-04-2020 14:32:17 17.4 C 26 %
2681 19-04-2020 14:42:17 18 C 26 %
2682 19-04-2020 14:52:17 17.1 C 26 %
2683 19-04-2020 15:02:18 16.9 C 26 %
2684 19-04-2020 15:12:18 16.6 C 26 %
2685 19-04-2020 15:22:17 17 C 25 %
2686 19-04-2020 15:32:17 17.2 C 25 %
2687 19-04-2020 15:42:18 17.8 C 25 %
2688 19-04-2020 15:52:18 18.1 C 24 %
2689 19-04-2020 16:02:17 19.2 C 22 %
2690 19-04-2020 16:12:17 22.2 C 20 %
2691 19-04-2020 16:22:17 20.2 C 20 %
2692 19-04-2020 16:32:17 18.6 C 20 %
2693 19-04-2020 16:42:17 20.5 C 20 %
2694 19-04-2020 16:52:17 21.3 C 20 %
2695 19-04-2020 17:02:17 17.5 C 20 %
2696 19-04-2020 17:12:17 18.6 C 20 %
2697 19-04-2020 17:22:17 19.7 C 20 %
2698 19-04-2020 17:32:18 18.9 C 20 %
2699 19-04-2020 17:42:18 19.2 C 20 %
2700 19-04-2020 17:52:17 18.6 C 20 %
Sensor: Nr:Datum:Temp:Feuchte:
Aussen-T/F 2701 19-04-2020 18:02:18 17.4 C 20 %
2702 19-04-2020 18:12:18 17.3 C 20 %
2703 19-04-2020 18:22:17 17.3 C 20 %
2704 19-04-2020 18:32:17 17.3 C 20 %
2705 19-04-2020 18:42:17 16.8 C 20 %
2706 19-04-2020 18:52:17 16.8 C 20 %
2707 19-04-2020 19:02:17 16.8 C 20 %
2708 19-04-2020 19:12:17 16.7 C 20 %
2709 19-04-2020 19:22:17 16.3 C 20 %
2710 19-04-2020 19:32:18 16 C 20 %
2711 19-04-2020 19:42:18 15.6 C 20 %
2712 19-04-2020 19:52:17 15.1 C 20 %
2713 19-04-2020 20:02:18 14.7 C 20 %
2714 19-04-2020 20:12:18 13.7 C 23 %
2715 19-04-2020 20:22:17 13.3 C 24 %
2716 19-04-2020 20:32:17 13 C 25 %
2717 19-04-2020 20:42:17 12.5 C 26 %
2718 19-04-2020 20:52:17 12.3 C 26 %
2719 19-04-2020 21:02:18 12 C 26 %
2720 19-04-2020 21:12:18 12 C 26 %
2721 19-04-2020 21:22:17 11.7 C 27 %
2722 19-04-2020 21:32:17 11.5 C 27 %
2723 19-04-2020 21:42:17 11.4 C 27 %
2724 19-04-2020 21:52:17 11 C 27 %
2725 19-04-2020 22:02:17 11.2 C 26 %
Sensor: Nr:Datum:Temp:Feuchte:
Aussen-T/F 2726 19-04-2020 22:12:17 11 C 26 %
2727 19-04-2020 22:22:17 11.1 C 26 %
2728 19-04-2020 22:32:17 10.9 C 26 %
2729 19-04-2020 22:42:17 10.3 C 26 %
2730 19-04-2020 22:52:17 10.2 C 26 %
2731 19-04-2020 23:02:18 11.1 C 25 %
2732 19-04-2020 23:12:18 10.1 C 25 %
2733 19-04-2020 23:22:18 9.7 C 27 %
2734 19-04-2020 23:32:17 10.3 C 22 %
2735 19-04-2020 23:42:17 10.3 C 25 %
2736 19-04-2020 23:52:17 10.3 C 23 %
2737 20-04-2020 00:02:17 10.1 C 25 %
2738 20-04-2020 00:12:17 9.6 C 25 %
2739 20-04-2020 00:22:17 10.1 C 21 %
2740 20-04-2020 00:32:18 9.9 C 23 %
2741 20-04-2020 00:42:18 9.6 C 25 %
2742 20-04-2020 00:52:18 9.3 C 25 %
2743 20-04-2020 01:02:17 9.8 C 23 %
2744 20-04-2020 01:12:17 9.3 C 23 %
2745 20-04-2020 01:22:17 9.1 C 21 %
2746 20-04-2020 01:32:17 9.6 C 21 %
2747 20-04-2020 01:42:17 9.1 C 21 %
2748 20-04-2020 01:52:17 8.5 C 25 %
2749 20-04-2020 02:02:18 8.1 C 26 %
2750 20-04-2020 02:12:18 7.9 C 26 %
Sensor: Nr:Datum:Temp:Feuchte:
Aussen-T/F 2751 20-04-2020 02:22:17 7.5 C 27 %
2752 20-04-2020 02:32:18 7.3 C 27 %
2753 20-04-2020 02:42:18 7.3 C 27 %
2754 20-04-2020 02:52:17 7.3 C 27 %
2755 20-04-2020 03:02:17 7 C 27 %
2756 20-04-2020 03:12:17 6.9 C 28 %
2757 20-04-2020 03:22:17 6.7 C 29 %
2758 20-04-2020 03:32:17 6.9 C 28 %
2759 20-04-2020 03:42:17 6.9 C 28 %
2760 20-04-2020 03:52:17 6.7 C 29 %
2761 20-04-2020 04:02:17 6.6 C 28 %
2762 20-04-2020 04:12:17 6.5 C 28 %
2763 20-04-2020 04:22:17 6.4 C 29 %
2764 20-04-2020 04:32:18 6.4 C 28 %
2765 20-04-2020 04:42:18 6.4 C 28 %
2766 20-04-2020 04:52:17 6.2 C 29 %
2767 20-04-2020 05:02:18 6.4 C 29 %
2768 20-04-2020 05:12:18 6.3 C 29 %
2769 20-04-2020 05:22:17 6.3 C 29 %
2770 20-04-2020 05:32:17 6.2 C 30 %
2771 20-04-2020 05:42:18 6.3 C 29 %
2772 20-04-2020 05:52:17 6.3 C 29 %
2773 20-04-2020 06:02:18 6 C 30 %
2774 20-04-2020 06:12:18 5.9 C 30 %
2775 20-04-2020 06:22:17 5.9 C 30 %
Sensor: Nr:Datum:Temp:Feuchte:
Aussen-T/F 2776 20-04-2020 06:32:17 6.1 C 30 %
2777 20-04-2020 06:42:17 6.1 C 30 %
2778 20-04-2020 06:52:17 5.9 C 30 %
2779 20-04-2020 07:02:17 6.1 C 30 %
2780 20-04-2020 07:12:17 6.2 C 30 %
2781 20-04-2020 07:22:17 6.2 C 30 %
2782 20-04-2020 07:32:17 6.4 C 30 %
2783 20-04-2020 07:42:17 7.2 C 27 %
2784 20-04-2020 07:52:17 7.4 C 27 %
2785 20-04-2020 08:02:18 7.3 C 27 %
2786 20-04-2020 08:12:18 7.9 C 26 %
2787 20-04-2020 08:22:17 7.8 C 27 %
2788 20-04-2020 08:32:17 7.7 C 28 %
2789 20-04-2020 08:42:18 7.9 C 26 %
2790 20-04-2020 08:52:18 8.1 C 26 %
2791 20-04-2020 09:02:17 8.3 C 26 %
2792 20-04-2020 09:12:17 8.2 C 27 %
2793 20-04-2020 09:22:17 8.4 C 27 %
2794 20-04-2020 09:32:17 9 C 25 %
2795 20-04-2020 09:42:17 9.4 C 25 %
2796 20-04-2020 09:52:18 9.4 C 26 %
2797 20-04-2020 10:02:18 9.9 C 26 %
2798 20-04-2020 10:12:18 10.7 C 22 %
2799 20-04-2020 10:22:17 11.4 C 20 %
2800 20-04-2020 10:32:17 12.1 C 20 %
Sensor: Nr:Datum:Temp:Feuchte:
Aussen-T/F 2801 20-04-2020 10:42:18 12.7 C 20 %
2802 20-04-2020 10:52:17 13.1 C 20 %
2803 20-04-2020 11:02:18 13.7 C 20 %
2804 20-04-2020 11:12:18 14 C 20 %
2805 20-04-2020 11:22:17 14.4 C 20 %
2806 20-04-2020 11:32:17 14.7 C 20 %
2807 20-04-2020 11:42:18 14.8 C 20 %
2808 20-04-2020 11:52:17 15 C 20 %
2809 20-04-2020 12:02:17 15.2 C 20 %
2810 20-04-2020 12:12:17 15 C 20 %
2811 20-04-2020 12:22:17 15 C 20 %
2812 20-04-2020 12:32:17 15.1 C 20 %
2813 20-04-2020 12:42:17 15.1 C 20 %
2814 20-04-2020 12:52:17 15.4 C 20 %
2815 20-04-2020 13:02:17 15.4 C 20 %
2816 20-04-2020 13:12:17 16 C 20 %
2817 20-04-2020 13:22:17 15.8 C 20 %
2818 20-04-2020 13:32:17 16.1 C 20 %
2819 20-04-2020 13:42:17 16.1 C 20 %
2820 20-04-2020 13:52:17 16.8 C 20 %
2821 20-04-2020 14:02:17 16.9 C 20 %
2822 20-04-2020 14:12:17 17.3 C 20 %
2823 20-04-2020 14:22:17 18.3 C 20 %
2824 20-04-2020 14:32:18 21 C 20 %
2825 20-04-2020 14:42:18 23 C 20 %
Sensor: Nr:Datum:Temp:Feuchte:
Aussen-T/F 2826 20-04-2020 14:52:18 23.2 C 20 %
2827 20-04-2020 15:02:17 22.9 C 20 %
2828 20-04-2020 15:12:17 21.8 C 20 %
2829 20-04-2020 15:22:17 22.9 C 20 %
2830 20-04-2020 15:32:17 23.3 C 20 %
2831 20-04-2020 15:42:17 24.7 C 20 %
2832 20-04-2020 15:52:17 22.5 C 20 %
2833 20-04-2020 16:02:17 24.5 C 20 %
2834 20-04-2020 16:12:17 22.7 C 20 %
2835 20-04-2020 16:22:17 23 C 20 %
2836 20-04-2020 16:32:17 23.5 C 20 %
2837 20-04-2020 16:42:17 23.6 C 20 %
2838 20-04-2020 16:52:17 23.4 C 20 %
2839 20-04-2020 17:02:17 23.7 C 20 %
2840 20-04-2020 17:12:17 22.3 C 20 %
2841 20-04-2020 17:22:17 21.6 C 20 %
2842 20-04-2020 17:32:17 20.4 C 20 %
2843 20-04-2020 17:42:17 22.4 C 20 %
2844 20-04-2020 17:52:17 20.9 C 20 %
2845 20-04-2020 18:02:18 19.1 C 20 %
2846 20-04-2020 18:12:18 19 C 20 %
2847 20-04-2020 18:22:18 18.5 C 20 %
2848 20-04-2020 18:32:17 18.4 C 20 %
2849 20-04-2020 18:42:18 18.2 C 20 %
2850 20-04-2020 18:52:18 18.3 C 20 %
Sensor: Nr:Datum:Temp:Feuchte:
Aussen-T/F 2851 20-04-2020 19:02:17 17.8 C 20 %
2852 20-04-2020 19:12:17 17.6 C 20 %
2853 20-04-2020 19:22:17 17.2 C 20 %
2854 20-04-2020 19:32:17 17 C 20 %
2855 20-04-2020 19:42:17 16.6 C 20 %
2856 20-04-2020 19:52:17 16.3 C 20 %
2857 20-04-2020 20:02:17 16 C 20 %
2858 20-04-2020 20:12:17 15.6 C 20 %
2859 20-04-2020 20:22:17 15 C 20 %
2860 20-04-2020 20:32:17 14.4 C 20 %
2861 20-04-2020 20:42:17 14.5 C 20 %
2862 20-04-2020 20:52:17 13.8 C 20 %
2863 20-04-2020 21:02:17 13.7 C 20 %
2864 20-04-2020 21:12:17 12.9 C 20 %
2865 20-04-2020 21:22:17 12.6 C 20 %
2866 20-04-2020 21:32:17 12 C 20 %
2867 20-04-2020 21:42:17 12.2 C 20 %
2868 20-04-2020 21:52:17 12.6 C 20 %
2869 20-04-2020 22:02:17 11.8 C 20 %
2870 20-04-2020 22:12:17 11.9 C 20 %
2871 20-04-2020 22:22:17 12.1 C 20 %
2872 20-04-2020 22:32:17 12.2 C 20 %
2873 20-04-2020 22:42:17 11.9 C 20 %
2874 20-04-2020 22:52:18 11.5 C 20 %
2875 20-04-2020 23:02:17 11.5 C 20 %
Sensor: Nr:Datum:Temp:Feuchte:
Aussen-T/F 2876 20-04-2020 23:12:17 11.6 C 20 %
2877 20-04-2020 23:22:17 11 C 20 %
2878 20-04-2020 23:32:18 11.6 C 20 %
2879 20-04-2020 23:42:18 11 C 20 %
2880 20-04-2020 23:52:17 11 C 20 %
2881 21-04-2020 00:02:17 10.9 C 20 %
2882 21-04-2020 00:12:17 10.3 C 20 %
2883 21-04-2020 00:22:17 10.4 C 20 %
2884 21-04-2020 00:32:17 9.9 C 20 %
2885 21-04-2020 00:42:17 10.5 C 20 %
2886 21-04-2020 00:52:17 10 C 20 %
2887 21-04-2020 01:02:18 9.4 C 20 %
2888 21-04-2020 01:12:18 8.9 C 20 %
2889 21-04-2020 01:22:18 9 C 20 %
2890 21-04-2020 01:32:18 8.9 C 20 %
2891 21-04-2020 01:42:18 9.2 C 20 %
2892 21-04-2020 01:52:17 8.4 C 20 %
2893 21-04-2020 02:02:17 9.2 C 20 %
2894 21-04-2020 02:12:18 9.1 C 20 %
2895 21-04-2020 02:22:17 9.1 C 20 %
2896 21-04-2020 02:32:18 8.9 C 20 %
2897 21-04-2020 02:42:18 9.2 C 20 %
2898 21-04-2020 02:52:17 9 C 20 %
2899 21-04-2020 03:02:17 9.3 C 20 %
2900 21-04-2020 03:12:17 9.1 C 20 %
Sensor: Nr:Datum:Temp:Feuchte:
Aussen-T/F 2901 21-04-2020 03:22:18 9.2 C 20 %
2902 21-04-2020 03:32:17 9.1 C 20 %
2903 21-04-2020 03:42:17 8.3 C 20 %
2904 21-04-2020 03:52:18 8.6 C 20 %
2905 21-04-2020 04:02:18 8.1 C 20 %
2906 21-04-2020 04:12:18 7.4 C 23 %
2907 21-04-2020 04:22:17 7.8 C 20 %
2908 21-04-2020 04:32:17 7.7 C 23 %
2909 21-04-2020 04:42:17 7.5 C 25 %
2910 21-04-2020 04:52:17 7.5 C 25 %
2911 21-04-2020 05:02:17 7.1 C 25 %
2912 21-04-2020 05:12:17 7.7 C 25 %
2913 21-04-2020 05:22:17 7.3 C 25 %
2914 21-04-2020 05:32:18 7 C 25 %
2915 21-04-2020 05:42:18 6.8 C 26 %
2916 21-04-2020 05:52:17 6.5 C 27 %
2917 21-04-2020 06:02:17 6.9 C 27 %
2918 21-04-2020 06:12:17 6.6 C 27 %
2919 21-04-2020 06:22:18 6.6 C 27 %
2920 21-04-2020 06:32:18 6.3 C 28 %
2921 21-04-2020 06:42:18 6.4 C 28 %
2922 21-04-2020 06:52:17 6.3 C 29 %
2923 21-04-2020 07:02:18 6.1 C 30 %
2924 21-04-2020 07:12:18 6.2 C 29 %
2925 21-04-2020 07:22:17 6.3 C 30 %
Sensor: Nr:Datum:Temp:Feuchte:
Aussen-T/F 2926 21-04-2020 07:32:17 6.5 C 30 %
2927 21-04-2020 07:42:17 7.3 C 27 %
2928 21-04-2020 07:52:17 6.9 C 29 %
2929 21-04-2020 08:02:17 7.4 C 27 %
2930 21-04-2020 08:12:17 7.7 C 26 %
2931 21-04-2020 08:22:17 7.6 C 26 %
2932 21-04-2020 08:32:17 7.2 C 28 %
2933 21-04-2020 08:42:18 7.5 C 27 %
2934 21-04-2020 08:52:17 8.3 C 27 %
2935 21-04-2020 09:02:17 8.7 C 25 %
2936 21-04-2020 09:12:17 9.2 C 23 %
2937 21-04-2020 09:22:17 9.7 C 21 %
2938 21-04-2020 09:32:17 10.2 C 20 %
2939 21-04-2020 09:42:17 10.7 C 20 %
2940 21-04-2020 09:52:17 10.9 C 20 %
2941 21-04-2020 10:02:17 10.9 C 20 %
2942 21-04-2020 10:12:17 11.7 C 20 %
2943 21-04-2020 10:22:17 12.2 C 20 %
2944 21-04-2020 10:32:17 12.8 C 20 %
2945 21-04-2020 10:42:17 13.2 C 20 %
2946 21-04-2020 10:52:17 13.5 C 20 %
2947 21-04-2020 11:02:17 13.9 C 20 %
2948 21-04-2020 11:12:17 14.6 C 20 %
2949 21-04-2020 11:22:17 14.6 C 20 %
2950 21-04-2020 11:32:18 14.7 C 20 %
Sensor: Nr:Datum:Temp:Feuchte:
Aussen-T/F 2951 21-04-2020 11:42:18 15.2 C 20 %
2952 21-04-2020 11:52:18 15.7 C 20 %
2953 21-04-2020 12:02:17 16.4 C 20 %
2954 21-04-2020 12:12:18 16.1 C 20 %
2955 21-04-2020 12:22:17 16.1 C 20 %
2956 21-04-2020 12:32:17 16.2 C 20 %
2957 21-04-2020 12:42:17 16.4 C 20 %
2958 21-04-2020 12:52:17 16.6 C 20 %
2959 21-04-2020 13:02:17 16.9 C 20 %
2960 21-04-2020 13:12:17 17.4 C 20 %
2961 21-04-2020 13:22:17 17.2 C 20 %
2962 21-04-2020 13:32:17 17.3 C 20 %
2963 21-04-2020 13:42:17 17.9 C 20 %
2964 21-04-2020 13:52:17 18.1 C 20 %
2965 21-04-2020 14:02:17 18.5 C 20 %
2966 21-04-2020 14:12:17 19 C 20 %
2967 21-04-2020 14:22:17 19.4 C 20 %
2968 21-04-2020 14:32:17 22 C 20 %
2969 21-04-2020 14:42:17 24.4 C 20 %
2970 21-04-2020 14:52:17 24.2 C 20 %
2971 21-04-2020 15:02:17 24.5 C 20 %
2972 21-04-2020 15:12:17 22.2 C 20 %
2973 21-04-2020 15:22:17 23.7 C 20 %
2974 21-04-2020 15:32:18 23.2 C 20 %
2975 21-04-2020 15:42:18 24 C 20 %
Sensor: Nr:Datum:Temp:Feuchte:
Aussen-T/F 2976 21-04-2020 15:52:17 23.4 C 20 %
2977 21-04-2020 16:02:18 22.8 C 20 %
2978 21-04-2020 16:12:18 23.2 C 20 %
2979 21-04-2020 16:22:17 22.9 C 20 %
2980 21-04-2020 16:32:17 23.2 C 20 %
2981 21-04-2020 16:42:17 24.3 C 20 %
2982 21-04-2020 16:52:17 22.8 C 20 %
2983 21-04-2020 17:02:17 23.6 C 20 %
2984 21-04-2020 17:12:17 24.8 C 20 %
2985 21-04-2020 17:22:18 22.8 C 20 %
2986 21-04-2020 17:32:17 21.9 C 20 %
2987 21-04-2020 17:42:17 22.3 C 20 %
2988 21-04-2020 17:52:17 22.9 C 20 %
2989 21-04-2020 18:02:18 21.1 C 20 %
2990 21-04-2020 18:12:18 20.9 C 20 %
2991 21-04-2020 18:22:17 20.5 C 20 %
2992 21-04-2020 18:32:17 20.3 C 20 %
2993 21-04-2020 18:42:17 20 C 20 %
2994 21-04-2020 18:52:18 20 C 20 %
2995 21-04-2020 19:02:17 19.6 C 20 %
2996 21-04-2020 19:12:17 19.4 C 20 %
2997 21-04-2020 19:22:17 19.1 C 20 %
2998 21-04-2020 19:32:18 18.9 C 20 %
2999 21-04-2020 19:42:18 18.7 C 20 %
3000 21-04-2020 19:52:17 18.3 C 20 %
Sensor: Nr:Datum:Temp:Feuchte:
Aussen-T/F 3001 21-04-2020 20:02:17 17.9 C 20 %
3002 21-04-2020 20:12:17 17.4 C 20 %
3003 21-04-2020 20:22:17 16.7 C 20 %
3004 21-04-2020 20:32:17 16.2 C 20 %
3005 21-04-2020 20:42:17 15.5 C 20 %
3006 21-04-2020 20:52:17 14.8 C 20 %
3007 21-04-2020 21:02:18 14.2 C 20 %
3008 21-04-2020 21:12:18 14.5 C 20 %
3009 21-04-2020 21:22:17 14.1 C 20 %
3010 21-04-2020 21:32:17 13.9 C 20 %
3011 21-04-2020 21:42:17 13.2 C 20 %
3012 21-04-2020 21:52:18 12.9 C 20 %
3013 21-04-2020 22:02:17 13.2 C 20 %
3014 21-04-2020 22:12:17 13 C 20 %
3015 21-04-2020 22:22:17 13.4 C 20 %
3016 21-04-2020 22:32:17 12.6 C 20 %
3017 21-04-2020 22:42:17 12 C 20 %
3018 21-04-2020 22:52:18 11.8 C 20 %
3019 21-04-2020 23:02:18 12.1 C 20 %
3020 21-04-2020 23:12:18 11.8 C 20 %
3021 21-04-2020 23:22:17 11.5 C 20 %
3022 21-04-2020 23:32:18 11.3 C 20 %
3023 21-04-2020 23:42:18 11.3 C 20 %
3024 21-04-2020 23:52:18 11.1 C 20 %
3025 22-04-2020 00:02:18 11.1 C 20 %
Sensor: Nr:Datum:Temp:Feuchte:
Aussen-T/F 3026 22-04-2020 00:12:18 10.6 C 20 %
3027 22-04-2020 00:22:17 11.1 C 20 %
3028 22-04-2020 00:32:18 11.4 C 20 %
3029 22-04-2020 00:42:18 10.9 C 20 %
3030 22-04-2020 00:52:17 11 C 20 %
3031 22-04-2020 01:02:17 10.8 C 20 %
3032 22-04-2020 01:12:17 10 C 21 %
3033 22-04-2020 01:22:17 9.9 C 25 %
3034 22-04-2020 01:32:18 9.7 C 25 %
3035 22-04-2020 01:42:18 10.2 C 21 %
3036 22-04-2020 01:52:17 9.9 C 23 %
3037 22-04-2020 02:02:17 9.9 C 23 %
3038 22-04-2020 02:12:17 9.8 C 25 %
3039 22-04-2020 02:22:17 9.5 C 25 %
3040 22-04-2020 02:32:17 9.3 C 25 %
3041 22-04-2020 02:42:17 9.7 C 25 %
3042 22-04-2020 02:52:17 9.3 C 25 %
3043 22-04-2020 03:02:17 9.5 C 25 %
3044 22-04-2020 03:12:17 9 C 25 %
3045 22-04-2020 03:22:18 8.8 C 26 %
3046 22-04-2020 03:32:18 8.5 C 27 %
3047 22-04-2020 03:42:18 8.4 C 27 %
3048 22-04-2020 03:52:17 8.3 C 27 %
3049 22-04-2020 04:02:18 8.4 C 27 %
3050 22-04-2020 04:12:18 8.3 C 27 %
Sensor: Nr:Datum:Temp:Feuchte:
Aussen-T/F 3051 22-04-2020 04:22:17 8 C 27 %
3052 22-04-2020 04:32:18 7.9 C 27 %
3053 22-04-2020 04:42:18 7.9 C 27 %
3054 22-04-2020 04:52:17 7.4 C 28 %
3055 22-04-2020 05:02:18 7.5 C 28 %
3056 22-04-2020 05:12:18 7.3 C 28 %
3057 22-04-2020 05:22:17 7.1 C 29 %
3058 22-04-2020 05:32:17 7.1 C 29 %
3059 22-04-2020 05:42:18 6.9 C 30 %
3060 22-04-2020 05:52:17 6.7 C 30 %
3061 22-04-2020 06:02:18 6.7 C 30 %
3062 22-04-2020 06:12:18 6.1 C 31 %
3063 22-04-2020 06:22:17 5.8 C 32 %
3064 22-04-2020 06:32:17 5.6 C 33 %
3065 22-04-2020 06:42:17 5.3 C 35 %
3066 22-04-2020 06:52:17 5.6 C 35 %
3067 22-04-2020 07:02:17 5.6 C 35 %
3068 22-04-2020 07:12:17 5.4 C 35 %
3069 22-04-2020 07:22:18 5.9 C 35 %
3070 22-04-2020 07:32:17 5.5 C 35 %
3071 22-04-2020 07:42:17 5.7 C 35 %
3072 22-04-2020 07:52:17 5.9 C 35 %
3073 22-04-2020 08:02:17 6.5 C 34 %
3074 22-04-2020 08:12:17 6.6 C 34 %
3075 22-04-2020 08:22:17 7 C 33 %
Sensor: Nr:Datum:Temp:Feuchte:
Aussen-T/F 3076 22-04-2020 08:32:17 7.5 C 32 %
3077 22-04-2020 08:42:17 8 C 31 %
3078 22-04-2020 08:52:18 8.9 C 30 %
3079 22-04-2020 09:02:18 9.1 C 30 %
3080 22-04-2020 09:12:18 9.1 C 30 %
3081 22-04-2020 09:22:17 10.1 C 26 %
3082 22-04-2020 09:32:17 10.7 C 26 %
3083 22-04-2020 09:42:17 10.7 C 26 %
3084 22-04-2020 09:52:17 11.3 C 24 %
3085 22-04-2020 10:02:17 11.5 C 24 %
3086 22-04-2020 10:12:17 12.5 C 20 %
3087 22-04-2020 10:22:17 13 C 20 %
3088 22-04-2020 10:32:17 13.7 C 20 %
3089 22-04-2020 10:42:17 14.2 C 20 %
3090 22-04-2020 10:52:17 14.8 C 20 %
3091 22-04-2020 11:02:17 15.4 C 20 %
3092 22-04-2020 11:12:17 15.7 C 20 %
3093 22-04-2020 11:22:17 16.2 C 20 %
3094 22-04-2020 11:32:17 16.4 C 20 %
3095 22-04-2020 11:42:17 17.1 C 20 %
3096 22-04-2020 11:52:18 17.1 C 20 %
3097 22-04-2020 12:02:18 17.9 C 20 %
3098 22-04-2020 12:12:18 17.6 C 20 %
3099 22-04-2020 12:22:17 17.7 C 20 %
3100 22-04-2020 12:32:17 17.7 C 20 %
Sensor: Nr:Datum:Temp:Feuchte:
Aussen-T/F 3101 22-04-2020 12:42:17 17.7 C 20 %
3102 22-04-2020 12:52:18 18 C 20 %
3103 22-04-2020 13:02:17 18.6 C 20 %
3104 22-04-2020 13:12:17 19.3 C 20 %
3105 22-04-2020 13:22:17 19 C 20 %
3106 22-04-2020 13:32:17 18.9 C 20 %
3107 22-04-2020 13:42:17 19.1 C 20 %
3108 22-04-2020 13:52:17 19.4 C 20 %
3109 22-04-2020 14:02:17 19.8 C 20 %
3110 22-04-2020 14:12:17 20.3 C 20 %
3111 22-04-2020 14:22:17 21.2 C 20 %
3112 22-04-2020 14:32:17 25.4 C 20 %
3113 22-04-2020 14:42:17 27.1 C 20 %
3114 22-04-2020 14:52:17 25.8 C 20 %
3115 22-04-2020 15:02:17 24.9 C 20 %
3116 22-04-2020 15:12:18 26.4 C 20 %
3117 22-04-2020 15:22:17 27.6 C 20 %
3118 22-04-2020 15:32:17 27 C 20 %
3119 22-04-2020 15:42:17 25.4 C 20 %
3120 22-04-2020 15:52:17 25.7 C 20 %
3121 22-04-2020 16:02:17 25.3 C 20 %
3122 22-04-2020 16:12:17 27.2 C 20 %
3123 22-04-2020 16:22:17 26.8 C 20 %
3124 22-04-2020 16:32:18 27.7 C 20 %
3125 22-04-2020 16:42:18 25.2 C 20 %
Sensor: Nr:Datum:Temp:Feuchte:
Aussen-T/F 3126 22-04-2020 16:52:17 26.3 C 20 %
3127 22-04-2020 17:02:17 25.2 C 20 %
3128 22-04-2020 17:12:17 24.6 C 20 %
3129 22-04-2020 17:22:17 25.1 C 20 %
3130 22-04-2020 17:32:17 25.5 C 20 %
3131 22-04-2020 17:42:17 25.6 C 20 %
3132 22-04-2020 17:52:17 25.2 C 20 %
3133 22-04-2020 18:02:17 23.1 C 20 %
3134 22-04-2020 18:12:17 22 C 20 %
3135 22-04-2020 18:22:17 22.1 C 20 %
3136 22-04-2020 18:32:17 21.9 C 20 %
3137 22-04-2020 18:42:17 21.9 C 20 %
3138 22-04-2020 18:52:17 21.6 C 20 %
3139 22-04-2020 19:02:17 21.1 C 20 %
3140 22-04-2020 19:12:17 21.2 C 20 %
3141 22-04-2020 19:22:17 20.8 C 20 %
3142 22-04-2020 19:32:18 20.4 C 20 %
3143 22-04-2020 19:42:18 20.3 C 20 %
3144 22-04-2020 19:52:17 20 C 20 %
3145 22-04-2020 20:02:18 19.4 C 20 %
3146 22-04-2020 20:12:18 18.4 C 20 %
3147 22-04-2020 20:22:17 17 C 20 %
3148 22-04-2020 20:32:17 16.3 C 20 %
3149 22-04-2020 20:42:17 16.2 C 20 %
3150 22-04-2020 20:52:17 15.9 C 20 %
Sensor: Nr:Datum:Temp:Feuchte:
Aussen-T/F 3151 22-04-2020 21:02:17 15.7 C 20 %
3152 22-04-2020 21:12:17 15 C 20 %
3153 22-04-2020 21:22:17 14.6 C 20 %
3154 22-04-2020 21:32:17 14.4 C 20 %
3155 22-04-2020 21:42:17 14.4 C 20 %
3156 22-04-2020 21:52:17 14.1 C 20 %
3157 22-04-2020 22:02:17 13.7 C 20 %
3158 22-04-2020 22:12:17 13.8 C 20 %
3159 22-04-2020 22:22:17 14.2 C 20 %
3160 22-04-2020 22:32:17 13.6 C 20 %
3161 22-04-2020 22:42:17 13.5 C 20 %
3162 22-04-2020 22:52:18 13.5 C 20 %
3163 22-04-2020 23:02:17 13.7 C 20 %
3164 22-04-2020 23:12:17 13.5 C 20 %
3165 22-04-2020 23:22:17 13.2 C 20 %
3166 22-04-2020 23:32:17 12.9 C 20 %
3167 22-04-2020 23:42:17 13.2 C 20 %
3168 22-04-2020 23:52:18 12.8 C 20 %
3169 23-04-2020 00:02:17 12.6 C 20 %
3170 23-04-2020 00:12:17 12.4 C 20 %
3171 23-04-2020 00:22:17 12.4 C 20 %
3172 23-04-2020 00:32:17 12.2 C 20 %
3173 23-04-2020 00:42:17 12.2 C 20 %
3174 23-04-2020 00:52:17 12.3 C 20 %
3175 23-04-2020 01:02:17 12.1 C 20 %
Sensor: Nr:Datum:Temp:Feuchte:
Aussen-T/F 3176 23-04-2020 01:12:17 11.9 C 20 %
3177 23-04-2020 01:22:18 11 C 20 %
3178 23-04-2020 01:32:17 12 C 20 %
3179 23-04-2020 01:42:17 10.9 C 20 %
3180 23-04-2020 01:52:17 10.5 C 22 %
3181 23-04-2020 02:02:17 9.7 C 25 %
3182 23-04-2020 02:12:17 9.7 C 26 %
3183 23-04-2020 02:22:18 9.7 C 25 %
3184 23-04-2020 02:32:17 9.8 C 26 %
3185 23-04-2020 02:42:17 9.6 C 25 %
3186 23-04-2020 02:52:17 9.3 C 26 %
3187 23-04-2020 03:02:18 9.2 C 26 %
3188 23-04-2020 03:12:18 9.2 C 26 %
3189 23-04-2020 03:22:17 9.4 C 26 %
3190 23-04-2020 03:32:17 9.4 C 26 %
3191 23-04-2020 03:42:17 9.3 C 26 %
3192 23-04-2020 03:52:17 9.1 C 26 %
3193 23-04-2020 04:02:17 8.6 C 27 %
3194 23-04-2020 04:12:17 8.1 C 29 %
3195 23-04-2020 04:22:17 7.5 C 30 %
3196 23-04-2020 04:32:17 7.2 C 32 %
3197 23-04-2020 04:42:17 7.2 C 32 %
3198 23-04-2020 04:52:17 6.9 C 33 %
3199 23-04-2020 05:02:17 6.4 C 34 %
3200 23-04-2020 05:12:17 6.2 C 34 %
Sensor: Nr:Datum:Temp:Feuchte:
Aussen-T/F 3201 23-04-2020 05:22:17 5.9 C 35 %
3202 23-04-2020 05:32:17 6 C 35 %
3203 23-04-2020 05:42:17 6 C 35 %
3204 23-04-2020 05:52:17 5.8 C 36 %
3205 23-04-2020 06:02:17 5.8 C 36 %
3206 23-04-2020 06:12:18 5.4 C 36 %
3207 23-04-2020 06:22:17 5.4 C 36 %
3208 23-04-2020 06:32:18 5.3 C 36 %
3209 23-04-2020 06:42:18 5.3 C 36 %
3210 23-04-2020 06:52:17 5.3 C 36 %
3211 23-04-2020 07:02:17 5.3 C 37 %
3212 23-04-2020 07:12:17 5.3 C 37 %
3213 23-04-2020 07:22:17 5.2 C 37 %
3214 23-04-2020 07:32:17 5.2 C 39 %
3215 23-04-2020 07:42:17 5.2 C 39 %
3216 23-04-2020 07:52:17 5.3 C 39 %
3217 23-04-2020 08:02:17 5.4 C 39 %
3218 23-04-2020 08:12:18 5.5 C 39 %
3219 23-04-2020 08:22:18 5.9 C 39 %
3220 23-04-2020 08:32:18 6.2 C 38 %
3221 23-04-2020 08:42:18 6.5 C 38 %
3222 23-04-2020 08:52:17 6.9 C 38 %
3223 23-04-2020 09:02:17 7.7 C 36 %
3224 23-04-2020 09:12:17 8.1 C 36 %
3225 23-04-2020 09:22:17 8.6 C 35 %
Sensor: Nr:Datum:Temp:Feuchte:
Aussen-T/F 3226 23-04-2020 09:32:17 9.2 C 35 %
3227 23-04-2020 09:42:17 9.7 C 34 %
3228 23-04-2020 09:52:17 9.9 C 34 %
3229 23-04-2020 10:02:18 10.5 C 33 %
3230 23-04-2020 10:12:18 11 C 32 %
3231 23-04-2020 10:22:17 11.8 C 30 %
3232 23-04-2020 10:32:17 12.7 C 28 %
3233 23-04-2020 10:42:17 13.2 C 27 %
3234 23-04-2020 10:52:17 14.8 C 22 %
3235 23-04-2020 11:02:18 16 C 20 %
3236 23-04-2020 11:12:18 16.3 C 20 %
3237 23-04-2020 11:22:17 17.2 C 20 %
3238 23-04-2020 11:32:17 17.4 C 20 %
3239 23-04-2020 11:42:17 17.7 C 20 %
3240 23-04-2020 11:52:18 17.9 C 20 %
3241 23-04-2020 12:02:17 18.9 C 20 %
3242 23-04-2020 12:12:17 18.2 C 20 %
3243 23-04-2020 12:22:17 18 C 20 %
3244 23-04-2020 12:32:18 18.5 C 20 %
3245 23-04-2020 12:42:18 18.3 C 20 %
3246 23-04-2020 12:52:17 18.4 C 20 %
3247 23-04-2020 13:02:17 19.2 C 20 %
3248 23-04-2020 13:12:17 19.5 C 20 %
3249 23-04-2020 13:22:17 19.1 C 20 %
3250 23-04-2020 13:32:17 19.2 C 20 %
Sensor: Nr:Datum:Temp:Feuchte:
Aussen-T/F 3251 23-04-2020 13:42:17 19.7 C 20 %
3252 23-04-2020 13:52:17 20.1 C 20 %
3253 23-04-2020 14:02:17 20.4 C 20 %
3254 23-04-2020 14:12:17 20.7 C 20 %
3255 23-04-2020 14:22:17 21.6 C 20 %
3256 23-04-2020 14:32:17 27.4 C 20 %
3257 23-04-2020 14:42:17 29.1 C 20 %
3258 23-04-2020 14:52:17 29 C 20 %
3259 23-04-2020 15:02:17 29.3 C 20 %
3260 23-04-2020 15:12:17 29.5 C 20 %
3261 23-04-2020 15:22:18 28.8 C 20 %
3262 23-04-2020 15:32:17 30.3 C 20 %
3263 23-04-2020 15:42:17 31.4 C 20 %
3264 23-04-2020 15:52:17 28.9 C 20 %
3265 23-04-2020 16:02:18 27.7 C 20 %
3266 23-04-2020 16:12:18 28.1 C 20 %
3267 23-04-2020 16:22:17 28.4 C 20 %
3268 23-04-2020 16:32:18 28.3 C 20 %
3269 23-04-2020 16:42:18 29 C 20 %
3270 23-04-2020 16:52:17 29.2 C 20 %
3271 23-04-2020 17:02:17 31.6 C 20 %
3272 23-04-2020 17:12:18 28.2 C 20 %
3273 23-04-2020 17:22:17 28.6 C 20 %
3274 23-04-2020 17:32:18 28.1 C 20 %
3275 23-04-2020 17:42:18 28 C 20 %
Sensor: Nr:Datum:Temp:Feuchte:
Aussen-T/F 3276 23-04-2020 17:52:18 30.1 C 20 %
3277 23-04-2020 18:02:17 27.1 C 20 %
3278 23-04-2020 18:12:17 24.5 C 20 %
3279 23-04-2020 18:22:17 23.9 C 20 %
3280 23-04-2020 18:32:17 23.6 C 20 %
3281 23-04-2020 18:42:17 23.7 C 20 %
3282 23-04-2020 18:52:17 23.2 C 20 %
3283 23-04-2020 19:02:17 22.5 C 20 %
3284 23-04-2020 19:12:17 22.4 C 20 %
3285 23-04-2020 19:22:17 22 C 20 %
3286 23-04-2020 19:32:18 21.2 C 20 %
3287 23-04-2020 19:42:18 20 C 20 %
3288 23-04-2020 19:52:17 18.6 C 20 %
3289 23-04-2020 20:02:18 18.6 C 20 %
3290 23-04-2020 20:12:18 17.9 C 20 %
3291 23-04-2020 20:22:17 17.2 C 20 %
3292 23-04-2020 20:32:18 16.5 C 20 %
3293 23-04-2020 20:42:18 15.5 C 20 %
3294 23-04-2020 20:52:18 14.3 C 20 %
3295 23-04-2020 21:02:18 14 C 20 %
3296 23-04-2020 21:12:18 14.1 C 20 %
3297 23-04-2020 21:22:17 13.5 C 20 %
3298 23-04-2020 21:32:17 13.1 C 20 %
3299 23-04-2020 21:42:17 12.9 C 20 %
3300 23-04-2020 21:52:17 12.5 C 20 %
Sensor: Nr:Datum:Temp:Feuchte:
Aussen-T/F 3301 23-04-2020 22:02:17 12 C 23 %
3302 23-04-2020 22:12:17 11.6 C 25 %
3303 23-04-2020 22:22:17 11.5 C 25 %
3304 23-04-2020 22:32:18 11 C 26 %
3305 23-04-2020 22:42:18 11.1 C 26 %
3306 23-04-2020 22:52:18 10.8 C 26 %
3307 23-04-2020 23:02:18 10.4 C 27 %
3308 23-04-2020 23:12:18 10.3 C 27 %
3309 23-04-2020 23:22:18 9.6 C 29 %
3310 23-04-2020 23:32:17 9.6 C 29 %
3311 23-04-2020 23:42:17 9.6 C 29 %
3312 23-04-2020 23:52:17 9.2 C 30 %
3313 24-04-2020 00:02:18 9.2 C 30 %
3314 24-04-2020 00:12:18 9.3 C 30 %
3315 24-04-2020 00:22:17 9.2 C 30 %
3316 24-04-2020 00:32:18 8.6 C 31 %
3317 24-04-2020 00:42:18 8.4 C 31 %
3318 24-04-2020 00:52:17 8.3 C 32 %
3319 24-04-2020 01:02:18 8.1 C 32 %
3320 24-04-2020 01:12:18 8.3 C 33 %
3321 24-04-2020 01:22:17 8.1 C 32 %
3322 24-04-2020 01:32:18 8.1 C 33 %
3323 24-04-2020 01:42:18 8.2 C 33 %
3324 24-04-2020 01:52:17 7.8 C 33 %
3325 24-04-2020 02:02:17 7.5 C 34 %
Sensor: Nr:Datum:Temp:Feuchte:
Aussen-T/F 3326 24-04-2020 02:12:17 7.1 C 34 %
3327 24-04-2020 02:22:17 7 C 35 %
3328 24-04-2020 02:32:18 7.2 C 35 %
3329 24-04-2020 02:42:18 6.8 C 36 %
3330 24-04-2020 02:52:18 7 C 35 %
3331 24-04-2020 03:02:17 7 C 35 %
3332 24-04-2020 03:12:18 6.8 C 36 %
3333 24-04-2020 03:22:17 6.2 C 36 %
3334 24-04-2020 03:32:17 6.4 C 37 %
3335 24-04-2020 03:42:17 6.3 C 37 %
3336 24-04-2020 03:52:17 6.2 C 37 %
3337 24-04-2020 04:02:17 6.2 C 37 %
3338 24-04-2020 04:12:17 6.1 C 37 %
3339 24-04-2020 04:22:17 6 C 37 %
3340 24-04-2020 04:32:17 5.9 C 38 %
3341 24-04-2020 04:42:17 6.2 C 38 %
3342 24-04-2020 04:52:17 6.3 C 38 %
3343 24-04-2020 05:02:17 6.2 C 38 %
3344 24-04-2020 05:12:17 6 C 38 %
3345 24-04-2020 05:22:17 5.9 C 39 %
3346 24-04-2020 05:32:18 6.3 C 38 %
3347 24-04-2020 05:42:18 6.2 C 38 %
3348 24-04-2020 05:52:17 6.1 C 38 %
3349 24-04-2020 06:02:17 6.1 C 38 %
3350 24-04-2020 06:12:17 5.9 C 39 %
Sensor: Nr:Datum:Temp:Feuchte:
Aussen-T/F 3351 24-04-2020 06:22:18 6 C 39 %
3352 24-04-2020 06:32:17 6 C 38 %
3353 24-04-2020 06:42:17 6 C 39 %
3354 24-04-2020 06:52:17 6.2 C 39 %
3355 24-04-2020 07:02:17 6.3 C 38 %
3356 24-04-2020 07:12:17 6.3 C 39 %
3357 24-04-2020 07:22:17 6.3 C 39 %
3358 24-04-2020 07:32:18 6.3 C 39 %
3359 24-04-2020 07:42:18 6.5 C 39 %
3360 24-04-2020 07:52:17 6.7 C 39 %
3361 24-04-2020 08:02:18 6.8 C 39 %
3362 24-04-2020 08:12:18 7.3 C 38 %
3363 24-04-2020 08:22:17 8.2 C 36 %
3364 24-04-2020 08:32:17 9 C 35 %
3365 24-04-2020 08:42:17 9.6 C 35 %
3366 24-04-2020 08:52:17 9.9 C 34 %
3367 24-04-2020 09:02:17 10.4 C 33 %
3368 24-04-2020 09:12:18 11 C 32 %
3369 24-04-2020 09:22:17 11.5 C 31 %
3370 24-04-2020 09:32:18 11.9 C 31 %
3371 24-04-2020 09:42:18 12.5 C 30 %
3372 24-04-2020 09:52:17 12.4 C 30 %
3373 24-04-2020 10:02:17 12.8 C 30 %
3374 24-04-2020 10:12:17 13.1 C 29 %
3375 24-04-2020 10:22:17 14 C 28 %
Sensor: Nr:Datum:Temp:Feuchte:
Aussen-T/F 3376 24-04-2020 10:32:17 14.2 C 28 %
3377 24-04-2020 10:42:17 14.6 C 27 %
3378 24-04-2020 10:52:17 15 C 26 %
3379 24-04-2020 11:02:17 15.6 C 26 %
3380 24-04-2020 11:12:18 15.6 C 26 %
3381 24-04-2020 11:22:17 16.5 C 25 %
3382 24-04-2020 11:32:18 16.6 C 24 %
3383 24-04-2020 11:42:18 17 C 24 %
3384 24-04-2020 11:52:17 17 C 23 %
3385 24-04-2020 12:02:17 17.9 C 23 %
3386 24-04-2020 12:12:17 18.1 C 21 %
3387 24-04-2020 12:22:17 18.2 C 21 %
3388 24-04-2020 12:32:18 18.4 C 21 %
3389 24-04-2020 12:42:18 18.9 C 20 %
3390 24-04-2020 12:52:18 19.3 C 20 %
3391 24-04-2020 13:02:17 19.6 C 20 %
3392 24-04-2020 13:12:17 20.2 C 20 %
3393 24-04-2020 13:22:17 20.5 C 20 %
3394 24-04-2020 13:32:18 20.7 C 20 %
3395 24-04-2020 13:42:18 21 C 20 %
3396 24-04-2020 13:52:17 21.3 C 20 %
3397 24-04-2020 14:02:17 21.8 C 20 %
3398 24-04-2020 14:12:17 22.2 C 20 %
3399 24-04-2020 14:22:17 23.5 C 20 %
3400 24-04-2020 14:32:17 26.8 C 20 %
Sensor: Nr:Datum:Temp:Feuchte:
Aussen-T/F 3401 24-04-2020 14:42:17 28.5 C 20 %
3402 24-04-2020 14:52:17 27.1 C 20 %
3403 24-04-2020 15:02:18 28 C 20 %
3404 24-04-2020 15:12:18 31 C 20 %
3405 24-04-2020 15:22:17 27.6 C 20 %
3406 24-04-2020 15:32:17 28.1 C 20 %
3407 24-04-2020 15:42:18 27.5 C 20 %
3408 24-04-2020 15:52:17 28.8 C 20 %
3409 24-04-2020 16:02:18 28.7 C 20 %
3410 24-04-2020 16:12:18 28.7 C 20 %
3411 24-04-2020 16:22:18 27.2 C 20 %
3412 24-04-2020 16:32:18 26.8 C 20 %
3413 24-04-2020 16:42:18 28 C 20 %
3414 24-04-2020 16:52:17 26.3 C 20 %
3415 24-04-2020 17:02:17 26 C 20 %
3416 24-04-2020 17:12:17 26.7 C 20 %
3417 24-04-2020 17:22:18 26.4 C 20 %
3418 24-04-2020 17:32:18 26.3 C 20 %
3419 24-04-2020 17:42:18 24.2 C 20 %
3420 24-04-2020 17:52:17 26 C 20 %
3421 24-04-2020 18:02:18 24.1 C 20 %
3422 24-04-2020 18:12:18 22.3 C 20 %
3423 24-04-2020 18:22:17 22.2 C 20 %
3424 24-04-2020 18:32:17 22 C 20 %
3425 24-04-2020 18:42:17 20.9 C 20 %
Sensor: Nr:Datum:Temp:Feuchte:
Aussen-T/F 3426 24-04-2020 18:52:18 21 C 20 %
3427 24-04-2020 19:02:17 20.5 C 20 %
3428 24-04-2020 19:12:17 20.3 C 20 %
3429 24-04-2020 19:23:17 20 C 20 %
3430 24-04-2020 19:32:17 19.9 C 20 %
3431 24-04-2020 19:42:18 19.6 C 20 %
3432 24-04-2020 19:53:17 19.2 C 20 %
3433 24-04-2020 20:02:18 19 C 20 %
3434 24-04-2020 20:12:18 18.5 C 20 %
3435 24-04-2020 20:22:17 17.7 C 20 %
3436 24-04-2020 20:32:18 17.3 C 20 %
3437 24-04-2020 20:42:18 16.8 C 20 %
3438 24-04-2020 20:52:18 16.1 C 20 %
3439 24-04-2020 21:02:18 15.9 C 20 %
3440 24-04-2020 21:12:18 15.5 C 20 %
3441 24-04-2020 21:23:17 15.4 C 20 %
3442 24-04-2020 21:33:17 15 C 20 %
3443 24-04-2020 21:42:17 15.1 C 20 %
3444 24-04-2020 21:52:17 14.7 C 20 %
3445 24-04-2020 22:03:17 14.4 C 20 %
3446 24-04-2020 22:13:17 14.1 C 20 %
3447 24-04-2020 22:22:18 14.2 C 20 %
3448 24-04-2020 22:32:18 14.4 C 20 %
3449 24-04-2020 22:42:18 13.9 C 20 %
3450 24-04-2020 22:52:18 13.3 C 20 %
Sensor: Nr:Datum:Temp:Feuchte:
Aussen-T/F 3451 24-04-2020 23:02:18 13.2 C 20 %
3452 24-04-2020 23:12:18 13.2 C 20 %
3453 24-04-2020 23:22:17 12.7 C 20 %
3454 24-04-2020 23:33:17 12.5 C 20 %
3455 24-04-2020 23:43:17 13 C 20 %
3456 24-04-2020 23:53:17 12.4 C 20 %
3457 25-04-2020 00:02:18 12.6 C 20 %
3458 25-04-2020 00:12:18 12.7 C 20 %
3459 25-04-2020 00:23:17 12.6 C 20 %
3460 25-04-2020 00:32:18 12.3 C 20 %
3461 25-04-2020 00:42:18 11.8 C 20 %
3462 25-04-2020 00:52:18 11.7 C 20 %
3463 25-04-2020 01:03:17 11.7 C 20 %
3464 25-04-2020 01:12:17 11.7 C 20 %
3465 25-04-2020 01:23:17 11.3 C 22 %
3466 25-04-2020 01:33:17 11 C 25 %
3467 25-04-2020 01:43:17 11.1 C 25 %
3468 25-04-2020 01:52:17 11.1 C 25 %
3469 25-04-2020 02:02:18 10.4 C 26 %
3470 25-04-2020 02:12:18 10.3 C 26 %
3471 25-04-2020 02:23:17 9.7 C 29 %
3472 25-04-2020 02:33:17 9.5 C 29 %
3473 25-04-2020 02:43:17 9.4 C 30 %
3474 25-04-2020 02:53:17 9.8 C 29 %
3475 25-04-2020 03:03:17 10.1 C 28 %
Sensor: Nr:Datum:Temp:Feuchte:
Aussen-T/F 3476 25-04-2020 03:13:17 10 C 28 %
3477 25-04-2020 03:22:18 10 C 28 %
3478 25-04-2020 03:33:17 9.7 C 30 %
3479 25-04-2020 03:43:17 9 C 30 %
3480 25-04-2020 03:53:17 9 C 30 %
3481 25-04-2020 04:02:18 9.3 C 30 %
3482 25-04-2020 04:12:18 8.9 C 30 %
3483 25-04-2020 04:23:17 8.9 C 30 %
3484 25-04-2020 04:33:18 8.7 C 31 %
3485 25-04-2020 04:42:18 8.2 C 32 %
3486 25-04-2020 04:53:17 8.3 C 33 %
3487 25-04-2020 05:03:17 8.1 C 33 %
3488 25-04-2020 05:13:18 7.5 C 35 %
3489 25-04-2020 05:23:18 7 C 36 %
3490 25-04-2020 05:32:18 7.1 C 37 %
3491 25-04-2020 05:42:18 7.2 C 38 %
3492 25-04-2020 05:53:18 7.6 C 38 %
3493 25-04-2020 06:02:18 8 C 36 %
3494 25-04-2020 06:12:18 8.2 C 36 %
3495 25-04-2020 06:23:17 8.3 C 36 %
3496 25-04-2020 06:33:17 8.3 C 36 %
3497 25-04-2020 06:43:18 8.4 C 35 %
3498 25-04-2020 06:53:17 8.3 C 35 %
3499 25-04-2020 07:03:18 8.3 C 35 %
3500 25-04-2020 07:12:18 8.4 C 35 %
Sensor: Nr:Datum:Temp:Feuchte:
Aussen-T/F 3501 25-04-2020 07:23:17 8.3 C 35 %
3502 25-04-2020 07:32:18 8.4 C 35 %
3503 25-04-2020 07:42:18 8.4 C 35 %
3504 25-04-2020 07:52:18 8.4 C 35 %
3505 25-04-2020 08:03:17 8.4 C 34 %
3506 25-04-2020 08:13:17 8.7 C 34 %
3507 25-04-2020 08:23:17 8.6 C 34 %
3508 25-04-2020 08:33:17 8.7 C 34 %
3509 25-04-2020 08:43:17 8.8 C 34 %
3510 25-04-2020 08:53:17 8.8 C 32 %
3511 25-04-2020 09:03:17 9.3 C 32 %
3512 25-04-2020 09:13:17 9.6 C 31 %
3513 25-04-2020 09:23:17 9.7 C 31 %
3514 25-04-2020 09:33:17 9.8 C 31 %
3515 25-04-2020 09:43:17 10.2 C 30 %
3516 25-04-2020 09:53:17 10.4 C 30 %
3517 25-04-2020 10:03:17 10.8 C 30 %
3518 25-04-2020 10:13:17 10.5 C 28 %
3519 25-04-2020 10:23:17 11 C 28 %
3520 25-04-2020 10:32:18 11.1 C 27 %
3521 25-04-2020 10:42:18 10.5 C 27 %
3522 25-04-2020 10:53:17 11.5 C 26 %
3523 25-04-2020 11:03:17 12.4 C 25 %
3524 25-04-2020 11:13:18 12 C 24 %
3525 25-04-2020 11:23:17 10.9 C 25 %
Sensor: Nr:Datum:Temp:Feuchte:
Aussen-T/F 3526 25-04-2020 11:32:18 11.6 C 25 %
3527 25-04-2020 11:42:18 11.2 C 25 %
3528 25-04-2020 11:53:17 11.8 C 25 %
3529 25-04-2020 12:03:18 11.2 C 25 %
3530 25-04-2020 12:13:18 11.5 C 25 %
3531 25-04-2020 12:23:18 11.7 C 25 %
3532 25-04-2020 12:33:17 11.7 C 25 %
3533 25-04-2020 12:43:18 11.4 C 25 %
3534 25-04-2020 12:53:17 12.3 C 24 %
3535 25-04-2020 13:03:17 12.4 C 22 %
3536 25-04-2020 13:13:17 12.5 C 23 %
3537 25-04-2020 13:23:17 13.2 C 21 %
3538 25-04-2020 13:33:17 13.1 C 21 %
3539 25-04-2020 13:43:17 13.2 C 21 %
3540 25-04-2020 13:53:17 13.7 C 20 %
3541 25-04-2020 14:03:17 13.8 C 20 %
3542 25-04-2020 14:13:17 14.1 C 20 %
3543 25-04-2020 14:23:17 15.8 C 20 %
3544 25-04-2020 14:33:17 21 C 20 %
3545 25-04-2020 14:43:17 22.5 C 20 %
3546 25-04-2020 14:53:17 20.7 C 20 %
3547 25-04-2020 15:03:17 23.8 C 20 %
3548 25-04-2020 15:13:17 23.8 C 20 %
3549 25-04-2020 15:23:17 23.7 C 20 %
3550 25-04-2020 15:33:18 25.7 C 20 %
Sensor: Nr:Datum:Temp:Feuchte:
Aussen-T/F 3551 25-04-2020 15:43:18 25.7 C 20 %
3552 25-04-2020 15:53:18 26.3 C 20 %
3553 25-04-2020 16:03:17 23.2 C 20 %
3554 25-04-2020 16:13:17 24.8 C 20 %
3555 25-04-2020 16:23:17 23.9 C 20 %
3556 25-04-2020 16:33:17 25.3 C 20 %
3557 25-04-2020 16:43:17 22.5 C 20 %
3558 25-04-2020 16:53:17 23.9 C 20 %
3559 25-04-2020 17:03:17 25.1 C 20 %
3560 25-04-2020 17:13:17 25.9 C 20 %
3561 25-04-2020 17:23:17 26.4 C 20 %
3562 25-04-2020 17:33:18 27.1 C 20 %
3563 25-04-2020 17:43:18 22.5 C 20 %
3564 25-04-2020 17:53:17 23.3 C 20 %
3565 25-04-2020 18:03:17 20.1 C 20 %
3566 25-04-2020 18:13:17 18.5 C 20 %
3567 25-04-2020 18:23:17 18.6 C 20 %
3568 25-04-2020 18:33:17 18.3 C 20 %
3569 25-04-2020 18:43:17 17.9 C 20 %
3570 25-04-2020 18:53:17 17.7 C 20 %
3571 25-04-2020 19:03:17 17.5 C 20 %
3572 25-04-2020 19:13:17 17.1 C 20 %
3573 25-04-2020 19:23:17 16.9 C 20 %
3574 25-04-2020 19:33:17 16.4 C 20 %
3575 25-04-2020 19:43:18 16.2 C 20 %
Sensor: Nr:Datum:Temp:Feuchte:
Aussen-T/F 3576 25-04-2020 19:53:17 15.7 C 20 %
3577 25-04-2020 20:03:18 15.4 C 20 %
3578 25-04-2020 20:13:18 14.7 C 20 %
3579 25-04-2020 20:23:17 13.9 C 20 %
3580 25-04-2020 20:33:17 13.8 C 20 %
3581 25-04-2020 20:43:17 12.7 C 20 %
3582 25-04-2020 20:53:17 12.4 C 20 %
3583 25-04-2020 21:03:18 12.1 C 20 %
3584 25-04-2020 21:13:18 12 C 20 %
3585 25-04-2020 21:23:17 11.4 C 21 %
3586 25-04-2020 21:33:17 11.1 C 22 %
3587 25-04-2020 21:43:18 11.2 C 21 %
3588 25-04-2020 21:53:17 11 C 22 %
3589 25-04-2020 22:03:17 11 C 22 %
3590 25-04-2020 22:13:17 10.9 C 23 %
3591 25-04-2020 22:23:17 10.1 C 25 %
3592 25-04-2020 22:33:17 10.1 C 25 %
3593 25-04-2020 22:43:17 9.9 C 26 %
3594 25-04-2020 22:53:18 9.8 C 27 %
3595 25-04-2020 23:03:17 9.6 C 27 %
3596 25-04-2020 23:13:17 9.5 C 27 %
3597 25-04-2020 23:23:17 9.1 C 28 %
3598 25-04-2020 23:33:18 8.7 C 30 %
3599 25-04-2020 23:43:18 8.2 C 31 %
3600 25-04-2020 23:53:17 7.7 C 32 %
Sensor: Nr:Datum:Temp:Feuchte:
Aussen-T/F 3601 26-04-2020 00:03:18 7.1 C 33 %
3602 26-04-2020 00:13:18 6.8 C 35 %
3603 26-04-2020 00:23:17 6.6 C 35 %
3604 26-04-2020 00:33:18 6.3 C 35 %
3605 26-04-2020 00:43:18 6.2 C 36 %
3606 26-04-2020 00:53:17 5.9 C 37 %
3607 26-04-2020 01:03:17 5.8 C 37 %
3608 26-04-2020 01:13:18 5.5 C 38 %
3609 26-04-2020 01:23:17 5.6 C 38 %
3610 26-04-2020 01:33:17 5.2 C 38 %
3611 26-04-2020 01:43:17 5.1 C 38 %
3612 26-04-2020 01:53:17 5.1 C 39 %
3613 26-04-2020 02:03:17 4.7 C 40 %
3614 26-04-2020 02:13:17 4.7 C 40 %
3615 26-04-2020 02:23:17 4.6 C 40 %
3616 26-04-2020 02:33:17 4.5 C 40 %
3617 26-04-2020 02:43:17 4.8 C 41 %
3618 26-04-2020 02:53:18 4.7 C 41 %
3619 26-04-2020 03:03:17 4.4 C 41 %
3620 26-04-2020 03:13:18 4.3 C 41 %
3621 26-04-2020 03:23:17 4.1 C 41 %
3622 26-04-2020 03:33:18 4 C 41 %
3623 26-04-2020 03:43:18 3.8 C 42 %
3624 26-04-2020 03:53:17 3.6 C 43 %
3625 26-04-2020 04:03:18 3.9 C 44 %
Sensor: Nr:Datum:Temp:Feuchte:
Aussen-T/F 3626 26-04-2020 04:13:18 3.6 C 43 %
3627 26-04-2020 04:23:17 3.4 C 43 %
3628 26-04-2020 04:33:17 3.2 C 43 %
3629 26-04-2020 04:43:17 3.3 C 44 %
3630 26-04-2020 04:53:17 3.1 C 44 %
3631 26-04-2020 05:03:18 3.1 C 45 %
3632 26-04-2020 05:13:18 3 C 44 %
3633 26-04-2020 05:23:17 2.7 C 45 %
3634 26-04-2020 05:33:17 2.6 C 45 %
3635 26-04-2020 05:43:17 2.7 C 46 %
3636 26-04-2020 05:53:17 2.5 C 46 %
3637 26-04-2020 06:03:17 2.3 C 46 %
3638 26-04-2020 06:13:17 2.4 C 46 %
3639 26-04-2020 06:23:17 2.4 C 46 %
3640 26-04-2020 06:33:17 2.4 C 46 %
3641 26-04-2020 06:43:18 2.3 C 46 %
3642 26-04-2020 06:53:17 2.3 C 46 %
3643 26-04-2020 07:03:17 2.3 C 46 %
3644 26-04-2020 07:13:17 2.6 C 47 %
3645 26-04-2020 07:23:17 2.7 C 47 %
3646 26-04-2020 07:33:17 2.8 C 46 %
3647 26-04-2020 07:43:17 2.8 C 46 %
3648 26-04-2020 07:53:17 2.9 C 47 %
3649 26-04-2020 08:03:17 3.2 C 46 %
3650 26-04-2020 08:13:17 3.4 C 46 %
Sensor: Nr:Datum:Temp:Feuchte:
Aussen-T/F 3651 26-04-2020 08:23:17 3.6 C 46 %
3652 26-04-2020 08:33:17 4 C 45 %
3653 26-04-2020 08:43:17 4.3 C 45 %
3654 26-04-2020 08:53:17 4.5 C 45 %
3655 26-04-2020 09:03:17 4.9 C 45 %
3656 26-04-2020 09:13:17 5.2 C 43 %
3657 26-04-2020 09:23:17 5.8 C 44 %
3658 26-04-2020 09:33:17 6.4 C 42 %
3659 26-04-2020 09:43:17 6.8 C 41 %
3660 26-04-2020 09:53:17 7.4 C 40 %
3661 26-04-2020 10:03:18 7.8 C 39 %
3662 26-04-2020 10:13:18 8.5 C 38 %
3663 26-04-2020 10:23:17 9 C 37 %
3664 26-04-2020 10:33:18 9.6 C 36 %
3665 26-04-2020 10:43:18 10.4 C 35 %
3666 26-04-2020 10:53:17 11.3 C 32 %
3667 26-04-2020 11:03:17 12.2 C 31 %
3668 26-04-2020 11:13:17 12.8 C 29 %
3669 26-04-2020 11:23:17 13.6 C 27 %
3670 26-04-2020 11:33:17 14.1 C 26 %
3671 26-04-2020 11:43:17 14.7 C 25 %
3672 26-04-2020 11:53:17 15.2 C 22 %
3673 26-04-2020 12:03:17 15.2 C 21 %
3674 26-04-2020 12:13:17 15.1 C 20 %
3675 26-04-2020 12:23:18 15.4 C 20 %
Sensor: Nr:Datum:Temp:Feuchte:
Aussen-T/F 3676 26-04-2020 12:33:17 15.9 C 20 %
3677 26-04-2020 12:43:18 15.9 C 20 %
3678 26-04-2020 12:53:17 16.2 C 20 %
3679 26-04-2020 13:03:17 16.5 C 20 %
3680 26-04-2020 13:13:17 16.8 C 20 %
3681 26-04-2020 13:23:18 16.6 C 20 %
3682 26-04-2020 13:33:17 16.8 C 20 %
3683 26-04-2020 13:43:17 17.1 C 20 %
3684 26-04-2020 13:53:17 17.1 C 20 %
3685 26-04-2020 14:03:17 17.4 C 20 %
3686 26-04-2020 14:13:17 18.1 C 20 %
3687 26-04-2020 14:23:17 19.3 C 20 %
3688 26-04-2020 14:33:18 25 C 20 %
3689 26-04-2020 14:43:18 24.8 C 20 %
3690 26-04-2020 14:53:17 26.7 C 20 %
3691 26-04-2020 15:03:18 26.6 C 20 %
3692 26-04-2020 15:13:18 28.3 C 20 %
3693 26-04-2020 15:23:17 29.7 C 20 %
3694 26-04-2020 15:33:17 29.5 C 20 %
3695 26-04-2020 15:43:17 28 C 20 %
3696 26-04-2020 15:53:18 29 C 20 %
3697 26-04-2020 16:03:18 30.5 C 20 %
3698 26-04-2020 16:13:18 27.6 C 20 %
3699 26-04-2020 16:23:17 28.4 C 20 %
3700 26-04-2020 16:33:17 26.5 C 20 %
Sensor: Nr:Datum:Temp:Feuchte:
Aussen-T/F 3701 26-04-2020 16:43:17 30.3 C 20 %
3702 26-04-2020 16:53:17 28.1 C 20 %
3703 26-04-2020 17:03:18 29 C 20 %
3704 26-04-2020 17:13:18 28.3 C 20 %
3705 26-04-2020 17:23:18 27.4 C 20 %
3706 26-04-2020 17:33:18 27.2 C 20 %
3707 26-04-2020 17:43:18 28 C 20 %
3708 26-04-2020 17:53:17 26.5 C 20 %
3709 26-04-2020 18:03:17 25.8 C 20 %
3710 26-04-2020 18:13:17 23.1 C 20 %
3711 26-04-2020 18:23:17 22 C 20 %
3712 26-04-2020 18:33:17 21.9 C 20 %
3713 26-04-2020 18:43:17 21.1 C 20 %
3714 26-04-2020 18:53:17 21.1 C 20 %
3715 26-04-2020 19:03:17 20.9 C 20 %
3716 26-04-2020 19:13:17 20.2 C 20 %
3717 26-04-2020 19:23:17 19.7 C 20 %
3718 26-04-2020 19:33:17 19.5 C 20 %
3719 26-04-2020 19:43:18 19.1 C 20 %
3720 26-04-2020 19:53:17 18.2 C 20 %
3721 26-04-2020 20:03:18 17.3 C 20 %
3722 26-04-2020 20:13:18 16.6 C 20 %
3723 26-04-2020 20:23:17 15.8 C 20 %
3724 26-04-2020 20:33:17 14.7 C 20 %
3725 26-04-2020 20:43:17 14.3 C 20 %
Sensor: Nr:Datum:Temp:Feuchte:
Aussen-T/F 3726 26-04-2020 20:53:18 14 C 20 %
3727 26-04-2020 21:03:18 13.7 C 20 %
3728 26-04-2020 21:13:18 13.1 C 20 %
3729 26-04-2020 21:23:17 12.6 C 20 %
3730 26-04-2020 21:33:18 12.4 C 20 %
3731 26-04-2020 21:43:18 12.1 C 20 %
3732 26-04-2020 21:53:17 11.6 C 23 %
3733 26-04-2020 22:03:17 11.3 C 25 %
3734 26-04-2020 22:13:17 10.9 C 26 %
3735 26-04-2020 22:23:18 10.7 C 26 %
3736 26-04-2020 22:33:17 10.5 C 26 %
3737 26-04-2020 22:43:17 9.9 C 28 %
3738 26-04-2020 22:53:17 9.6 C 29 %
3739 26-04-2020 23:03:17 9.2 C 29 %
3740 26-04-2020 23:13:17 9 C 30 %
3741 26-04-2020 23:23:17 8.9 C 30 %
3742 26-04-2020 23:33:18 8.8 C 30 %
3743 26-04-2020 23:43:18 8.7 C 30 %
3744 26-04-2020 23:53:17 8.5 C 30 %
3745 27-04-2020 00:03:18 8.3 C 30 %
3746 27-04-2020 00:13:18 8 C 31 %
3747 27-04-2020 00:23:18 7.9 C 32 %
3748 27-04-2020 00:33:17 7.6 C 32 %
3749 27-04-2020 00:43:17 7.4 C 33 %
3750 27-04-2020 00:53:17 7.2 C 33 %
Sensor: Nr:Datum:Temp:Feuchte:
Aussen-T/F 3751 27-04-2020 01:03:18 7.1 C 33 %
3752 27-04-2020 01:13:18 6.8 C 35 %
3753 27-04-2020 01:23:18 6.9 C 35 %
3754 27-04-2020 01:33:17 6.9 C 35 %
3755 27-04-2020 01:43:17 6.8 C 35 %
3756 27-04-2020 01:53:17 6.4 C 35 %
3757 27-04-2020 02:03:17 6.2 C 36 %
3758 27-04-2020 02:13:17 6 C 36 %
3759 27-04-2020 02:23:17 5.9 C 37 %
3760 27-04-2020 02:33:17 5.7 C 37 %
3761 27-04-2020 02:43:17 6 C 37 %
3762 27-04-2020 02:53:17 6 C 37 %
3763 27-04-2020 03:03:18 5.7 C 38 %
3764 27-04-2020 03:13:18 5.6 C 38 %
3765 27-04-2020 03:23:18 5.6 C 38 %
3766 27-04-2020 03:33:17 5.6 C 38 %
3767 27-04-2020 03:43:17 5.6 C 39 %
3768 27-04-2020 03:53:17 5.7 C 39 %
3769 27-04-2020 04:03:18 5 C 38 %
3770 27-04-2020 04:13:18 4.8 C 40 %
3771 27-04-2020 04:23:17 4.4 C 40 %
3772 27-04-2020 04:33:18 4.3 C 41 %
3773 27-04-2020 04:43:18 4 C 41 %
3774 27-04-2020 04:53:17 4.1 C 42 %
3775 27-04-2020 05:03:17 4 C 42 %
Sensor: Nr:Datum:Temp:Feuchte:
Aussen-T/F 3776 27-04-2020 05:13:17 4.2 C 42 %
3777 27-04-2020 05:23:17 3.7 C 43 %
3778 27-04-2020 05:33:17 3.7 C 43 %
3779 27-04-2020 05:43:17 3.4 C 43 %
3780 27-04-2020 05:53:17 3.7 C 44 %
3781 27-04-2020 06:03:18 3.5 C 44 %
3782 27-04-2020 06:13:18 3.4 C 44 %
3783 27-04-2020 06:23:17 3.6 C 45 %
3784 27-04-2020 06:33:17 3.8 C 45 %
3785 27-04-2020 06:43:17 3.8 C 44 %
3786 27-04-2020 06:53:17 3.8 C 44 %
3787 27-04-2020 07:03:17 3.8 C 44 %
3788 27-04-2020 07:13:17 3.9 C 45 %
3789 27-04-2020 07:23:17 3.9 C 45 %
3790 27-04-2020 07:33:17 4.2 C 44 %
3791 27-04-2020 07:43:17 4.5 C 43 %
3792 27-04-2020 07:53:17 4.6 C 43 %
3793 27-04-2020 08:03:17 4.9 C 42 %
3794 27-04-2020 08:13:17 4.8 C 42 %
3795 27-04-2020 08:23:17 5.1 C 42 %
3796 27-04-2020 08:33:17 5.5 C 41 %
3797 27-04-2020 08:43:17 5.7 C 41 %
3798 27-04-2020 08:53:17 6 C 41 %
3799 27-04-2020 09:03:18 6.4 C 40 %
3800 27-04-2020 09:13:18 6.6 C 40 %
Sensor: Nr:Datum:Temp:Feuchte:
Aussen-T/F 3801 27-04-2020 09:23:17 7 C 40 %
3802 27-04-2020 09:33:17 7.6 C 39 %
3803 27-04-2020 09:43:17 8.3 C 37 %
3804 27-04-2020 09:53:17 8.5 C 38 %
3805 27-04-2020 10:03:17 9.1 C 37 %
3806 27-04-2020 10:13:17 9.9 C 37 %
3807 27-04-2020 10:23:17 10.7 C 35 %
3808 27-04-2020 10:33:17 11.7 C 34 %
3809 27-04-2020 10:43:17 12.3 C 32 %
3810 27-04-2020 10:53:17 13.5 C 30 %
3811 27-04-2020 11:03:17 15.5 C 25 %
3812 27-04-2020 11:13:17 16.6 C 22 %
3813 27-04-2020 11:23:17 16.8 C 20 %
3814 27-04-2020 11:33:17 17.2 C 20 %
3815 27-04-2020 11:43:17 17.5 C 20 %
3816 27-04-2020 11:53:17 17.7 C 20 %
3817 27-04-2020 12:03:17 18.1 C 20 %
3818 27-04-2020 12:13:17 18.4 C 20 %
3819 27-04-2020 12:23:17 18.3 C 20 %
3820 27-04-2020 12:33:17 18.7 C 20 %
3821 27-04-2020 12:43:17 19 C 20 %
3822 27-04-2020 12:53:18 19.1 C 20 %
3823 27-04-2020 13:03:17 19.7 C 20 %
3824 27-04-2020 13:13:17 19.5 C 20 %
3825 27-04-2020 13:23:17 19.6 C 20 %
Sensor: Nr:Datum:Temp:Feuchte:
Aussen-T/F 3826 27-04-2020 13:33:17 20.1 C 20 %
3827 27-04-2020 13:43:17 20.2 C 20 %
3828 27-04-2020 13:53:17 20.4 C 20 %
3829 27-04-2020 14:03:18 21 C 20 %
3830 27-04-2020 14:13:18 21.4 C 20 %
3831 27-04-2020 14:23:17 25.1 C 20 %
3832 27-04-2020 14:33:18 25.5 C 20 %
3833 27-04-2020 14:43:18 28.2 C 20 %
3834 27-04-2020 14:53:17 28.9 C 20 %
3835 27-04-2020 15:03:17 30.1 C 20 %
3836 27-04-2020 15:13:17 27.6 C 20 %
3837 27-04-2020 15:23:17 26.7 C 20 %
3838 27-04-2020 15:33:17 27.5 C 20 %
3839 27-04-2020 15:43:17 27.6 C 20 %
3840 27-04-2020 15:53:17 27.9 C 20 %
3841 27-04-2020 16:03:17 26.8 C 20 %
3842 27-04-2020 16:13:17 23.7 C 20 %
3843 27-04-2020 16:23:17 23.4 C 20 %
3844 27-04-2020 16:33:17 24.1 C 20 %
3845 27-04-2020 16:43:17 23.7 C 20 %
3846 27-04-2020 16:53:17 22.7 C 20 %
3847 27-04-2020 17:03:18 22.1 C 20 %
3848 27-04-2020 17:13:18 22.1 C 20 %
3849 27-04-2020 17:23:17 21.6 C 20 %
3850 27-04-2020 17:33:17 21.7 C 20 %
Sensor: Nr:Datum:Temp:Feuchte:
Aussen-T/F 3851 27-04-2020 17:43:17 21.6 C 20 %
3852 27-04-2020 17:53:17 22.2 C 20 %
3853 27-04-2020 18:03:17 21.5 C 20 %
3854 27-04-2020 18:13:17 21.8 C 20 %
3855 27-04-2020 18:23:17 24 C 20 %
3856 27-04-2020 18:33:18 23.1 C 20 %
3857 27-04-2020 18:43:18 22.4 C 20 %
3858 27-04-2020 18:53:17 22.1 C 20 %
3859 27-04-2020 19:03:17 20.9 C 20 %
3860 27-04-2020 19:13:17 19.4 C 20 %
3861 27-04-2020 19:23:18 19.2 C 20 %
3862 27-04-2020 19:33:17 18.3 C 20 %
3863 27-04-2020 19:43:18 18.2 C 20 %
3864 27-04-2020 19:53:17 17.4 C 20 %
3865 27-04-2020 20:03:17 17.1 C 20 %
3866 27-04-2020 20:13:17 16.8 C 20 %
3867 27-04-2020 20:23:17 16.2 C 20 %
3868 27-04-2020 20:33:17 15.4 C 21 %
3869 27-04-2020 20:43:17 15.1 C 21 %
3870 27-04-2020 20:53:18 15.2 C 21 %
3871 27-04-2020 21:03:17 15 C 21 %
3872 27-04-2020 21:13:17 15 C 22 %
3873 27-04-2020 21:23:17 14.6 C 25 %
3874 27-04-2020 21:33:18 14.2 C 25 %
3875 27-04-2020 21:43:18 13.6 C 26 %
Sensor: Nr:Datum:Temp:Feuchte:
Aussen-T/F 3876 27-04-2020 21:53:17 13.2 C 27 %
3877 27-04-2020 22:03:18 13.3 C 27 %
3878 27-04-2020 22:13:18 13.3 C 27 %
3879 27-04-2020 22:23:17 13 C 28 %
3880 27-04-2020 22:33:17 12.3 C 30 %
3881 27-04-2020 22:43:17 12.1 C 30 %
3882 27-04-2020 22:53:18 12 C 30 %
3883 27-04-2020 23:03:17 12 C 30 %
3884 27-04-2020 23:13:17 12 C 30 %
3885 27-04-2020 23:23:17 11.8 C 31 %
3886 27-04-2020 23:33:17 11.4 C 32 %
3887 27-04-2020 23:43:17 11 C 32 %
3888 27-04-2020 23:53:18 10.6 C 34 %
3889 28-04-2020 00:03:17 10.5 C 35 %
3890 28-04-2020 00:13:17 10 C 35 %
3891 28-04-2020 00:23:17 10 C 35 %
3892 28-04-2020 00:33:18 9.8 C 36 %
3893 28-04-2020 00:43:18 9.8 C 36 %
3894 28-04-2020 00:53:17 9.7 C 36 %
3895 28-04-2020 01:03:18 9.5 C 36 %
3896 28-04-2020 01:13:18 9.3 C 37 %
3897 28-04-2020 01:23:17 9.1 C 37 %
3898 28-04-2020 01:33:17 9.1 C 37 %
3899 28-04-2020 01:43:18 9.2 C 37 %
3900 28-04-2020 01:53:17 8.8 C 38 %
Sensor: Nr:Datum:Temp:Feuchte:
Aussen-T/F 3901 28-04-2020 02:03:18 8.7 C 39 %
3902 28-04-2020 02:13:18 8.8 C 39 %
3903 28-04-2020 02:23:17 8.4 C 39 %
3904 28-04-2020 02:33:18 8.2 C 39 %
3905 28-04-2020 02:43:18 8.3 C 40 %
3906 28-04-2020 02:53:18 8.6 C 40 %
3907 28-04-2020 03:03:17 8.7 C 40 %
3908 28-04-2020 03:13:17 8.4 C 40 %
3909 28-04-2020 03:23:17 8.3 C 40 %
3910 28-04-2020 03:33:18 8.3 C 40 %
3911 28-04-2020 03:43:18 7.8 C 40 %
3912 28-04-2020 03:53:18 7.7 C 41 %
3913 28-04-2020 04:03:18 7.9 C 41 %
3914 28-04-2020 04:13:18 7.4 C 41 %
3915 28-04-2020 04:23:18 7.3 C 41 %
3916 28-04-2020 04:33:18 7.3 C 42 %
3917 28-04-2020 04:43:18 7.6 C 43 %
3918 28-04-2020 04:53:17 7.7 C 42 %
3919 28-04-2020 05:03:17 7.8 C 41 %
3920 28-04-2020 05:13:17 7.8 C 42 %
3921 28-04-2020 05:23:17 7.8 C 41 %
3922 28-04-2020 05:33:18 7.9 C 41 %
3923 28-04-2020 05:43:18 7.7 C 41 %
3924 28-04-2020 05:53:17 7.5 C 41 %
3925 28-04-2020 06:03:17 7.2 C 41 %
Sensor: Nr:Datum:Temp:Feuchte:
Aussen-T/F 3926 28-04-2020 06:13:17 7 C 42 %
3927 28-04-2020 06:23:17 7.3 C 43 %
3928 28-04-2020 06:33:18 7.6 C 43 %
3929 28-04-2020 06:43:18 8 C 42 %
3930 28-04-2020 06:53:17 8.3 C 41 %
3931 28-04-2020 07:03:18 8.7 C 41 %
3932 28-04-2020 07:13:18 9.1 C 40 %
3933 28-04-2020 07:23:18 9.3 C 39 %
3934 28-04-2020 07:33:17 9.5 C 39 %
3935 28-04-2020 07:43:17 9.6 C 39 %
3936 28-04-2020 07:53:17 9.4 C 39 %
3937 28-04-2020 08:03:17 9.2 C 40 %
3938 28-04-2020 08:13:17 9.5 C 41 %
3939 28-04-2020 08:23:17 9.8 C 41 %
3940 28-04-2020 08:33:17 10 C 41 %
3941 28-04-2020 08:43:17 10.1 C 41 %
3942 28-04-2020 08:53:17 10.6 C 40 %
3943 28-04-2020 09:03:17 10.7 C 40 %
3944 28-04-2020 09:13:17 11.2 C 39 %
3945 28-04-2020 09:23:17 11.7 C 39 %
3946 28-04-2020 09:33:18 11.8 C 39 %
3947 28-04-2020 09:43:18 11.8 C 38 %
3948 28-04-2020 09:53:17 12.2 C 38 %
3949 28-04-2020 10:03:17 12.8 C 38 %
3950 28-04-2020 10:13:17 12.9 C 37 %
Sensor: Nr:Datum:Temp:Feuchte:
Aussen-T/F 3951 28-04-2020 10:23:18 13.3 C 36 %
3952 28-04-2020 10:33:17 13.7 C 36 %
3953 28-04-2020 10:43:17 14 C 35 %
3954 28-04-2020 10:53:17 14.1 C 35 %
3955 28-04-2020 11:03:17 13.4 C 37 %
3956 28-04-2020 11:13:17 13.8 C 38 %
3957 28-04-2020 11:23:17 13.5 C 38 %
3958 28-04-2020 11:33:17 14.2 C 38 %
3959 28-04-2020 11:43:17 14.3 C 37 %
3960 28-04-2020 11:53:17 14.6 C 38 %
3961 28-04-2020 12:03:17 14.9 C 37 %
3962 28-04-2020 12:13:17 15 C 37 %
3963 28-04-2020 12:23:17 14.9 C 38 %
3964 28-04-2020 12:33:17 15.2 C 37 %
3965 28-04-2020 12:43:17 15 C 38 %
3966 28-04-2020 12:53:17 14.9 C 39 %
3967 28-04-2020 13:03:18 14.7 C 39 %
3968 28-04-2020 13:13:18 14.5 C 41 %
3969 28-04-2020 13:23:17 14.2 C 41 %
3970 28-04-2020 13:33:17 14.9 C 40 %
3971 28-04-2020 13:43:17 14.9 C 38 %
3972 28-04-2020 13:53:17 15.2 C 36 %
3973 28-04-2020 14:03:17 16.2 C 36 %
3974 28-04-2020 14:13:17 16.9 C 35 %
3975 28-04-2020 14:23:18 20.2 C 30 %
Sensor: Nr:Datum:Temp:Feuchte:
Aussen-T/F 3976 28-04-2020 14:33:18 17.5 C 32 %
3977 28-04-2020 14:43:18 16.5 C 34 %
3978 28-04-2020 14:53:17 17.2 C 33 %
3979 28-04-2020 15:03:17 16.4 C 34 %
3980 28-04-2020 15:13:17 15.6 C 36 %
3981 28-04-2020 15:23:17 15.6 C 36 %
3982 28-04-2020 15:33:17 18.1 C 32 %
3983 28-04-2020 15:43:17 16.5 C 33 %
3984 28-04-2020 15:53:17 17 C 32 %
3985 28-04-2020 16:03:18 17.1 C 32 %
3986 28-04-2020 16:13:18 16.7 C 32 %
3987 28-04-2020 16:23:17 16.9 C 32 %
3988 28-04-2020 16:33:17 18.5 C 30 %
3989 28-04-2020 16:43:17 20.1 C 26 %
3990 28-04-2020 16:53:17 19.4 C 27 %
3991 28-04-2020 17:03:17 17.6 C 30 %
3992 28-04-2020 17:13:17 17.4 C 30 %
3993 28-04-2020 17:23:17 17.2 C 29 %
3994 28-04-2020 17:33:17 17 C 30 %
3995 28-04-2020 17:43:17 16.8 C 30 %
3996 28-04-2020 17:53:17 17.6 C 28 %
3997 28-04-2020 18:03:17 18.2 C 27 %
3998 28-04-2020 18:13:17 17.4 C 29 %
3999 28-04-2020 18:23:17 18 C 28 %
4000 28-04-2020 18:33:18 17.6 C 28 %
Sensor: Nr:Datum:Temp:Feuchte:
Aussen-T/F 4001 28-04-2020 18:43:18 17.7 C 28 %
4002 28-04-2020 18:53:17 16.6 C 30 %
4003 28-04-2020 19:03:17 16.3 C 30 %
4004 28-04-2020 19:13:17 16.3 C 30 %
4005 28-04-2020 19:23:17 16.3 C 30 %
4006 28-04-2020 19:33:18 16.4 C 30 %
4007 28-04-2020 19:43:18 16.5 C 30 %
4008 28-04-2020 19:53:17 16.1 C 30 %
4009 28-04-2020 20:03:18 15 C 32 %
4010 28-04-2020 20:13:18 14.2 C 35 %
4011 28-04-2020 20:23:17 13.6 C 37 %
4012 28-04-2020 20:33:17 13.4 C 37 %
4013 28-04-2020 20:43:18 13.1 C 37 %
4014 28-04-2020 20:53:17 13 C 38 %
4015 28-04-2020 21:03:17 12.5 C 39 %
4016 28-04-2020 21:13:17 13.5 C 36 %
4017 28-04-2020 21:23:17 13.9 C 35 %
4018 28-04-2020 21:33:17 14.6 C 34 %
4019 28-04-2020 21:43:17 14.4 C 34 %
4020 28-04-2020 21:53:17 14.2 C 34 %
4021 28-04-2020 22:03:17 13.4 C 35 %
4022 28-04-2020 22:13:17 12.8 C 37 %
4023 28-04-2020 22:23:17 12.8 C 37 %
4024 28-04-2020 22:33:17 13 C 36 %
4025 28-04-2020 22:43:17 13.1 C 36 %
Sensor: Nr:Datum:Temp:Feuchte:
Aussen-T/F 4026 28-04-2020 22:53:18 12.9 C 37 %
4027 28-04-2020 23:03:17 12.7 C 38 %
4028 28-04-2020 23:13:18 12.7 C 38 %
4029 28-04-2020 23:23:18 12.7 C 38 %
4030 28-04-2020 23:33:18 12.7 C 38 %
4031 28-04-2020 23:43:18 12.5 C 39 %
4032 28-04-2020 23:53:18 12.2 C 39 %
4033 29-04-2020 00:03:17 12.2 C 39 %
4034 29-04-2020 00:13:17 12.2 C 39 %
4035 29-04-2020 00:23:17 12.1 C 39 %
4036 29-04-2020 00:33:18 11.8 C 40 %
4037 29-04-2020 00:43:18 11.5 C 40 %
4038 29-04-2020 00:53:18 11.5 C 40 %
4039 29-04-2020 01:03:18 11.5 C 40 %
4040 29-04-2020 01:13:18 11.6 C 40 %
4041 29-04-2020 01:23:17 11.7 C 40 %
4042 29-04-2020 01:33:17 11.6 C 42 %
4043 29-04-2020 01:43:17 11.4 C 43 %
4044 29-04-2020 01:53:17 11.4 C 44 %
4045 29-04-2020 02:03:17 11.4 C 44 %
4046 29-04-2020 02:13:17 11.4 C 41 %
4047 29-04-2020 02:23:17 12.3 C 37 %
4048 29-04-2020 02:33:18 12.6 C 37 %
4049 29-04-2020 02:43:18 12.5 C 36 %
4050 29-04-2020 02:53:17 12.1 C 36 %
Sensor: Nr:Datum:Temp:Feuchte:
Aussen-T/F 4051 29-04-2020 03:03:17 12 C 36 %
4052 29-04-2020 03:13:17 11.4 C 39 %
4053 29-04-2020 03:23:17 11.5 C 39 %
4054 29-04-2020 03:33:17 11.7 C 39 %
4055 29-04-2020 03:43:17 12 C 37 %
4056 29-04-2020 03:53:17 12.1 C 37 %
4057 29-04-2020 04:03:17 11.9 C 39 %
4058 29-04-2020 04:13:17 11.9 C 39 %
4059 29-04-2020 04:23:17 11.7 C 39 %
4060 29-04-2020 04:33:17 11.9 C 38 %
4061 29-04-2020 04:43:18 11.6 C 39 %
4062 29-04-2020 04:53:17 11.4 C 39 %
4063 29-04-2020 05:03:18 11.7 C 39 %
4064 29-04-2020 05:13:18 11.5 C 39 %
4065 29-04-2020 05:23:18 11.7 C 39 %
4066 29-04-2020 05:33:17 11.5 C 39 %
4067 29-04-2020 05:43:17 11.4 C 39 %
4068 29-04-2020 05:53:17 11.3 C 40 %
4069 29-04-2020 06:03:18 11.3 C 40 %
4070 29-04-2020 06:13:18 11.5 C 39 %
4071 29-04-2020 06:23:17 11.6 C 38 %
4072 29-04-2020 06:33:17 11.2 C 39 %
4073 29-04-2020 06:43:17 11 C 40 %
4074 29-04-2020 06:53:17 11.2 C 40 %
4075 29-04-2020 07:03:17 11.5 C 39 %
Sensor: Nr:Datum:Temp:Feuchte:
Aussen-T/F 4076 29-04-2020 07:13:17 11.9 C 39 %
4077 29-04-2020 07:23:17 12.1 C 37 %
4078 29-04-2020 07:33:17 12.3 C 37 %
4079 29-04-2020 07:43:17 12.4 C 36 %
4080 29-04-2020 07:53:17 12.7 C 36 %
4081 29-04-2020 08:03:17 12.9 C 36 %
4082 29-04-2020 08:13:17 12.9 C 36 %
4083 29-04-2020 08:23:17 12.7 C 36 %
4084 29-04-2020 08:33:17 12.6 C 36 %
4085 29-04-2020 08:43:17 12.5 C 36 %
4086 29-04-2020 08:53:17 13 C 35 %
4087 29-04-2020 09:03:17 13.1 C 35 %
4088 29-04-2020 09:13:17 13.2 C 35 %
4089 29-04-2020 09:23:17 13.5 C 34 %
4090 29-04-2020 09:33:17 13.6 C 33 %
4091 29-04-2020 09:43:17 13.9 C 32 %
4092 29-04-2020 09:53:17 14.1 C 32 %
4093 29-04-2020 10:03:17 14.5 C 31 %
4094 29-04-2020 10:13:17 14.8 C 30 %
4095 29-04-2020 10:23:17 15.1 C 29 %
4096 29-04-2020 10:33:17 14.8 C 30 %
4097 29-04-2020 10:43:17 15 C 29 %
4098 29-04-2020 10:53:17 15.5 C 28 %
4099 29-04-2020 11:03:17 16 C 28 %
4100 29-04-2020 11:13:17 16 C 28 %
Sensor: Nr:Datum:Temp:Feuchte:
Aussen-T/F 4101 29-04-2020 11:23:17 16.3 C 27 %
4102 29-04-2020 11:33:18 16.8 C 27 %
4103 29-04-2020 11:43:18 16.9 C 25 %
4104 29-04-2020 11:53:17 17.1 C 25 %
4105 29-04-2020 12:03:18 17.5 C 25 %
4106 29-04-2020 12:13:18 16.4 C 25 %
4107 29-04-2020 12:23:17 15.5 C 26 %
4108 29-04-2020 12:33:17 15.9 C 26 %
4109 29-04-2020 12:43:17 16.3 C 25 %
4110 29-04-2020 12:53:17 16.2 C 25 %
4111 29-04-2020 13:03:17 17.5 C 25 %
4112 29-04-2020 13:13:17 16.4 C 25 %
4113 29-04-2020 13:23:18 16.1 C 25 %
4114 29-04-2020 13:33:18 17.5 C 25 %
4115 29-04-2020 13:43:18 17.3 C 25 %
4116 29-04-2020 13:53:18 16.6 C 25 %
4117 29-04-2020 14:03:18 16.7 C 26 %
4118 29-04-2020 14:13:18 15.7 C 26 %
4119 29-04-2020 14:23:18 15.9 C 26 %
4120 29-04-2020 14:33:17 16.1 C 26 %
4121 29-04-2020 14:43:17 19.2 C 22 %
4122 29-04-2020 14:53:17 21.1 C 20 %
4123 29-04-2020 15:03:17 20.9 C 20 %
4124 29-04-2020 15:13:17 22.7 C 20 %
4125 29-04-2020 15:23:17 22.3 C 20 %
Sensor: Nr:Datum:Temp:Feuchte:
Aussen-T/F 4126 29-04-2020 15:33:17 19.6 C 20 %
4127 29-04-2020 15:43:17 18.7 C 20 %
4128 29-04-2020 15:53:17 19.2 C 20 %
4129 29-04-2020 16:03:17 17.4 C 22 %
4130 29-04-2020 16:13:17 17.9 C 22 %
4131 29-04-2020 16:23:17 18.4 C 20 %
4132 29-04-2020 16:33:17 17.7 C 21 %
4133 29-04-2020 16:43:17 20.2 C 20 %
4134 29-04-2020 16:53:17 18.2 C 20 %
4135 29-04-2020 17:03:17 17.4 C 22 %
4136 29-04-2020 17:13:17 16 C 25 %
4137 29-04-2020 17:23:17 19.4 C 23 %
4138 29-04-2020 17:33:17 21.1 C 20 %
4139 29-04-2020 17:43:17 21.2 C 20 %
4140 29-04-2020 17:53:17 20.2 C 20 %
4141 29-04-2020 18:03:17 21 C 20 %
4142 29-04-2020 18:13:18 17.5 C 21 %
4143 29-04-2020 18:23:17 17.4 C 21 %
4144 29-04-2020 18:33:17 17.7 C 22 %
4145 29-04-2020 18:43:17 17.9 C 22 %
4146 29-04-2020 18:53:17 17.2 C 23 %
4147 29-04-2020 19:03:18 17 C 25 %
4148 29-04-2020 19:13:18 17.5 C 24 %
4149 29-04-2020 19:23:17 17.5 C 23 %
4150 29-04-2020 19:33:17 17.1 C 23 %
Sensor: Nr:Datum:Temp:Feuchte:
Aussen-T/F 4151 29-04-2020 19:43:18 16.7 C 24 %
4152 29-04-2020 19:53:17 16.1 C 25 %
4153 29-04-2020 20:03:18 15.4 C 26 %
4154 29-04-2020 20:13:18 15 C 26 %
4155 29-04-2020 20:23:18 14.7 C 29 %
4156 29-04-2020 20:33:17 14.5 C 29 %
4157 29-04-2020 20:43:17 14.5 C 28 %
4158 29-04-2020 20:53:18 14.4 C 28 %
4159 29-04-2020 21:03:18 13.8 C 30 %
4160 29-04-2020 21:13:18 13.2 C 31 %
4161 29-04-2020 21:23:17 12.9 C 33 %
4162 29-04-2020 21:33:17 13 C 32 %
4163 29-04-2020 21:43:17 13.5 C 32 %
4164 29-04-2020 21:53:17 13.2 C 32 %
4165 29-04-2020 22:03:18 13 C 32 %
4166 29-04-2020 22:13:18 13.2 C 33 %
4167 29-04-2020 22:23:17 13.5 C 32 %
4168 29-04-2020 22:33:17 13.3 C 32 %
4169 29-04-2020 22:43:17 13.1 C 32 %
4170 29-04-2020 22:53:18 13.3 C 33 %
4171 29-04-2020 23:03:18 12.8 C 35 %
4172 29-04-2020 23:13:18 12.8 C 35 %
4173 29-04-2020 23:23:17 13 C 34 %
4174 29-04-2020 23:33:17 13.2 C 33 %
4175 29-04-2020 23:43:17 13.2 C 34 %
Sensor: Nr:Datum:Temp:Feuchte:
Aussen-T/F 4176 29-04-2020 23:53:18 12.9 C 35 %
Sensor: Nr:Datum:Temp:Feuchte:
G-T/H 1 01-04-2020 00:01:17 8.8 C 62 %
2 01-04-2020 00:11:17 8.8 C 62 %
3 01-04-2020 00:21:17 8.8 C 62 %
4 01-04-2020 00:31:17 8.7 C 62 %
5 01-04-2020 00:41:17 8.7 C 62 %
6 01-04-2020 00:51:17 8.7 C 62 %
7 01-04-2020 01:01:17 8.7 C 62 %
8 01-04-2020 01:11:17 8.7 C 62 %
9 01-04-2020 01:21:17 8.7 C 62 %
10 01-04-2020 01:30:18 8.7 C 62 %
11 01-04-2020 01:40:18 8.7 C 62 %
12 01-04-2020 01:51:17 8.6 C 62 %
13 01-04-2020 02:01:17 8.6 C 62 %
14 01-04-2020 02:11:17 8.6 C 62 %
15 01-04-2020 02:21:17 8.6 C 62 %
16 01-04-2020 02:31:17 8.6 C 62 %
17 01-04-2020 02:41:17 8.6 C 62 %
18 01-04-2020 02:50:18 8.6 C 62 %
19 01-04-2020 03:01:17 8.5 C 62 %
20 01-04-2020 03:11:17 8.5 C 62 %
21 01-04-2020 03:21:17 8.5 C 62 %
22 01-04-2020 03:31:17 8.5 C 62 %
23 01-04-2020 03:41:18 8.5 C 62 %
24 01-04-2020 03:51:17 8.5 C 62 %
25 01-04-2020 04:01:17 8.5 C 62 %
Sensor: Nr:Datum:Temp:Feuchte:
G-T/H 26 01-04-2020 04:11:17 8.4 C 62 %
27 01-04-2020 04:21:17 8.4 C 62 %
28 01-04-2020 04:31:18 8.4 C 62 %
29 01-04-2020 04:41:19 8.4 C 62 %
30 01-04-2020 04:51:17 8.4 C 62 %
31 01-04-2020 05:01:18 8.3 C 61 %
32 01-04-2020 05:11:19 8.3 C 61 %
33 01-04-2020 05:21:17 8.3 C 61 %
34 01-04-2020 05:31:18 8.3 C 61 %
35 01-04-2020 05:41:18 8.3 C 61 %
36 01-04-2020 05:51:17 8.2 C 61 %
37 01-04-2020 06:01:18 8.2 C 61 %
38 01-04-2020 06:11:18 8.2 C 61 %
39 01-04-2020 06:21:17 8.2 C 61 %
40 01-04-2020 06:31:17 8.1 C 61 %
41 01-04-2020 06:41:17 8.1 C 61 %
42 01-04-2020 06:51:17 8.1 C 61 %
43 01-04-2020 07:01:18 8.1 C 61 %
44 01-04-2020 07:11:19 8.1 C 61 %
45 01-04-2020 07:21:17 8.1 C 61 %
46 01-04-2020 07:31:18 8 C 61 %
47 01-04-2020 07:41:18 8 C 61 %
48 01-04-2020 07:51:17 8 C 61 %
49 01-04-2020 08:01:17 8 C 61 %
50 01-04-2020 08:11:17 8 C 61 %
Sensor: Nr:Datum:Temp:Feuchte:
G-T/H 51 01-04-2020 08:21:17 7.9 C 62 %
52 01-04-2020 08:31:17 7.9 C 62 %
53 01-04-2020 08:41:17 7.9 C 62 %
54 01-04-2020 08:51:17 7.9 C 62 %
55 01-04-2020 09:01:17 7.9 C 62 %
56 01-04-2020 09:11:17 7.9 C 62 %
57 01-04-2020 09:21:17 7.9 C 62 %
58 01-04-2020 09:31:17 7.8 C 62 %
59 01-04-2020 09:41:17 7.8 C 62 %
60 01-04-2020 09:51:17 7.8 C 62 %
61 01-04-2020 10:01:17 7.8 C 62 %
62 01-04-2020 10:11:17 7.8 C 62 %
63 01-04-2020 10:21:17 7.8 C 62 %
64 01-04-2020 10:31:18 7.8 C 62 %
65 01-04-2020 10:41:18 7.8 C 62 %
66 01-04-2020 10:51:17 7.8 C 62 %
67 01-04-2020 11:01:17 7.7 C 62 %
68 01-04-2020 11:11:17 7.8 C 62 %
69 01-04-2020 11:21:17 7.8 C 62 %
70 01-04-2020 11:31:17 7.7 C 62 %
71 01-04-2020 11:41:17 7.7 C 63 %
72 01-04-2020 11:51:17 7.8 C 63 %
73 01-04-2020 12:01:17 7.7 C 63 %
74 01-04-2020 12:11:18 7.8 C 63 %
75 01-04-2020 12:21:17 7.8 C 63 %
Sensor: Nr:Datum:Temp:Feuchte:
G-T/H 76 01-04-2020 12:31:17 7.8 C 63 %
77 01-04-2020 12:41:17 7.7 C 63 %
78 01-04-2020 12:51:17 7.7 C 63 %
79 01-04-2020 13:01:17 7.7 C 63 %
80 01-04-2020 13:11:17 7.8 C 63 %
81 01-04-2020 13:21:16 7.8 C 64 %
82 01-04-2020 13:31:17 7.8 C 64 %
83 01-04-2020 13:41:17 7.8 C 64 %
84 01-04-2020 13:51:17 7.8 C 64 %
85 01-04-2020 14:01:17 7.8 C 64 %
86 01-04-2020 14:11:17 7.9 C 64 %
87 01-04-2020 14:21:17 7.9 C 64 %
88 01-04-2020 14:31:16 7.9 C 64 %
89 01-04-2020 14:41:16 7.9 C 64 %
90 01-04-2020 14:51:17 7.9 C 64 %
91 01-04-2020 15:01:17 7.9 C 64 %
92 01-04-2020 15:11:17 8 C 63 %
93 01-04-2020 15:21:17 8 C 62 %
94 01-04-2020 15:31:16 8 C 62 %
95 01-04-2020 15:41:16 8 C 62 %
96 01-04-2020 15:51:17 8 C 62 %
97 01-04-2020 16:01:16 8.1 C 63 %
98 01-04-2020 16:11:16 8 C 63 %
99 01-04-2020 16:21:16 8.1 C 63 %
100 01-04-2020 16:31:17 8.1 C 63 %
Sensor: Nr:Datum:Temp:Feuchte:
G-T/H 101 01-04-2020 16:41:17 8.1 C 63 %
102 01-04-2020 16:51:16 8.1 C 63 %
103 01-04-2020 17:01:16 8.1 C 63 %
104 01-04-2020 17:11:16 8.2 C 63 %
105 01-04-2020 17:21:17 8.2 C 63 %
106 01-04-2020 17:31:17 8.2 C 63 %
107 01-04-2020 17:41:17 8.2 C 63 %
108 01-04-2020 17:51:17 8.2 C 63 %
109 01-04-2020 18:01:17 8.2 C 63 %
110 01-04-2020 18:11:17 8.2 C 63 %
111 01-04-2020 18:21:16 8.2 C 63 %
112 01-04-2020 18:31:17 8.3 C 63 %
113 01-04-2020 18:41:17 8.3 C 63 %
114 01-04-2020 18:51:16 8.3 C 63 %
115 01-04-2020 19:01:17 8.3 C 63 %
116 01-04-2020 19:11:17 8.4 C 63 %
117 01-04-2020 19:21:17 8.4 C 64 %
118 01-04-2020 19:31:17 8.4 C 64 %
119 01-04-2020 19:41:17 8.4 C 64 %
120 01-04-2020 19:51:16 8.4 C 64 %
121 01-04-2020 20:01:17 8.4 C 64 %
122 01-04-2020 20:11:17 8.4 C 64 %
123 01-04-2020 20:21:16 8.4 C 64 %
124 01-04-2020 20:31:16 8.5 C 64 %
125 01-04-2020 20:41:16 8.5 C 64 %
Sensor: Nr:Datum:Temp:Feuchte:
G-T/H 126 01-04-2020 20:51:16 8.5 C 64 %
127 01-04-2020 21:01:16 8.5 C 64 %
128 01-04-2020 21:11:16 8.5 C 64 %
129 01-04-2020 21:21:16 8.5 C 64 %
130 01-04-2020 21:31:16 8.5 C 64 %
131 01-04-2020 21:41:16 8.4 C 64 %
132 01-04-2020 21:51:16 8.5 C 64 %
133 01-04-2020 22:01:16 8.5 C 64 %
134 01-04-2020 22:11:16 8.5 C 64 %
135 01-04-2020 22:21:16 8.5 C 64 %
136 01-04-2020 22:31:16 8.5 C 64 %
137 01-04-2020 22:41:16 8.5 C 64 %
138 01-04-2020 22:51:16 8.5 C 64 %
139 01-04-2020 23:01:17 8.5 C 64 %
140 01-04-2020 23:11:17 8.5 C 64 %
141 01-04-2020 23:21:16 8.5 C 64 %
142 01-04-2020 23:31:16 8.4 C 64 %
143 01-04-2020 23:41:16 8.5 C 64 %
144 01-04-2020 23:51:16 8.5 C 64 %
145 02-04-2020 00:01:17 8.5 C 64 %
146 02-04-2020 00:11:17 8.5 C 64 %
147 02-04-2020 00:21:16 8.4 C 64 %
148 02-04-2020 00:31:17 8.4 C 64 %
149 02-04-2020 00:41:17 8.4 C 64 %
150 02-04-2020 00:51:16 8.4 C 64 %
Sensor: Nr:Datum:Temp:Feuchte:
G-T/H 151 02-04-2020 01:01:17 8.4 C 64 %
152 02-04-2020 01:11:17 8.4 C 64 %
153 02-04-2020 01:21:16 8.4 C 64 %
154 02-04-2020 01:31:17 8.4 C 64 %
155 02-04-2020 01:41:17 8.4 C 64 %
156 02-04-2020 01:51:16 8.4 C 64 %
157 02-04-2020 02:01:16 8.4 C 64 %
158 02-04-2020 02:11:16 8.4 C 64 %
159 02-04-2020 02:21:16 8.4 C 64 %
160 02-04-2020 02:31:17 8.3 C 64 %
161 02-04-2020 02:41:17 8.3 C 64 %
162 02-04-2020 02:51:17 8.3 C 63 %
163 02-04-2020 03:01:17 8.3 C 63 %
164 02-04-2020 03:11:17 8.3 C 63 %
165 02-04-2020 03:21:17 8.3 C 63 %
166 02-04-2020 03:31:17 8.3 C 63 %
167 02-04-2020 03:41:17 8.2 C 63 %
168 02-04-2020 03:51:18 8.2 C 63 %
169 02-04-2020 04:01:18 8.2 C 63 %
170 02-04-2020 04:11:18 8.2 C 63 %
171 02-04-2020 04:21:18 8.2 C 63 %
172 02-04-2020 04:31:17 8.2 C 63 %
173 02-04-2020 04:41:17 8.2 C 63 %
174 02-04-2020 04:51:17 8.2 C 63 %
175 02-04-2020 05:01:18 8.2 C 63 %
Sensor: Nr:Datum:Temp:Feuchte:
G-T/H 176 02-04-2020 05:11:18 8.1 C 63 %
177 02-04-2020 05:21:17 8.1 C 63 %
178 02-04-2020 05:31:18 8.1 C 63 %
179 02-04-2020 05:41:18 8.1 C 63 %
180 02-04-2020 05:51:17 8.1 C 63 %
181 02-04-2020 06:01:17 8.1 C 63 %
182 02-04-2020 06:11:17 8 C 63 %
183 02-04-2020 06:21:17 8 C 63 %
184 02-04-2020 06:31:17 8 C 63 %
185 02-04-2020 06:41:17 8 C 63 %
186 02-04-2020 06:51:17 8 C 62 %
187 02-04-2020 07:01:17 8 C 62 %
188 02-04-2020 07:11:17 8 C 62 %
189 02-04-2020 07:21:17 7.9 C 63 %
190 02-04-2020 07:31:17 7.9 C 63 %
191 02-04-2020 07:41:18 7.9 C 63 %
192 02-04-2020 07:51:17 7.9 C 63 %
193 02-04-2020 08:01:17 7.9 C 63 %
194 02-04-2020 08:11:18 7.9 C 63 %
195 02-04-2020 08:21:17 7.8 C 63 %
196 02-04-2020 08:31:17 7.9 C 63 %
197 02-04-2020 08:41:17 7.8 C 63 %
198 02-04-2020 08:51:17 7.8 C 63 %
199 02-04-2020 09:01:17 7.8 C 63 %
200 02-04-2020 09:11:17 7.8 C 63 %
Sensor: Nr:Datum:Temp:Feuchte:
G-T/H 201 02-04-2020 09:21:17 7.8 C 63 %
202 02-04-2020 09:31:17 7.8 C 63 %
203 02-04-2020 09:41:17 7.8 C 63 %
204 02-04-2020 09:51:18 7.8 C 63 %
205 02-04-2020 10:01:18 7.7 C 63 %
206 02-04-2020 10:11:18 7.7 C 63 %
207 02-04-2020 10:21:17 7.7 C 63 %
208 02-04-2020 10:31:17 7.7 C 63 %
209 02-04-2020 10:41:17 7.7 C 63 %
210 02-04-2020 10:51:17 7.6 C 64 %
211 02-04-2020 11:01:17 7.6 C 64 %
212 02-04-2020 11:11:17 7.7 C 64 %
213 02-04-2020 11:21:17 7.7 C 64 %
214 02-04-2020 11:31:18 7.6 C 64 %
215 02-04-2020 11:41:18 7.7 C 64 %
216 02-04-2020 11:51:17 7.7 C 64 %
217 02-04-2020 12:01:17 7.7 C 64 %
218 02-04-2020 12:11:17 7.7 C 65 %
219 02-04-2020 12:21:17 7.7 C 65 %
220 02-04-2020 12:31:18 7.7 C 65 %
221 02-04-2020 12:41:18 7.7 C 65 %
222 02-04-2020 12:51:17 7.8 C 65 %
223 02-04-2020 13:01:17 7.8 C 65 %
224 02-04-2020 13:11:18 7.8 C 65 %
225 02-04-2020 13:21:17 7.8 C 65 %
Sensor: Nr:Datum:Temp:Feuchte:
G-T/H 226 02-04-2020 13:31:17 7.8 C 65 %
227 02-04-2020 13:41:17 7.8 C 65 %
228 02-04-2020 13:51:17 7.8 C 65 %
229 02-04-2020 14:01:17 7.9 C 65 %
230 02-04-2020 14:11:17 7.9 C 65 %
231 02-04-2020 14:21:17 7.9 C 65 %
232 02-04-2020 14:31:18 8 C 65 %
233 02-04-2020 14:41:18 7.9 C 66 %
234 02-04-2020 14:51:17 8 C 65 %
235 02-04-2020 15:01:18 8 C 65 %
236 02-04-2020 15:11:18 8 C 65 %
237 02-04-2020 15:21:17 8 C 65 %
238 02-04-2020 15:31:18 8.1 C 65 %
239 02-04-2020 15:41:18 8.1 C 65 %
240 02-04-2020 15:51:17 8.1 C 65 %
241 02-04-2020 16:01:17 8.1 C 65 %
242 02-04-2020 16:11:17 8.1 C 65 %
243 02-04-2020 16:21:17 8.1 C 65 %
244 02-04-2020 16:31:18 8.2 C 65 %
245 02-04-2020 16:41:18 8.2 C 65 %
246 02-04-2020 16:51:17 8.2 C 65 %
247 02-04-2020 17:01:17 8.3 C 65 %
248 02-04-2020 17:11:17 8.3 C 65 %
249 02-04-2020 17:21:17 8.3 C 65 %
250 02-04-2020 17:31:18 8.3 C 65 %
Sensor: Nr:Datum:Temp:Feuchte:
G-T/H 251 02-04-2020 17:41:18 8.3 C 65 %
252 02-04-2020 17:51:17 8.4 C 65 %
253 02-04-2020 18:01:17 8.4 C 65 %
254 02-04-2020 18:11:17 8.4 C 65 %
255 02-04-2020 18:21:17 8.4 C 65 %
256 02-04-2020 18:31:17 8.4 C 65 %
257 02-04-2020 18:41:17 8.5 C 65 %
258 02-04-2020 18:51:17 8.5 C 65 %
259 02-04-2020 19:01:17 8.5 C 65 %
260 02-04-2020 19:11:17 8.5 C 65 %
261 02-04-2020 19:21:17 8.6 C 65 %
262 02-04-2020 19:31:17 8.6 C 66 %
263 02-04-2020 19:41:17 8.6 C 66 %
264 02-04-2020 19:51:17 8.6 C 66 %
265 02-04-2020 20:01:17 8.6 C 66 %
266 02-04-2020 20:11:17 8.6 C 66 %
267 02-04-2020 20:21:17 8.6 C 66 %
268 02-04-2020 20:31:17 8.6 C 66 %
269 02-04-2020 20:41:17 8.6 C 66 %
270 02-04-2020 20:51:17 8.6 C 66 %
271 02-04-2020 21:01:17 8.6 C 66 %
272 02-04-2020 21:11:17 8.7 C 66 %
273 02-04-2020 21:21:17 8.7 C 66 %
274 02-04-2020 21:31:18 8.7 C 66 %
275 02-04-2020 21:41:18 8.7 C 66 %
Sensor: Nr:Datum:Temp:Feuchte:
G-T/H 276 02-04-2020 21:51:17 8.7 C 66 %
277 02-04-2020 22:01:17 8.7 C 66 %
278 02-04-2020 22:11:17 8.7 C 67 %
279 02-04-2020 22:21:17 8.7 C 67 %
280 02-04-2020 22:31:18 8.7 C 67 %
281 02-04-2020 22:41:18 8.7 C 67 %
282 02-04-2020 22:51:17 8.7 C 67 %
283 02-04-2020 23:01:17 8.7 C 67 %
284 02-04-2020 23:11:17 8.7 C 67 %
285 02-04-2020 23:21:17 8.7 C 67 %
286 02-04-2020 23:31:18 8.7 C 67 %
287 02-04-2020 23:41:18 8.7 C 67 %
288 02-04-2020 23:51:17 8.7 C 67 %
289 03-04-2020 00:01:18 8.7 C 67 %
290 03-04-2020 00:11:18 8.7 C 67 %
291 03-04-2020 00:21:17 8.7 C 67 %
292 03-04-2020 00:31:17 8.7 C 67 %
293 03-04-2020 00:41:17 8.7 C 67 %
294 03-04-2020 00:51:17 8.7 C 67 %
295 03-04-2020 01:01:18 8.7 C 67 %
296 03-04-2020 01:11:18 8.7 C 67 %
297 03-04-2020 01:21:17 8.7 C 67 %
298 03-04-2020 01:31:18 8.7 C 67 %
299 03-04-2020 01:41:18 8.9 C 67 %
300 03-04-2020 01:51:17 8.7 C 66 %
Sensor: Nr:Datum:Temp:Feuchte:
G-T/H 301 03-04-2020 02:01:18 8.7 C 66 %
302 03-04-2020 02:11:18 8.7 C 66 %
303 03-04-2020 02:21:18 8.7 C 66 %
304 03-04-2020 02:31:18 8.7 C 66 %
305 03-04-2020 02:41:18 8.7 C 66 %
306 03-04-2020 02:51:17 8.7 C 66 %
307 03-04-2020 03:01:18 8.7 C 66 %
308 03-04-2020 03:11:18 8.7 C 66 %
309 03-04-2020 03:21:17 8.7 C 66 %
310 03-04-2020 03:31:17 8.7 C 66 %
311 03-04-2020 03:41:17 8.7 C 67 %
312 03-04-2020 03:51:17 8.7 C 67 %
313 03-04-2020 04:01:17 8.7 C 67 %
314 03-04-2020 04:11:17 8.7 C 67 %
315 03-04-2020 04:21:17 8.7 C 67 %
316 03-04-2020 04:31:18 8.7 C 67 %
317 03-04-2020 04:41:18 8.7 C 67 %
318 03-04-2020 04:51:18 8.7 C 67 %
319 03-04-2020 05:01:18 8.7 C 67 %
320 03-04-2020 05:11:18 8.7 C 67 %
321 03-04-2020 05:21:17 8.7 C 67 %
322 03-04-2020 05:31:17 8.7 C 67 %
323 03-04-2020 05:41:17 8.7 C 67 %
324 03-04-2020 05:51:17 8.7 C 67 %
325 03-04-2020 06:01:18 8.7 C 67 %
Sensor: Nr:Datum:Temp:Feuchte:
G-T/H 326 03-04-2020 06:11:18 8.7 C 67 %
327 03-04-2020 06:21:17 8.7 C 67 %
328 03-04-2020 06:31:17 8.6 C 67 %
329 03-04-2020 06:41:17 8.6 C 67 %
330 03-04-2020 06:51:17 8.7 C 67 %
331 03-04-2020 07:01:17 8.6 C 67 %
332 03-04-2020 07:11:17 8.6 C 67 %
333 03-04-2020 07:21:18 8.6 C 67 %
334 03-04-2020 07:31:17 8.6 C 67 %
335 03-04-2020 07:41:17 8.6 C 67 %
336 03-04-2020 07:51:17 8.6 C 67 %
337 03-04-2020 08:01:17 8.6 C 67 %
338 03-04-2020 08:11:17 8.6 C 67 %
339 03-04-2020 08:21:18 8.6 C 67 %
340 03-04-2020 08:31:17 8.6 C 67 %
341 03-04-2020 08:41:17 8.7 C 67 %
342 03-04-2020 08:51:18 8.7 C 67 %
343 03-04-2020 09:01:17 8.7 C 67 %
344 03-04-2020 09:11:17 8.7 C 67 %
345 03-04-2020 09:21:18 8.7 C 67 %
346 03-04-2020 09:31:18 8.7 C 67 %
347 03-04-2020 09:41:18 8.7 C 67 %
348 03-04-2020 09:51:17 8.7 C 67 %
349 03-04-2020 10:01:18 8.7 C 68 %
350 03-04-2020 10:11:18 8.7 C 68 %
Sensor: Nr:Datum:Temp:Feuchte:
G-T/H 351 03-04-2020 10:21:17 8.7 C 68 %
352 03-04-2020 10:31:18 8.7 C 68 %
353 03-04-2020 10:41:18 8.7 C 68 %
354 03-04-2020 10:51:17 8.7 C 68 %
355 03-04-2020 11:01:17 8.7 C 68 %
356 03-04-2020 11:11:17 8.7 C 68 %
357 03-04-2020 11:21:17 8.7 C 68 %
358 03-04-2020 11:31:17 8.8 C 68 %
359 03-04-2020 11:41:17 8.7 C 68 %
360 03-04-2020 11:51:17 8.8 C 68 %
361 03-04-2020 12:01:17 8.8 C 68 %
362 03-04-2020 12:11:17 8.8 C 68 %
363 03-04-2020 12:21:17 8.8 C 68 %
364 03-04-2020 12:31:17 8.9 C 68 %
365 03-04-2020 12:41:18 8.9 C 68 %
366 03-04-2020 12:51:17 8.9 C 68 %
367 03-04-2020 13:01:18 8.9 C 68 %
368 03-04-2020 13:11:18 9 C 67 %
369 03-04-2020 13:21:17 9.1 C 67 %
370 03-04-2020 13:31:17 9.2 C 66 %
371 03-04-2020 13:41:17 9.3 C 65 %
372 03-04-2020 13:51:17 9.4 C 64 %
373 03-04-2020 14:01:18 9.4 C 63 %
374 03-04-2020 14:11:18 9.5 C 62 %
375 03-04-2020 14:21:17 9.5 C 62 %
Sensor: Nr:Datum:Temp:Feuchte:
G-T/H 376 03-04-2020 14:31:17 9.5 C 61 %
377 03-04-2020 14:41:18 9.6 C 61 %
378 03-04-2020 14:51:17 9.6 C 61 %
379 03-04-2020 15:01:17 9.6 C 60 %
380 03-04-2020 15:11:17 9.7 C 60 %
381 03-04-2020 15:21:18 9.7 C 59 %
382 03-04-2020 15:31:17 9.7 C 59 %
383 03-04-2020 15:41:17 9.8 C 59 %
384 03-04-2020 15:51:17 9.8 C 59 %
385 03-04-2020 16:01:17 9.9 C 59 %
386 03-04-2020 16:11:17 9.9 C 58 %
387 03-04-2020 16:21:17 10 C 57 %
388 03-04-2020 16:31:17 10 C 56 %
389 03-04-2020 16:41:17 10.1 C 56 %
390 03-04-2020 16:51:17 10.1 C 55 %
391 03-04-2020 17:01:17 10.1 C 55 %
392 03-04-2020 17:11:17 10.1 C 55 %
393 03-04-2020 17:21:17 10.1 C 54 %
394 03-04-2020 17:31:17 10.1 C 54 %
395 03-04-2020 17:41:17 10.2 C 54 %
396 03-04-2020 17:51:17 10.2 C 54 %
397 03-04-2020 18:01:17 10.1 C 54 %
398 03-04-2020 18:11:17 10.1 C 53 %
399 03-04-2020 18:21:17 10.2 C 53 %
400 03-04-2020 18:31:18 10.2 C 53 %
Sensor: Nr:Datum:Temp:Feuchte:
G-T/H 401 03-04-2020 18:41:18 10.2 C 53 %
402 03-04-2020 18:51:17 10.1 C 53 %
403 03-04-2020 19:01:18 10.1 C 53 %
404 03-04-2020 19:11:18 10.1 C 54 %
405 03-04-2020 19:21:17 10.2 C 54 %
406 03-04-2020 19:31:17 10.1 C 54 %
407 03-04-2020 19:41:17 10.1 C 53 %
408 03-04-2020 19:51:17 10.1 C 53 %
409 03-04-2020 20:01:17 10.1 C 53 %
410 03-04-2020 20:11:17 10.1 C 52 %
411 03-04-2020 20:21:17 10 C 52 %
412 03-04-2020 20:31:18 10 C 51 %
413 03-04-2020 20:41:18 10 C 50 %
414 03-04-2020 20:51:18 10 C 50 %
415 03-04-2020 21:01:17 10 C 50 %
416 03-04-2020 21:11:17 9.9 C 50 %
417 03-04-2020 21:21:17 9.9 C 49 %
418 03-04-2020 21:31:17 9.8 C 48 %
419 03-04-2020 21:41:17 9.8 C 48 %
420 03-04-2020 21:51:17 9.8 C 48 %
421 03-04-2020 22:01:17 9.7 C 48 %
422 03-04-2020 22:11:17 9.7 C 47 %
423 03-04-2020 22:21:17 9.5 C 47 %
424 03-04-2020 22:31:18 9.4 C 47 %
425 03-04-2020 22:41:18 9.2 C 47 %
Sensor: Nr:Datum:Temp:Feuchte:
G-T/H 426 03-04-2020 22:51:17 9.1 C 47 %
427 03-04-2020 23:01:17 9.1 C 47 %
428 03-04-2020 23:11:18 9.2 C 47 %
429 03-04-2020 23:21:18 9.3 C 47 %
430 03-04-2020 23:31:17 8.9 C 47 %
431 03-04-2020 23:41:18 8.9 C 47 %
432 03-04-2020 23:51:17 8.7 C 47 %
433 04-04-2020 00:01:17 8.6 C 47 %
434 04-04-2020 00:11:18 8.5 C 47 %
435 04-04-2020 00:21:17 8.5 C 47 %
436 04-04-2020 00:31:17 8.4 C 46 %
437 04-04-2020 00:41:17 8.3 C 46 %
438 04-04-2020 00:51:17 8.1 C 46 %
439 04-04-2020 01:01:17 8 C 46 %
440 04-04-2020 01:11:17 8 C 46 %
441 04-04-2020 01:21:18 7.8 C 47 %
442 04-04-2020 01:31:17 7.8 C 47 %
443 04-04-2020 01:41:17 7.6 C 48 %
444 04-04-2020 01:51:17 7.4 C 49 %
445 04-04-2020 02:01:18 7.1 C 49 %
446 04-04-2020 02:11:18 7 C 49 %
447 04-04-2020 02:21:17 6.8 C 50 %
448 04-04-2020 02:31:17 6.7 C 50 %
449 04-04-2020 02:41:17 6.5 C 51 %
450 04-04-2020 02:51:17 6.5 C 51 %
Sensor: Nr:Datum:Temp:Feuchte:
G-T/H 451 04-04-2020 03:01:18 6.3 C 51 %
452 04-04-2020 03:11:18 6.2 C 51 %
453 04-04-2020 03:21:17 6 C 51 %
454 04-04-2020 03:31:18 5.9 C 53 %
455 04-04-2020 03:41:18 5.9 C 53 %
456 04-04-2020 03:51:17 5.7 C 53 %
457 04-04-2020 04:01:17 5.6 C 53 %
458 04-04-2020 04:11:17 5.5 C 53 %
459 04-04-2020 04:21:17 5.4 C 53 %
460 04-04-2020 04:31:17 5.3 C 53 %
461 04-04-2020 04:41:17 5.2 C 53 %
462 04-04-2020 04:51:17 5 C 53 %
463 04-04-2020 05:01:18 5 C 54 %
464 04-04-2020 05:11:18 4.8 C 55 %
465 04-04-2020 05:21:18 4.7 C 55 %
466 04-04-2020 05:31:17 4.7 C 55 %
467 04-04-2020 05:41:17 4.7 C 55 %
468 04-04-2020 05:51:17 4.7 C 55 %
469 04-04-2020 06:01:18 4.7 C 55 %
470 04-04-2020 06:11:18 4.6 C 55 %
471 04-04-2020 06:21:17 4.6 C 55 %
472 04-04-2020 06:31:17 4.5 C 55 %
473 04-04-2020 06:41:17 4.5